<?xml version='1.0' encoding='UTF-8'?><gpx version="1.1" creator="JPX - https://github.com/jenetics/jpx" xmlns="http://www.topografix.com/GPX/1/1"><trk><trkseg><trkpt lat="55.736233188235836" lon="52.40396902436208"><ele>121.00000000000001</ele><time>2026-04-24T11:31:05Z</time></trkpt><trkpt lat="55.736185286198854" lon="52.403895929404"><ele>121.0</ele><time>2026-04-24T11:31:07Z</time></trkpt><trkpt lat="55.73610895845789" lon="52.403802860317825"><ele>121.0</ele><time>2026-04-24T11:31:10Z</time></trkpt><trkpt lat="55.73604763453546" lon="52.40375887727995"><ele>121.0</ele><time>2026-04-24T11:31:12Z</time></trkpt><trkpt lat="55.735983394158765" lon="52.403676188225674"><ele>121.00000000000001</ele><time>2026-04-24T11:31:14Z</time></trkpt><trkpt lat="55.735923377551075" lon="52.40359793381543"><ele>121.0</ele><time>2026-04-24T11:31:16Z</time></trkpt><trkpt lat="55.73586138004783" lon="52.40350204266234"><ele>121.00000000000001</ele><time>2026-04-24T11:31:18Z</time></trkpt><trkpt lat="55.73580231963907" lon="52.403391556915835"><ele>121.0</ele><time>2026-04-24T11:31:20Z</time></trkpt><trkpt lat="55.735747433485635" lon="52.403292362171165"><ele>121.0</ele><time>2026-04-24T11:31:22Z</time></trkpt><trkpt lat="55.735685074305565" lon="52.40320561261818"><ele>121.0</ele><time>2026-04-24T11:31:24Z</time></trkpt><trkpt lat="55.735620895058496" lon="52.4030995835862"><ele>121.00000000000001</ele><time>2026-04-24T11:31:26Z</time></trkpt><trkpt lat="55.7355652040132" lon="52.402977250024925"><ele>121.0</ele><time>2026-04-24T11:31:28Z</time></trkpt><trkpt lat="55.73550255843845" lon="52.4028655492004"><ele>121.33333333333334</ele><time>2026-04-24T11:31:30Z</time></trkpt><trkpt lat="55.73545698180117" lon="52.40276493540348"><ele>121.66666666666667</ele><time>2026-04-24T11:31:32Z</time></trkpt><trkpt lat="55.73539543437045" lon="52.402648835732364"><ele>122.0</ele><time>2026-04-24T11:31:34Z</time></trkpt><trkpt lat="55.735339713863674" lon="52.402530198766684"><ele>122.33333333333334</ele><time>2026-04-24T11:31:36Z</time></trkpt><trkpt lat="55.73528156536101" lon="52.40244324753762"><ele>122.66666666666667</ele><time>2026-04-24T11:31:38Z</time></trkpt><trkpt lat="55.73522578961973" lon="52.4023320290293"><ele>123.0</ele><time>2026-04-24T11:31:41Z</time></trkpt><trkpt lat="55.73516831795779" lon="52.402256378914856"><ele>122.0</ele><time>2026-04-24T11:31:42Z</time></trkpt><trkpt lat="55.73507022446407" lon="52.402212565915676"><ele>121.0</ele><time>2026-04-24T11:31:44Z</time></trkpt><trkpt lat="55.735001431615075" lon="52.4021855184408"><ele>120.0</ele><time>2026-04-24T11:31:46Z</time></trkpt><trkpt lat="55.734932013226135" lon="52.40210459028945"><ele>119.0</ele><time>2026-04-24T11:31:49Z</time></trkpt><trkpt lat="55.7348868779566" lon="52.40200493099398"><ele>118.0</ele><time>2026-04-24T11:31:53Z</time></trkpt><trkpt lat="55.73482686421684" lon="52.401877898735165"><ele>117.0</ele><time>2026-04-24T11:31:56Z</time></trkpt><trkpt lat="55.734777841210295" lon="52.401806987091206"><ele>117.0</ele><time>2026-04-24T11:31:58Z</time></trkpt><trkpt lat="55.73473123987845" lon="52.40172058639032"><ele>117.0</ele><time>2026-04-24T11:32:00Z</time></trkpt><trkpt lat="55.7346401146448" lon="52.40157775058787"><ele>117.0</ele><time>2026-04-24T11:32:02Z</time></trkpt><trkpt lat="55.73458567733785" lon="52.4014724494104"><ele>117.0</ele><time>2026-04-24T11:32:04Z</time></trkpt><trkpt lat="55.73455969952008" lon="52.40136545948639"><ele>117.0</ele><time>2026-04-24T11:32:06Z</time></trkpt><trkpt lat="55.73455072351695" lon="52.40122856543667"><ele>117.0</ele><time>2026-04-24T11:32:08Z</time></trkpt><trkpt lat="55.734576847141284" lon="52.40110726732077"><ele>117.0</ele><time>2026-04-24T11:32:10Z</time></trkpt><trkpt lat="55.73454700702755" lon="52.40097888580465"><ele>117.0</ele><time>2026-04-24T11:32:12Z</time></trkpt><trkpt lat="55.734481891473614" lon="52.40088192716031"><ele>117.0</ele><time>2026-04-24T11:32:14Z</time></trkpt><trkpt lat="55.734425905383254" lon="52.40078777100335"><ele>117.0</ele><time>2026-04-24T11:32:16Z</time></trkpt><trkpt lat="55.73436654740333" lon="52.40068862538385"><ele>117.0</ele><time>2026-04-24T11:32:18Z</time></trkpt><trkpt lat="55.7343129430999" lon="52.40058774317024"><ele>117.0</ele><time>2026-04-24T11:32:20Z</time></trkpt><trkpt lat="55.73425382779794" lon="52.400483551369526"><ele>117.5</ele><time>2026-04-24T11:32:22Z</time></trkpt><trkpt lat="55.7342004563139" lon="52.4003787852811"><ele>118.0</ele><time>2026-04-24T11:32:24Z</time></trkpt><trkpt lat="55.73414428157131" lon="52.40027447871111"><ele>118.5</ele><time>2026-04-24T11:32:26.001Z</time></trkpt><trkpt lat="55.734088938654885" lon="52.40017500395209"><ele>119.0</ele><time>2026-04-24T11:32:28.001Z</time></trkpt><trkpt lat="55.73402646207183" lon="52.400057295398256"><ele>119.5</ele><time>2026-04-24T11:32:31.001Z</time></trkpt><trkpt lat="55.73397196342375" lon="52.39994562036922"><ele>120.0</ele><time>2026-04-24T11:32:34.001Z</time></trkpt><trkpt lat="55.73391892619633" lon="52.399822149420544"><ele>120.0</ele><time>2026-04-24T11:32:37.002Z</time></trkpt><trkpt lat="55.7338533947987" lon="52.399772673527096"><ele>120.0</ele><time>2026-04-24T11:32:40.002Z</time></trkpt><trkpt lat="55.733808318384455" lon="52.399668782203975"><ele>120.0</ele><time>2026-04-24T11:32:43.002Z</time></trkpt><trkpt lat="55.73374325408951" lon="52.39956677696364"><ele>120.0</ele><time>2026-04-24T11:32:46.002Z</time></trkpt><trkpt lat="55.733700099306525" lon="52.39945176228692"><ele>120.0</ele><time>2026-04-24T11:32:49.001Z</time></trkpt><trkpt lat="55.733652396539455" lon="52.399348277768915"><ele>120.0</ele><time>2026-04-24T11:32:51.001Z</time></trkpt><trkpt lat="55.73359645950993" lon="52.39924248516203"><ele>120.28571428571429</ele><time>2026-04-24T11:32:53.001Z</time></trkpt><trkpt lat="55.733547310633114" lon="52.399164233427875"><ele>120.57142857142856</ele><time>2026-04-24T11:32:55.001Z</time></trkpt><trkpt lat="55.73348726033089" lon="52.39910127907458"><ele>120.85714285714285</ele><time>2026-04-24T11:32:58.001Z</time></trkpt><trkpt lat="55.73343864269431" lon="52.399020944993005"><ele>121.14285714285714</ele><time>2026-04-24T11:33:00.001Z</time></trkpt><trkpt lat="55.733404086511015" lon="52.39891237221199"><ele>121.42857142857142</ele><time>2026-04-24T11:33:02.001Z</time></trkpt><trkpt lat="55.73335273404172" lon="52.39884136593102"><ele>121.7142857142857</ele><time>2026-04-24T11:33:04.001Z</time></trkpt><trkpt lat="55.73331151595371" lon="52.39875560245573"><ele>121.99999999999999</ele><time>2026-04-24T11:33:06.001Z</time></trkpt><trkpt lat="55.73324382257228" lon="52.39864849924626"><ele>121.99999999999999</ele><time>2026-04-24T11:33:08.001Z</time></trkpt><trkpt lat="55.73319366344196" lon="52.39854925843011"><ele>122.0</ele><time>2026-04-24T11:33:10.001Z</time></trkpt><trkpt lat="55.73313889898744" lon="52.398423799985224"><ele>122.0</ele><time>2026-04-24T11:33:13.001Z</time></trkpt><trkpt lat="55.73308056521519" lon="52.39831974499991"><ele>122.0</ele><time>2026-04-24T11:33:16.001Z</time></trkpt><trkpt lat="55.73302425861293" lon="52.398197339910055"><ele>121.99999999999999</ele><time>2026-04-24T11:33:20.001Z</time></trkpt><trkpt lat="55.73296417639138" lon="52.39811679160522"><ele>122.0</ele><time>2026-04-24T11:33:23.001Z</time></trkpt><trkpt lat="55.7329091568091" lon="52.3980355295402"><ele>121.7142857142857</ele><time>2026-04-24T11:33:28.001Z</time></trkpt><trkpt lat="55.73286481423621" lon="52.39794164137997"><ele>121.42857142857142</ele><time>2026-04-24T11:33:32Z</time></trkpt><trkpt lat="55.732820924918784" lon="52.39783188631632"><ele>121.14285714285714</ele><time>2026-04-24T11:33:35Z</time></trkpt><trkpt lat="55.73277311534105" lon="52.39770214585788"><ele>120.85714285714285</ele><time>2026-04-24T11:33:38Z</time></trkpt><trkpt lat="55.73271435212582" lon="52.3976332668675"><ele>120.57142857142856</ele><time>2026-04-24T11:33:40Z</time></trkpt><trkpt lat="55.73267630204015" lon="52.39753103782653"><ele>120.28571428571429</ele><time>2026-04-24T11:33:42Z</time></trkpt><trkpt lat="55.73262229510272" lon="52.39743309764888"><ele>120.0</ele><time>2026-04-24T11:33:45Z</time></trkpt><trkpt lat="55.73258145942025" lon="52.39733869035627"><ele>120.0</ele><time>2026-04-24T11:33:48Z</time></trkpt><trkpt lat="55.7325210753793" lon="52.39722554735905"><ele>120.0</ele><time>2026-04-24T11:33:51Z</time></trkpt><trkpt lat="55.732481962991116" lon="52.39712119416207"><ele>120.0</ele><time>2026-04-24T11:33:53Z</time></trkpt><trkpt lat="55.73242084098426" lon="52.3970358230817"><ele>120.0</ele><time>2026-04-24T11:33:55Z</time></trkpt><trkpt lat="55.73236088485379" lon="52.39696752668134"><ele>120.0</ele><time>2026-04-24T11:33:57Z</time></trkpt><trkpt lat="55.7323069287412" lon="52.39686873539367"><ele>120.0</ele><time>2026-04-24T11:33:59Z</time></trkpt><trkpt lat="55.732248137705355" lon="52.39676625638863"><ele>120.0</ele><time>2026-04-24T11:34:02Z</time></trkpt><trkpt lat="55.73219799300005" lon="52.39667985273912"><ele>120.0</ele><time>2026-04-24T11:34:04Z</time></trkpt><trkpt lat="55.73213483276791" lon="52.39659448468042"><ele>120.0</ele><time>2026-04-24T11:34:07Z</time></trkpt><trkpt lat="55.732088830876805" lon="52.39646773681869"><ele>120.0</ele><time>2026-04-24T11:34:12Z</time></trkpt><trkpt lat="55.732029922151874" lon="52.396367588837435"><ele>120.0</ele><time>2026-04-24T11:34:15Z</time></trkpt><trkpt lat="55.73197371073197" lon="52.3962334474638"><ele>120.0</ele><time>2026-04-24T11:34:18Z</time></trkpt><trkpt lat="55.731921045712326" lon="52.39615136163112"><ele>119.66666666666667</ele><time>2026-04-24T11:34:21Z</time></trkpt><trkpt lat="55.73186537589588" lon="52.39605304090334"><ele>119.33333333333334</ele><time>2026-04-24T11:34:24Z</time></trkpt><trkpt lat="55.73182198192945" lon="52.395951623749134"><ele>119.0</ele><time>2026-04-24T11:34:27Z</time></trkpt><trkpt lat="55.73176307039834" lon="52.395838146617656"><ele>118.66666666666667</ele><time>2026-04-24T11:34:30Z</time></trkpt><trkpt lat="55.7317025167463" lon="52.39575794306665"><ele>118.33333333333334</ele><time>2026-04-24T11:34:32Z</time></trkpt><trkpt lat="55.731614853221004" lon="52.395642083551564"><ele>118.0</ele><time>2026-04-24T11:34:35Z</time></trkpt><trkpt lat="55.73157133313656" lon="52.395546706129736"><ele>118.50000000000001</ele><time>2026-04-24T11:34:37Z</time></trkpt><trkpt lat="55.73152700002903" lon="52.39545810022873"><ele>119.0</ele><time>2026-04-24T11:34:39Z</time></trkpt><trkpt lat="55.731456352341134" lon="52.39533614037469"><ele>119.5</ele><time>2026-04-24T11:34:42Z</time></trkpt><trkpt lat="55.73140809400884" lon="52.39526145134566"><ele>120.0</ele><time>2026-04-24T11:34:44.002Z</time></trkpt><trkpt lat="55.731357832952675" lon="52.39513645673859"><ele>120.50000000000001</ele><time>2026-04-24T11:34:47.002Z</time></trkpt><trkpt lat="55.731298384410294" lon="52.3950326482059"><ele>121.0</ele><time>2026-04-24T11:34:50.002Z</time></trkpt><trkpt lat="55.73124360783798" lon="52.394942736049025"><ele>121.00000000000001</ele><time>2026-04-24T11:34:52.002Z</time></trkpt><trkpt lat="55.73117872719266" lon="52.394841223340485"><ele>121.0</ele><time>2026-04-24T11:34:55.001Z</time></trkpt><trkpt lat="55.731119256079545" lon="52.39473889804019"><ele>121.0</ele><time>2026-04-24T11:34:58.001Z</time></trkpt><trkpt lat="55.731045550582245" lon="52.39464366836404"><ele>121.0</ele><time>2026-04-24T11:35:01.001Z</time></trkpt><trkpt lat="55.73099989915996" lon="52.39452121965612"><ele>121.00000000000001</ele><time>2026-04-24T11:35:04.001Z</time></trkpt><trkpt lat="55.730955969503135" lon="52.39443806740542"><ele>121.0</ele><time>2026-04-24T11:35:06.001Z</time></trkpt><trkpt lat="55.73089509799766" lon="52.39436293530943"><ele>120.14285714285714</ele><time>2026-04-24T11:35:09.001Z</time></trkpt><trkpt lat="55.73085203403961" lon="52.39427951781069"><ele>119.28571428571428</ele><time>2026-04-24T11:35:11.001Z</time></trkpt><trkpt lat="55.730804248664924" lon="52.39419749508159"><ele>118.42857142857142</ele><time>2026-04-24T11:35:13.001Z</time></trkpt><trkpt lat="55.730760309221985" lon="52.39405339153119"><ele>117.57142857142856</ele><time>2026-04-24T11:35:16.001Z</time></trkpt><trkpt lat="55.730716359488845" lon="52.39394518818924"><ele>116.71428571428571</ele><time>2026-04-24T11:35:18.001Z</time></trkpt><trkpt lat="55.730678244467775" lon="52.39383632086359"><ele>115.85714285714283</ele><time>2026-04-24T11:35:20.001Z</time></trkpt><trkpt lat="55.73063256032206" lon="52.393735908543604"><ele>114.99999999999999</ele><time>2026-04-24T11:35:22.001Z</time></trkpt><trkpt lat="55.730584421674216" lon="52.393629750665546"><ele>114.83333333333334</ele><time>2026-04-24T11:35:24.001Z</time></trkpt><trkpt lat="55.730525117058775" lon="52.39351834234201"><ele>114.66666666666667</ele><time>2026-04-24T11:35:26.001Z</time></trkpt><trkpt lat="55.730471929177696" lon="52.3934206890254"><ele>114.5</ele><time>2026-04-24T11:35:28.001Z</time></trkpt><trkpt lat="55.7304213306358" lon="52.39331207516367"><ele>114.33333333333334</ele><time>2026-04-24T11:35:30.001Z</time></trkpt><trkpt lat="55.73036894072188" lon="52.393213757411914"><ele>114.16666666666667</ele><time>2026-04-24T11:35:32Z</time></trkpt><trkpt lat="55.73031683619632" lon="52.39310974614017"><ele>114.0</ele><time>2026-04-24T11:35:35Z</time></trkpt><trkpt lat="55.73027432298038" lon="52.392975264522704"><ele>113.83333333333333</ele><time>2026-04-24T11:35:40Z</time></trkpt><trkpt lat="55.730213521042955" lon="52.39286817301908"><ele>113.66666666666666</ele><time>2026-04-24T11:35:43Z</time></trkpt><trkpt lat="55.730160415307836" lon="52.39276737744295"><ele>113.5</ele><time>2026-04-24T11:35:45Z</time></trkpt><trkpt lat="55.73007844004552" lon="52.39264997947146"><ele>113.33333333333333</ele><time>2026-04-24T11:35:47Z</time></trkpt><trkpt lat="55.73002300857914" lon="52.39257445119491"><ele>113.16666666666666</ele><time>2026-04-24T11:35:49Z</time></trkpt><trkpt lat="55.7299609507159" lon="52.39251354814647"><ele>113.0</ele><time>2026-04-24T11:35:51Z</time></trkpt><trkpt lat="55.7299021776568" lon="52.39242555202528"><ele>112.99999999999999</ele><time>2026-04-24T11:35:53Z</time></trkpt><trkpt lat="55.72983853429989" lon="52.3923504819402"><ele>113.0</ele><time>2026-04-24T11:35:55Z</time></trkpt><trkpt lat="55.72978817290018" lon="52.39224104005979"><ele>113.0</ele><time>2026-04-24T11:35:57Z</time></trkpt><trkpt lat="55.72973320538457" lon="52.39215016610576"><ele>113.0</ele><time>2026-04-24T11:35:59Z</time></trkpt><trkpt lat="55.7296885945367" lon="52.392055853141"><ele>112.99999999999999</ele><time>2026-04-24T11:36:01Z</time></trkpt><trkpt lat="55.72963160707867" lon="52.39195939041111"><ele>113.0</ele><time>2026-04-24T11:36:04Z</time></trkpt><trkpt lat="55.72959417604575" lon="52.39184787164553"><ele>112.85714285714286</ele><time>2026-04-24T11:36:07Z</time></trkpt><trkpt lat="55.72954578405928" lon="52.39174347690728"><ele>112.71428571428571</ele><time>2026-04-24T11:36:10Z</time></trkpt><trkpt lat="55.72948159086975" lon="52.3917874101967"><ele>112.57142857142857</ele><time>2026-04-24T11:36:13Z</time></trkpt><trkpt lat="55.729402818154306" lon="52.39182188069757"><ele>112.42857142857143</ele><time>2026-04-24T11:36:16Z</time></trkpt><trkpt lat="55.72933487219015" lon="52.391732028695884"><ele>112.28571428571428</ele><time>2026-04-24T11:36:20Z</time></trkpt><trkpt lat="55.729286100776925" lon="52.39165680348857"><ele>112.14285714285714</ele><time>2026-04-24T11:36:23Z</time></trkpt><trkpt lat="55.72922865785406" lon="52.391602254199746"><ele>112.0</ele><time>2026-04-24T11:36:27Z</time></trkpt><trkpt lat="55.72918232040312" lon="52.39151556390784"><ele>111.66666666666667</ele><time>2026-04-24T11:36:43.999Z</time></trkpt><trkpt lat="55.729107313104976" lon="52.39141251225733"><ele>111.33333333333334</ele><time>2026-04-24T11:36:59Z</time></trkpt><trkpt lat="55.72905757968903" lon="52.39131349270573"><ele>111.0</ele><time>2026-04-24T11:37:02Z</time></trkpt><trkpt lat="55.7289940603378" lon="52.391238559111684"><ele>110.66666666666666</ele><time>2026-04-24T11:37:05Z</time></trkpt><trkpt lat="55.72892503481346" lon="52.39114780724473"><ele>110.33333333333333</ele><time>2026-04-24T11:37:08Z</time></trkpt><trkpt lat="55.72885469466075" lon="52.39106201056366"><ele>110.0</ele><time>2026-04-24T11:37:11Z</time></trkpt><trkpt lat="55.728784602025755" lon="52.39097332360108"><ele>109.99999999999999</ele><time>2026-04-24T11:37:14Z</time></trkpt><trkpt lat="55.72873344032727" lon="52.390903185834816"><ele>110.0</ele><time>2026-04-24T11:37:17Z</time></trkpt><trkpt lat="55.72872081837356" lon="52.390783081825006"><ele>110.0</ele><time>2026-04-24T11:37:21Z</time></trkpt><trkpt lat="55.728792654544876" lon="52.390680158310474"><ele>110.0</ele><time>2026-04-24T11:37:24Z</time></trkpt><trkpt lat="55.728855671398264" lon="52.390592502633154"><ele>109.99999999999999</ele><time>2026-04-24T11:37:27Z</time></trkpt><trkpt lat="55.72890549218854" lon="52.39048827182104"><ele>110.0</ele><time>2026-04-24T11:37:29.999Z</time></trkpt><trkpt lat="55.72896245568563" lon="52.39035931557134"><ele>109.99999999999999</ele><time>2026-04-24T11:37:33.999Z</time></trkpt><trkpt lat="55.72896030676353" lon="52.390230190885745"><ele>110.0</ele><time>2026-04-24T11:37:35.999Z</time></trkpt><trkpt lat="55.7289536192269" lon="52.390109681676456"><ele>110.0</ele><time>2026-04-24T11:37:37.999Z</time></trkpt><trkpt lat="55.728934817924824" lon="52.389989918231514"><ele>110.0</ele><time>2026-04-24T11:37:39.999Z</time></trkpt><trkpt lat="55.72888689130926" lon="52.38989129386009"><ele>109.99999999999999</ele><time>2026-04-24T11:37:42.999Z</time></trkpt><trkpt lat="55.72881920491299" lon="52.38973359224962"><ele>110.0</ele><time>2026-04-24T11:37:45.999Z</time></trkpt><trkpt lat="55.72874715087107" lon="52.38958924751583"><ele>110.49999999999999</ele><time>2026-04-24T11:37:48.999Z</time></trkpt><trkpt lat="55.728679617897875" lon="52.38943898591791"><ele>111.0</ele><time>2026-04-24T11:37:50.999Z</time></trkpt><trkpt lat="55.728628000740315" lon="52.38933985476061"><ele>111.5</ele><time>2026-04-24T11:37:52.999Z</time></trkpt><trkpt lat="55.72857260013535" lon="52.389244494271445"><ele>112.0</ele><time>2026-04-24T11:37:54.999Z</time></trkpt><trkpt lat="55.72852186863525" lon="52.38914326576093"><ele>112.49999999999999</ele><time>2026-04-24T11:37:56.999Z</time></trkpt><trkpt lat="55.72846029162511" lon="52.38903359060231"><ele>113.0</ele><time>2026-04-24T11:37:58.999Z</time></trkpt><trkpt lat="55.72839827477006" lon="52.38894123402381"><ele>113.33333333333333</ele><time>2026-04-24T11:38:00.999Z</time></trkpt><trkpt lat="55.72833998634719" lon="52.3888463626348"><ele>113.66666666666666</ele><time>2026-04-24T11:38:02.999Z</time></trkpt><trkpt lat="55.72828270985457" lon="52.38875122810126"><ele>114.0</ele><time>2026-04-24T11:38:04.999Z</time></trkpt><trkpt lat="55.72822341322498" lon="52.3886555290876"><ele>114.33333333333334</ele><time>2026-04-24T11:38:06.999Z</time></trkpt><trkpt lat="55.72816603251603" lon="52.3885539144567"><ele>114.66666666666667</ele><time>2026-04-24T11:38:08.999Z</time></trkpt><trkpt lat="55.72809641516999" lon="52.388456912683154"><ele>115.0</ele><time>2026-04-24T11:38:10.999Z</time></trkpt><trkpt lat="55.72804808909048" lon="52.388371320006"><ele>115.16666666666667</ele><time>2026-04-24T11:38:13.999Z</time></trkpt><trkpt lat="55.72798266384006" lon="52.3882567377871"><ele>115.33333333333334</ele><time>2026-04-24T11:38:14.999Z</time></trkpt><trkpt lat="55.727928037205935" lon="52.38815106835267"><ele>115.5</ele><time>2026-04-24T11:38:16.999Z</time></trkpt><trkpt lat="55.72787241230682" lon="52.38805340657949"><ele>115.66666666666666</ele><time>2026-04-24T11:38:18.999Z</time></trkpt><trkpt lat="55.72782222254103" lon="52.3879555000102"><ele>115.83333333333333</ele><time>2026-04-24T11:38:20.999Z</time></trkpt><trkpt lat="55.72778544337388" lon="52.38785568520531"><ele>116.0</ele><time>2026-04-24T11:38:22.999Z</time></trkpt><trkpt lat="55.72772571006955" lon="52.38774515268849"><ele>115.33333333333333</ele><time>2026-04-24T11:38:25.999Z</time></trkpt><trkpt lat="55.727673341345735" lon="52.38761235185805"><ele>114.66666666666666</ele><time>2026-04-24T11:38:28.999Z</time></trkpt><trkpt lat="55.72762922327154" lon="52.38751512454417"><ele>114.0</ele><time>2026-04-24T11:38:30.999Z</time></trkpt><trkpt lat="55.727578703609495" lon="52.387421422733965"><ele>113.33333333333334</ele><time>2026-04-24T11:38:32.999Z</time></trkpt><trkpt lat="55.72750358234285" lon="52.387307463069355"><ele>112.66666666666667</ele><time>2026-04-24T11:38:34.999Z</time></trkpt><trkpt lat="55.72744311634993" lon="52.387192121202354"><ele>112.0</ele><time>2026-04-24T11:38:38.999Z</time></trkpt><trkpt lat="55.727372883573935" lon="52.387038815319734"><ele>112.00000000000001</ele><time>2026-04-24T11:38:41.999Z</time></trkpt><trkpt lat="55.72732144658381" lon="52.38694722854898"><ele>112.0</ele><time>2026-04-24T11:38:43.999Z</time></trkpt><trkpt lat="55.72726015149897" lon="52.38683896117481"><ele>112.0</ele><time>2026-04-24T11:38:45.999Z</time></trkpt><trkpt lat="55.7272138138071" lon="52.386743171163445"><ele>112.0</ele><time>2026-04-24T11:38:47.999Z</time></trkpt><trkpt lat="55.72716294795797" lon="52.38665467350667"><ele>112.00000000000001</ele><time>2026-04-24T11:38:49.999Z</time></trkpt><trkpt lat="55.72707842977846" lon="52.386553674835"><ele>112.0</ele><time>2026-04-24T11:38:50.999Z</time></trkpt><trkpt lat="55.72702303422435" lon="52.386453257534804"><ele>112.0</ele><time>2026-04-24T11:38:52.999Z</time></trkpt><trkpt lat="55.72696747088836" lon="52.38636196628202"><ele>112.0</ele><time>2026-04-24T11:38:55Z</time></trkpt><trkpt lat="55.72691471205663" lon="52.38626957146669"><ele>112.0</ele><time>2026-04-24T11:38:57Z</time></trkpt><trkpt lat="55.726862621500466" lon="52.386176303272556"><ele>112.0</ele><time>2026-04-24T11:38:59Z</time></trkpt><trkpt lat="55.72681135032634" lon="52.386082795293014"><ele>112.0</ele><time>2026-04-24T11:39:01Z</time></trkpt><trkpt lat="55.726762791489996" lon="52.38598132756114"><ele>112.0</ele><time>2026-04-24T11:39:03Z</time></trkpt><trkpt lat="55.72670959051139" lon="52.38588351154546"><ele>112.0</ele><time>2026-04-24T11:39:05Z</time></trkpt><trkpt lat="55.72666094001622" lon="52.385783274330684"><ele>111.66666666666667</ele><time>2026-04-24T11:39:07Z</time></trkpt><trkpt lat="55.72660035006244" lon="52.38569207926517"><ele>111.33333333333334</ele><time>2026-04-24T11:39:09Z</time></trkpt><trkpt lat="55.7265320511434" lon="52.38557522512044"><ele>111.0</ele><time>2026-04-24T11:39:12Z</time></trkpt><trkpt lat="55.72647314186768" lon="52.385510764224705"><ele>110.66666666666666</ele><time>2026-04-24T11:39:15Z</time></trkpt><trkpt lat="55.7263990680596" lon="52.38551538410203"><ele>110.33333333333333</ele><time>2026-04-24T11:39:17Z</time></trkpt><trkpt lat="55.726334116341114" lon="52.385512914093944"><ele>110.0</ele><time>2026-04-24T11:39:19Z</time></trkpt><trkpt lat="55.72625842409832" lon="52.38547320433787"><ele>109.83333333333333</ele><time>2026-04-24T11:39:22Z</time></trkpt><trkpt lat="55.72619118202614" lon="52.38542195335945"><ele>109.66666666666666</ele><time>2026-04-24T11:39:24Z</time></trkpt><trkpt lat="55.72613923575573" lon="52.38533611113935"><ele>109.5</ele><time>2026-04-24T11:39:27Z</time></trkpt><trkpt lat="55.72607930989613" lon="52.38522311632942"><ele>109.33333333333334</ele><time>2026-04-24T11:39:30Z</time></trkpt><trkpt lat="55.726039142719785" lon="52.385135548625264"><ele>109.16666666666667</ele><time>2026-04-24T11:39:32Z</time></trkpt><trkpt lat="55.72596994274419" lon="52.385007747327855"><ele>109.0</ele><time>2026-04-24T11:39:34Z</time></trkpt><trkpt lat="55.72592690189567" lon="52.384916611542735"><ele>108.71428571428572</ele><time>2026-04-24T11:39:36Z</time></trkpt><trkpt lat="55.7258638972315" lon="52.38479586144938"><ele>108.42857142857143</ele><time>2026-04-24T11:39:38.999Z</time></trkpt><trkpt lat="55.725813131183884" lon="52.38471372066756"><ele>108.14285714285714</ele><time>2026-04-24T11:39:40.999Z</time></trkpt><trkpt lat="55.72576732491313" lon="52.38462845359278"><ele>107.85714285714286</ele><time>2026-04-24T11:39:42.999Z</time></trkpt><trkpt lat="55.72572439374271" lon="52.38454616185294"><ele>107.57142857142857</ele><time>2026-04-24T11:39:44.999Z</time></trkpt><trkpt lat="55.72568108527821" lon="52.38446373381784"><ele>107.28571428571429</ele><time>2026-04-24T11:39:46.999Z</time></trkpt><trkpt lat="55.72561602182176" lon="52.38435254391498"><ele>107.0</ele><time>2026-04-24T11:39:49.999Z</time></trkpt><trkpt lat="55.72555985898279" lon="52.38425178502462"><ele>106.83333333333333</ele><time>2026-04-24T11:39:52.999Z</time></trkpt><trkpt lat="55.72550401013219" lon="52.38414944325462"><ele>106.66666666666666</ele><time>2026-04-24T11:39:55.999Z</time></trkpt><trkpt lat="55.72545189702463" lon="52.384048386463455"><ele>106.5</ele><time>2026-04-24T11:39:58.999Z</time></trkpt><trkpt lat="55.725396836870594" lon="52.383952836705696"><ele>106.33333333333334</ele><time>2026-04-24T11:40:01.999Z</time></trkpt><trkpt lat="55.725333137603336" lon="52.38386396451734"><ele>106.16666666666667</ele><time>2026-04-24T11:40:04.999Z</time></trkpt><trkpt lat="55.725264336314865" lon="52.383785150019584"><ele>106.0</ele><time>2026-04-24T11:40:07.999Z</time></trkpt><trkpt lat="55.72520808744508" lon="52.38371704064101"><ele>106.00000000000001</ele><time>2026-04-24T11:40:10.999Z</time></trkpt><trkpt lat="55.725122125238066" lon="52.38357298265175"><ele>106.0</ele><time>2026-04-24T11:40:13.999Z</time></trkpt><trkpt lat="55.7250520289591" lon="52.38346433041467"><ele>106.0</ele><time>2026-04-24T11:40:15.999Z</time></trkpt><trkpt lat="55.72499609915121" lon="52.38336121445502"><ele>106.0</ele><time>2026-04-24T11:40:17.999Z</time></trkpt><trkpt lat="55.72495431039831" lon="52.383255133626164"><ele>106.00000000000001</ele><time>2026-04-24T11:40:20.999Z</time></trkpt><trkpt lat="55.72494790185216" lon="52.38311959538996"><ele>106.0</ele><time>2026-04-24T11:40:23.999Z</time></trkpt><trkpt lat="55.72496630099079" lon="52.382969596506115"><ele>106.33333333333334</ele><time>2026-04-24T11:40:26.999Z</time></trkpt><trkpt lat="55.72497916963947" lon="52.38285850816726"><ele>106.66666666666667</ele><time>2026-04-24T11:40:28.999Z</time></trkpt><trkpt lat="55.725029778184194" lon="52.38270408704314"><ele>107.0</ele><time>2026-04-24T11:40:31.999Z</time></trkpt><trkpt lat="55.72509114566382" lon="52.38252953986313"><ele>107.33333333333334</ele><time>2026-04-24T11:40:34.999Z</time></trkpt><trkpt lat="55.72510144883075" lon="52.382407370284305"><ele>107.66666666666667</ele><time>2026-04-24T11:40:37.999Z</time></trkpt><trkpt lat="55.72516611144004" lon="52.38230817522853"><ele>108.0</ele><time>2026-04-24T11:40:40.999Z</time></trkpt><trkpt lat="55.725180995701585" lon="52.382191237877585"><ele>108.16666666666667</ele><time>2026-04-24T11:40:43.999Z</time></trkpt><trkpt lat="55.725133635581834" lon="52.38211457348497"><ele>108.33333333333334</ele><time>2026-04-24T11:40:51.999Z</time></trkpt><trkpt lat="55.72519981638846" lon="52.3821697055468"><ele>108.5</ele><time>2026-04-24T11:41:44Z</time></trkpt><trkpt lat="55.72524052802183" lon="52.382308825263536"><ele>108.66666666666667</ele><time>2026-04-24T11:41:46.999Z</time></trkpt><trkpt lat="55.72528905173988" lon="52.38241073173913"><ele>108.83333333333334</ele><time>2026-04-24T11:41:48.999Z</time></trkpt><trkpt lat="55.72533707118046" lon="52.382509861307796"><ele>109.0</ele><time>2026-04-24T11:41:50.999Z</time></trkpt><trkpt lat="55.72539148704472" lon="52.38261496430378"><ele>109.0</ele><time>2026-04-24T11:41:52.999Z</time></trkpt><trkpt lat="55.72536242523916" lon="52.382444561757616"><ele>109.0</ele><time>2026-04-24T11:41:53.999Z</time></trkpt></trkseg><trkseg><trkpt lat="55.72480523974312" lon="52.382021462841436"><ele>109.0</ele><time>2026-04-24T11:54:55.258Z</time></trkpt><trkpt lat="55.72493683936843" lon="52.38213605296316"><ele>109.0</ele><time>2026-04-24T11:54:56.31Z</time></trkpt><trkpt lat="55.72506237067236" lon="52.382146061629975"><ele>109.0</ele><time>2026-04-24T11:54:58.31Z</time></trkpt><trkpt lat="55.725143714231244" lon="52.38201625695065"><ele>109.0</ele><time>2026-04-24T11:55:01.989Z</time></trkpt><trkpt lat="55.725154481533394" lon="52.38215890056316"><ele>109.00000000000001</ele><time>2026-04-24T11:55:17.001Z</time></trkpt><trkpt lat="55.72511345131842" lon="52.382325093459066"><ele>109.0</ele><time>2026-04-24T11:55:20.001Z</time></trkpt><trkpt lat="55.72507023946781" lon="52.38241222225833"><ele>109.0</ele><time>2026-04-24T11:55:22Z</time></trkpt><trkpt lat="55.725003840864474" lon="52.38247679493927"><ele>109.0</ele><time>2026-04-24T11:55:26Z</time></trkpt><trkpt lat="55.72491503254974" lon="52.38232079217004"><ele>109.00000000000001</ele><time>2026-04-24T11:55:29Z</time></trkpt><trkpt lat="55.72487821100923" lon="52.38220819022082"><ele>109.0</ele><time>2026-04-24T11:55:32Z</time></trkpt><trkpt lat="55.724812042915964" lon="52.38209500427796"><ele>109.00000000000001</ele><time>2026-04-24T11:55:35Z</time></trkpt><trkpt lat="55.72475248469267" lon="52.382001930635084"><ele>109.0</ele><time>2026-04-24T11:55:38Z</time></trkpt><trkpt lat="55.72471373930394" lon="52.38191177636389"><ele>109.0</ele><time>2026-04-24T11:55:40Z</time></trkpt><trkpt lat="55.72466278695769" lon="52.381801131924014"><ele>109.0</ele><time>2026-04-24T11:55:43Z</time></trkpt><trkpt lat="55.724606966901526" lon="52.38168277363827"><ele>109.00000000000001</ele><time>2026-04-24T11:55:46Z</time></trkpt><trkpt lat="55.72455333120593" lon="52.38157622488351"><ele>109.0</ele><time>2026-04-24T11:55:50Z</time></trkpt><trkpt lat="55.7244887250799" lon="52.38146904105479"><ele>109.00000000000001</ele><time>2026-04-24T11:55:53Z</time></trkpt><trkpt lat="55.724440013937084" lon="52.381375047398436"><ele>109.0</ele><time>2026-04-24T11:55:56Z</time></trkpt><trkpt lat="55.72436836024229" lon="52.381247384405654"><ele>109.0</ele><time>2026-04-24T11:55:58Z</time></trkpt><trkpt lat="55.7243135076995" lon="52.3811580228225"><ele>109.0</ele><time>2026-04-24T11:56:00Z</time></trkpt><trkpt lat="55.724265263128" lon="52.381085754639514"><ele>109.00000000000001</ele><time>2026-04-24T11:56:02Z</time></trkpt><trkpt lat="55.72420838934715" lon="52.38095758732602"><ele>109.0</ele><time>2026-04-24T11:56:05Z</time></trkpt><trkpt lat="55.72414796077248" lon="52.380842076349225"><ele>108.66666666666667</ele><time>2026-04-24T11:56:08Z</time></trkpt><trkpt lat="55.72407933025723" lon="52.38075877808721"><ele>108.33333333333334</ele><time>2026-04-24T11:56:11Z</time></trkpt><trkpt lat="55.72401145535406" lon="52.380724963899006"><ele>108.0</ele><time>2026-04-24T11:56:14Z</time></trkpt><trkpt lat="55.72393839712825" lon="52.3808250330231"><ele>107.66666666666666</ele><time>2026-04-24T11:56:17Z</time></trkpt><trkpt lat="55.72387151338899" lon="52.38092488617591"><ele>107.33333333333333</ele><time>2026-04-24T11:56:20Z</time></trkpt><trkpt lat="55.723809466470634" lon="52.38102327974423"><ele>107.0</ele><time>2026-04-24T11:56:23Z</time></trkpt><trkpt lat="55.723764451650744" lon="52.381101512319724"><ele>106.99999999999999</ele><time>2026-04-24T11:56:24.999Z</time></trkpt><trkpt lat="55.72370150223347" lon="52.38105349691053"><ele>107.0</ele><time>2026-04-24T11:56:26.999Z</time></trkpt><trkpt lat="55.72365875626158" lon="52.38096084396152"><ele>107.0</ele><time>2026-04-24T11:56:28.999Z</time></trkpt><trkpt lat="55.72359987651845" lon="52.380840939459546"><ele>107.0</ele><time>2026-04-24T11:56:31.999Z</time></trkpt><trkpt lat="55.72353391905509" lon="52.38073573351144"><ele>106.99999999999999</ele><time>2026-04-24T11:56:34.999Z</time></trkpt><trkpt lat="55.72349723322994" lon="52.38061561488306"><ele>107.0</ele><time>2026-04-24T11:56:37.999Z</time></trkpt><trkpt lat="55.723397525963485" lon="52.380594589879735"><ele>106.49999999999999</ele><time>2026-04-24T11:56:40.999Z</time></trkpt><trkpt lat="55.723324376686364" lon="52.380535097041516"><ele>106.0</ele><time>2026-04-24T11:56:42.999Z</time></trkpt><trkpt lat="55.723258802632806" lon="52.38047883905715"><ele>105.5</ele><time>2026-04-24T11:56:44.999Z</time></trkpt><trkpt lat="55.723191771585796" lon="52.38044747371868"><ele>105.0</ele><time>2026-04-24T11:56:46.999Z</time></trkpt><trkpt lat="55.72313272087348" lon="52.38033872161979"><ele>104.49999999999999</ele><time>2026-04-24T11:56:49.999Z</time></trkpt><trkpt lat="55.72316769339976" lon="52.380439617503995"><ele>104.0</ele><time>2026-04-24T11:57:25.999Z</time></trkpt><trkpt lat="55.72315663813152" lon="52.38057289244339"><ele>103.83333333333333</ele><time>2026-04-24T11:57:29.999Z</time></trkpt><trkpt lat="55.72310580259104" lon="52.38063974704225"><ele>103.66666666666666</ele><time>2026-04-24T11:57:35.999Z</time></trkpt><trkpt lat="55.72306138798201" lon="52.380769398216565"><ele>103.5</ele><time>2026-04-24T11:58:02.999Z</time></trkpt><trkpt lat="55.722996155153155" lon="52.380865641496456"><ele>103.33333333333334</ele><time>2026-04-24T11:58:05.999Z</time></trkpt><trkpt lat="55.722930865169516" lon="52.380986869167266"><ele>103.16666666666667</ele><time>2026-04-24T11:58:08.999Z</time></trkpt><trkpt lat="55.7228828440818" lon="52.38106062290097"><ele>103.0</ele><time>2026-04-24T11:58:10.999Z</time></trkpt><trkpt lat="55.72281784837825" lon="52.38115542460891"><ele>103.00000000000001</ele><time>2026-04-24T11:58:13.999Z</time></trkpt><trkpt lat="55.72275708157624" lon="52.381251040724905"><ele>103.0</ele><time>2026-04-24T11:58:16.999Z</time></trkpt><trkpt lat="55.722687184468484" lon="52.38130058358972"><ele>103.0</ele><time>2026-04-24T11:58:19.999Z</time></trkpt><trkpt lat="55.722619710627605" lon="52.38137361726631"><ele>103.0</ele><time>2026-04-24T11:58:24.999Z</time></trkpt><trkpt lat="55.722576929550485" lon="52.38146685233615"><ele>103.00000000000001</ele><time>2026-04-24T11:58:28.999Z</time></trkpt><trkpt lat="55.72259747062822" lon="52.38159990650901"><ele>103.0</ele><time>2026-04-24T11:58:35.998Z</time></trkpt><trkpt lat="55.722563014314346" lon="52.381724550718346"><ele>102.33333333333334</ele><time>2026-04-24T11:58:40.998Z</time></trkpt><trkpt lat="55.72250702351114" lon="52.38165016525183"><ele>101.66666666666667</ele><time>2026-04-24T11:58:43.998Z</time></trkpt><trkpt lat="55.72254065235771" lon="52.38175025679677"><ele>101.0</ele><time>2026-04-24T12:00:10.999Z</time></trkpt><trkpt lat="55.72248261497556" lon="52.381869717482566"><ele>100.33333333333334</ele><time>2026-04-24T12:00:14.999Z</time></trkpt><trkpt lat="55.7224216218394" lon="52.38196559244604"><ele>99.66666666666667</ele><time>2026-04-24T12:00:17.999Z</time></trkpt><trkpt lat="55.72234524961634" lon="52.38201394064651"><ele>99.0</ele><time>2026-04-24T12:00:20.999Z</time></trkpt><trkpt lat="55.72228379698762" lon="52.38206319757669"><ele>99.0</ele><time>2026-04-24T12:00:24.999Z</time></trkpt><trkpt lat="55.72227396489166" lon="52.3821798404247"><ele>99.0</ele><time>2026-04-24T12:00:26.999Z</time></trkpt><trkpt lat="55.722222052812334" lon="52.382248404034506"><ele>99.0</ele><time>2026-04-24T12:00:28.999Z</time></trkpt><trkpt lat="55.72217791082853" lon="52.38233669138048"><ele>99.0</ele><time>2026-04-24T12:00:30.999Z</time></trkpt><trkpt lat="55.722129730034005" lon="52.382419260978644"><ele>99.0</ele><time>2026-04-24T12:00:32.999Z</time></trkpt><trkpt lat="55.722078872858354" lon="52.382492607125705"><ele>99.0</ele><time>2026-04-24T12:00:34.999Z</time></trkpt><trkpt lat="55.72203390227537" lon="52.38257972096024"><ele>99.0</ele><time>2026-04-24T12:00:36.999Z</time></trkpt><trkpt lat="55.72198357942647" lon="52.38265466319173"><ele>99.16666666666667</ele><time>2026-04-24T12:00:38.999Z</time></trkpt><trkpt lat="55.72193557571329" lon="52.382736350230644"><ele>99.33333333333334</ele><time>2026-04-24T12:00:40.999Z</time></trkpt><trkpt lat="55.72186299558703" lon="52.38284750758698"><ele>99.5</ele><time>2026-04-24T12:00:43.999Z</time></trkpt><trkpt lat="55.721798420059535" lon="52.382959115557604"><ele>99.66666666666667</ele><time>2026-04-24T12:00:46.999Z</time></trkpt><trkpt lat="55.721749075283945" lon="52.383040101575446"><ele>99.83333333333334</ele><time>2026-04-24T12:00:48.999Z</time></trkpt><trkpt lat="55.72168533059896" lon="52.3831480119569"><ele>100.0</ele><time>2026-04-24T12:00:51.999Z</time></trkpt><trkpt lat="55.72163821966759" lon="52.38323260225745"><ele>99.57142857142858</ele><time>2026-04-24T12:00:53.998Z</time></trkpt><trkpt lat="55.7215851282628" lon="52.383321181493905"><ele>99.14285714285714</ele><time>2026-04-24T12:00:55.998Z</time></trkpt><trkpt lat="55.721523609225464" lon="52.38340758290422"><ele>98.71428571428572</ele><time>2026-04-24T12:00:57.998Z</time></trkpt><trkpt lat="55.72147064369091" lon="52.38350168189258"><ele>98.28571428571429</ele><time>2026-04-24T12:00:59.998Z</time></trkpt><trkpt lat="55.721418320027645" lon="52.38359776578497"><ele>97.85714285714286</ele><time>2026-04-24T12:01:01.998Z</time></trkpt><trkpt lat="55.72137421429009" lon="52.38367795117689"><ele>97.42857142857143</ele><time>2026-04-24T12:01:03.998Z</time></trkpt><trkpt lat="55.72132363177096" lon="52.38376019283616"><ele>97.0</ele><time>2026-04-24T12:01:05.998Z</time></trkpt><trkpt lat="55.72126822194061" lon="52.38385353647407"><ele>97.00000000000001</ele><time>2026-04-24T12:01:07.998Z</time></trkpt><trkpt lat="55.7212172548344" lon="52.383944823647404"><ele>97.0</ele><time>2026-04-24T12:01:09.998Z</time></trkpt><trkpt lat="55.72116271006914" lon="52.38405484873888"><ele>97.0</ele><time>2026-04-24T12:01:11.998Z</time></trkpt><trkpt lat="55.72110168815011" lon="52.38415202920149"><ele>97.0</ele><time>2026-04-24T12:01:13.998Z</time></trkpt><trkpt lat="55.721045717018924" lon="52.38425499561317"><ele>97.00000000000001</ele><time>2026-04-24T12:01:15.998Z</time></trkpt><trkpt lat="55.72098572380644" lon="52.38435520706716"><ele>97.0</ele><time>2026-04-24T12:01:18Z</time></trkpt><trkpt lat="55.72093134484682" lon="52.38445511914406"><ele>96.42857142857143</ele><time>2026-04-24T12:01:20Z</time></trkpt><trkpt lat="55.720878175854494" lon="52.38454472551158"><ele>95.85714285714286</ele><time>2026-04-24T12:01:22Z</time></trkpt><trkpt lat="55.72082059211856" lon="52.38464092510071"><ele>95.28571428571429</ele><time>2026-04-24T12:01:24Z</time></trkpt><trkpt lat="55.72076391892595" lon="52.38473897877424"><ele>94.71428571428572</ele><time>2026-04-24T12:01:26Z</time></trkpt><trkpt lat="55.720713804081946" lon="52.38482562561461"><ele>94.14285714285714</ele><time>2026-04-24T12:01:28Z</time></trkpt><trkpt lat="55.72066180305532" lon="52.384904267142055"><ele>93.57142857142858</ele><time>2026-04-24T12:01:30Z</time></trkpt><trkpt lat="55.72060916273942" lon="52.3849981846394"><ele>93.0</ele><time>2026-04-24T12:01:32Z</time></trkpt><trkpt lat="55.72055770923037" lon="52.385090574530864"><ele>93.00000000000001</ele><time>2026-04-24T12:01:34Z</time></trkpt><trkpt lat="55.72050796228998" lon="52.385172499125574"><ele>93.0</ele><time>2026-04-24T12:01:36Z</time></trkpt><trkpt lat="55.72046319120953" lon="52.38526110845709"><ele>93.0</ele><time>2026-04-24T12:01:38Z</time></trkpt><trkpt lat="55.72041357091109" lon="52.385352842975685"><ele>93.0</ele><time>2026-04-24T12:01:40Z</time></trkpt><trkpt lat="55.72035673363047" lon="52.385437691664016"><ele>93.0</ele><time>2026-04-24T12:01:42Z</time></trkpt><trkpt lat="55.720301973637035" lon="52.38552578043425"><ele>93.00000000000001</ele><time>2026-04-24T12:01:44Z</time></trkpt><trkpt lat="55.72024863636513" lon="52.385620310614854"><ele>93.0</ele><time>2026-04-24T12:01:46Z</time></trkpt><trkpt lat="55.72019055458022" lon="52.38572246748125"><ele>92.16666666666667</ele><time>2026-04-24T12:01:48Z</time></trkpt><trkpt lat="55.72014295078418" lon="52.38582257443978"><ele>91.33333333333333</ele><time>2026-04-24T12:01:50Z</time></trkpt><trkpt lat="55.720058293754384" lon="52.38595918099296"><ele>90.5</ele><time>2026-04-24T12:01:52.999Z</time></trkpt><trkpt lat="55.720005342919286" lon="52.38604535575058"><ele>89.66666666666666</ele><time>2026-04-24T12:01:54.999Z</time></trkpt><trkpt lat="55.719956196964255" lon="52.38612871652328"><ele>88.83333333333333</ele><time>2026-04-24T12:01:56.999Z</time></trkpt><trkpt lat="55.71990946966383" lon="52.38620417783454"><ele>88.0</ele><time>2026-04-24T12:01:58.999Z</time></trkpt><trkpt lat="55.71984137442068" lon="52.38631336781363"><ele>88.0</ele><time>2026-04-24T12:02:01.999Z</time></trkpt><trkpt lat="55.71979882860348" lon="52.386401240960126"><ele>88.0</ele><time>2026-04-24T12:02:03.999Z</time></trkpt><trkpt lat="55.71973364346653" lon="52.38650968020993"><ele>88.0</ele><time>2026-04-24T12:02:06.999Z</time></trkpt><trkpt lat="55.71966800047862" lon="52.38662299792832"><ele>88.0</ele><time>2026-04-24T12:02:09.999Z</time></trkpt><trkpt lat="55.719621491546164" lon="52.38670879174004"><ele>88.0</ele><time>2026-04-24T12:02:11.999Z</time></trkpt><trkpt lat="55.71956810751887" lon="52.386794142664584"><ele>88.0</ele><time>2026-04-24T12:02:13.999Z</time></trkpt><trkpt lat="55.71952064302842" lon="52.38687840180788"><ele>88.0</ele><time>2026-04-24T12:02:15.999Z</time></trkpt><trkpt lat="55.71946316121386" lon="52.38696833916519"><ele>88.0</ele><time>2026-04-24T12:02:17.999Z</time></trkpt><trkpt lat="55.719418495256136" lon="52.38705463448732"><ele>88.0</ele><time>2026-04-24T12:02:19.999Z</time></trkpt><trkpt lat="55.71934955951654" lon="52.38716431571824"><ele>88.0</ele><time>2026-04-24T12:02:22.999Z</time></trkpt><trkpt lat="55.71931369746582" lon="52.38727393269151"><ele>88.0</ele><time>2026-04-24T12:02:25.999Z</time></trkpt><trkpt lat="55.719242147386396" lon="52.387355358252066"><ele>88.0</ele><time>2026-04-24T12:02:28.999Z</time></trkpt><trkpt lat="55.719176479043846" lon="52.38745743512204"><ele>87.5</ele><time>2026-04-24T12:02:31.999Z</time></trkpt><trkpt lat="55.71911531833191" lon="52.38756960304728"><ele>87.0</ele><time>2026-04-24T12:02:34.999Z</time></trkpt><trkpt lat="55.719049536350944" lon="52.387676875470255"><ele>86.5</ele><time>2026-04-24T12:02:37.999Z</time></trkpt><trkpt lat="55.718987544014716" lon="52.38778962359257"><ele>86.0</ele><time>2026-04-24T12:02:40.999Z</time></trkpt><trkpt lat="55.71893396019864" lon="52.387890946016014"><ele>85.5</ele><time>2026-04-24T12:02:43.999Z</time></trkpt><trkpt lat="55.718885588846774" lon="52.3879807461472"><ele>85.0</ele><time>2026-04-24T12:02:45.999Z</time></trkpt><trkpt lat="55.71882797783508" lon="52.38807443450957"><ele>85.0</ele><time>2026-04-24T12:02:47.999Z</time></trkpt><trkpt lat="55.71877752874976" lon="52.388149759887895"><ele>85.0</ele><time>2026-04-24T12:02:49.999Z</time></trkpt><trkpt lat="55.718717870369375" lon="52.38825366437619"><ele>85.0</ele><time>2026-04-24T12:02:52.999Z</time></trkpt><trkpt lat="55.71867220993104" lon="52.388330944054324"><ele>85.0</ele><time>2026-04-24T12:02:54.999Z</time></trkpt><trkpt lat="55.71862529593218" lon="52.388413101379015"><ele>85.0</ele><time>2026-04-24T12:02:56.999Z</time></trkpt><trkpt lat="55.71858181490624" lon="52.3884966335027"><ele>85.0</ele><time>2026-04-24T12:02:58.999Z</time></trkpt><trkpt lat="55.718516032938524" lon="52.38859833678346"><ele>85.0</ele><time>2026-04-24T12:03:01.999Z</time></trkpt><trkpt lat="55.71847069942952" lon="52.38867957991052"><ele>85.16666666666666</ele><time>2026-04-24T12:03:03.999Z</time></trkpt><trkpt lat="55.71840215181226" lon="52.38878706828063"><ele>85.33333333333333</ele><time>2026-04-24T12:03:06.999Z</time></trkpt><trkpt lat="55.718336740853275" lon="52.38890499872937"><ele>85.5</ele><time>2026-04-24T12:03:09.998Z</time></trkpt><trkpt lat="55.71828888780182" lon="52.38898215703178"><ele>85.66666666666667</ele><time>2026-04-24T12:03:11.998Z</time></trkpt><trkpt lat="55.718240726418784" lon="52.38905734052364"><ele>85.83333333333334</ele><time>2026-04-24T12:03:13.998Z</time></trkpt><trkpt lat="55.71819325655381" lon="52.38914500846038"><ele>86.0</ele><time>2026-04-24T12:03:15.998Z</time></trkpt><trkpt lat="55.71813133074032" lon="52.3892499979302"><ele>86.0</ele><time>2026-04-24T12:03:18.998Z</time></trkpt><trkpt lat="55.71807196579956" lon="52.38935008107508"><ele>86.0</ele><time>2026-04-24T12:03:21.998Z</time></trkpt><trkpt lat="55.71801280904539" lon="52.38944543229434"><ele>86.0</ele><time>2026-04-24T12:03:25Z</time></trkpt><trkpt lat="55.7179536020081" lon="52.389543123818676"><ele>86.0</ele><time>2026-04-24T12:03:28Z</time></trkpt><trkpt lat="55.71789484996951" lon="52.389647974176555"><ele>86.0</ele><time>2026-04-24T12:03:31Z</time></trkpt><trkpt lat="55.717831244931496" lon="52.38974730664629"><ele>86.0</ele><time>2026-04-24T12:03:34Z</time></trkpt><trkpt lat="55.717771778346176" lon="52.38986360841671"><ele>85.33333333333334</ele><time>2026-04-24T12:03:37Z</time></trkpt><trkpt lat="55.717706191097484" lon="52.38998673162583"><ele>84.66666666666667</ele><time>2026-04-24T12:03:40Z</time></trkpt><trkpt lat="55.71765558035641" lon="52.39006363558558"><ele>84.0</ele><time>2026-04-24T12:03:42Z</time></trkpt><trkpt lat="55.71760576944949" lon="52.39013786073001"><ele>83.33333333333333</ele><time>2026-04-24T12:03:44Z</time></trkpt><trkpt lat="55.71753629680763" lon="52.390251186701306"><ele>82.66666666666666</ele><time>2026-04-24T12:03:47Z</time></trkpt><trkpt lat="55.7174908003641" lon="52.39033270319469"><ele>82.0</ele><time>2026-04-24T12:03:49Z</time></trkpt><trkpt lat="55.71744198271747" lon="52.390411477712775"><ele>81.99999999999999</ele><time>2026-04-24T12:03:51Z</time></trkpt><trkpt lat="55.71739633383151" lon="52.39049471482367"><ele>82.0</ele><time>2026-04-24T12:03:53Z</time></trkpt><trkpt lat="55.717346713094884" lon="52.39057382440177"><ele>82.0</ele><time>2026-04-24T12:03:55Z</time></trkpt><trkpt lat="55.7172984282903" lon="52.39065677971562"><ele>82.0</ele><time>2026-04-24T12:03:57Z</time></trkpt><trkpt lat="55.71724343664156" lon="52.390751750416115"><ele>82.0</ele><time>2026-04-24T12:03:59Z</time></trkpt><trkpt lat="55.71719411206907" lon="52.390840456341024"><ele>81.99999999999999</ele><time>2026-04-24T12:04:01Z</time></trkpt><trkpt lat="55.71712814187491" lon="52.39094301304433"><ele>82.0</ele><time>2026-04-24T12:04:04Z</time></trkpt><trkpt lat="55.71706152743317" lon="52.39106233551231"><ele>82.16666666666666</ele><time>2026-04-24T12:04:07Z</time></trkpt><trkpt lat="55.71702104785125" lon="52.391153884473304"><ele>82.33333333333333</ele><time>2026-04-24T12:04:09Z</time></trkpt><trkpt lat="55.716972688172284" lon="52.39122631653401"><ele>82.5</ele><time>2026-04-24T12:04:10.999Z</time></trkpt><trkpt lat="55.71691204117603" lon="52.39135746249232"><ele>82.66666666666667</ele><time>2026-04-24T12:04:13.999Z</time></trkpt><trkpt lat="55.71685674639359" lon="52.39142135716554"><ele>82.83333333333334</ele><time>2026-04-24T12:04:15.999Z</time></trkpt><trkpt lat="55.71680707597218" lon="52.391528004387986"><ele>83.0</ele><time>2026-04-24T12:04:17.999Z</time></trkpt><trkpt lat="55.716739589935024" lon="52.391629944536575"><ele>83.0</ele><time>2026-04-24T12:04:20.999Z</time></trkpt><trkpt lat="55.71667312627632" lon="52.3917357880947"><ele>83.0</ele><time>2026-04-24T12:04:23.999Z</time></trkpt><trkpt lat="55.71660925074177" lon="52.3918468866481"><ele>83.0</ele><time>2026-04-24T12:04:26.999Z</time></trkpt><trkpt lat="55.71656243041518" lon="52.39192299725892"><ele>83.0</ele><time>2026-04-24T12:04:28.999Z</time></trkpt><trkpt lat="55.71649711114596" lon="52.39203286762316"><ele>83.0</ele><time>2026-04-24T12:04:31.999Z</time></trkpt><trkpt lat="55.71645002799058" lon="52.392114138311605"><ele>83.0</ele><time>2026-04-24T12:04:33.999Z</time></trkpt><trkpt lat="55.71638553281137" lon="52.392226209849966"><ele>83.5</ele><time>2026-04-24T12:04:36.999Z</time></trkpt><trkpt lat="55.716333181802426" lon="52.39231667563091"><ele>84.0</ele><time>2026-04-24T12:04:39.999Z</time></trkpt><trkpt lat="55.71627533608715" lon="52.39242027180724"><ele>84.5</ele><time>2026-04-24T12:04:42.999Z</time></trkpt><trkpt lat="55.71622024323143" lon="52.39254585185638"><ele>85.0</ele><time>2026-04-24T12:04:45.999Z</time></trkpt><trkpt lat="55.71617321126698" lon="52.392622720859094"><ele>85.5</ele><time>2026-04-24T12:04:47.999Z</time></trkpt><trkpt lat="55.7161211426129" lon="52.39273007389311"><ele>86.0</ele><time>2026-04-24T12:04:50.999Z</time></trkpt><trkpt lat="55.71607255489519" lon="52.39280910553786"><ele>85.33333333333334</ele><time>2026-04-24T12:04:52.999Z</time></trkpt><trkpt lat="55.71602584413254" lon="52.39289696684927"><ele>84.66666666666667</ele><time>2026-04-24T12:04:54.999Z</time></trkpt><trkpt lat="55.7159733315032" lon="52.39297076592744"><ele>84.0</ele><time>2026-04-24T12:04:56.999Z</time></trkpt><trkpt lat="55.71591376100584" lon="52.39308105383581"><ele>83.33333333333333</ele><time>2026-04-24T12:04:58.999Z</time></trkpt><trkpt lat="55.71586298259584" lon="52.393168126548034"><ele>82.66666666666666</ele><time>2026-04-24T12:05:00.999Z</time></trkpt><trkpt lat="55.71579827171544" lon="52.39329508431352"><ele>82.0</ele><time>2026-04-24T12:05:02.999Z</time></trkpt><trkpt lat="55.71574968855075" lon="52.393382404415824"><ele>81.99999999999999</ele><time>2026-04-24T12:05:04.999Z</time></trkpt><trkpt lat="55.71570052258678" lon="52.39347479032477"><ele>82.0</ele><time>2026-04-24T12:05:06.999Z</time></trkpt><trkpt lat="55.71563246450102" lon="52.393585295318914"><ele>82.0</ele><time>2026-04-24T12:05:09.999Z</time></trkpt><trkpt lat="55.71558559030659" lon="52.393674695476506"><ele>82.0</ele><time>2026-04-24T12:05:11.999Z</time></trkpt><trkpt lat="55.715534187646625" lon="52.39376494101759"><ele>82.0</ele><time>2026-04-24T12:05:13.999Z</time></trkpt><trkpt lat="55.71547730047085" lon="52.393855403301664"><ele>81.99999999999999</ele><time>2026-04-24T12:05:15.999Z</time></trkpt><trkpt lat="55.715426688871545" lon="52.39393134775414"><ele>82.0</ele><time>2026-04-24T12:05:17.999Z</time></trkpt><trkpt lat="55.715376633994055" lon="52.39401888203976"><ele>82.14285714285714</ele><time>2026-04-24T12:05:19.999Z</time></trkpt><trkpt lat="55.715310426281825" lon="52.394107660523865"><ele>82.28571428571428</ele><time>2026-04-24T12:05:22.999Z</time></trkpt><trkpt lat="55.71526254344623" lon="52.3941823363234"><ele>82.42857142857142</ele><time>2026-04-24T12:05:24.999Z</time></trkpt><trkpt lat="55.71521249111875" lon="52.394276580003066"><ele>82.57142857142857</ele><time>2026-04-24T12:05:26.999Z</time></trkpt><trkpt lat="55.71515372764759" lon="52.39439172509512"><ele>82.71428571428572</ele><time>2026-04-24T12:05:30Z</time></trkpt><trkpt lat="55.7151112720984" lon="52.39448043732508"><ele>82.85714285714285</ele><time>2026-04-24T12:05:32Z</time></trkpt><trkpt lat="55.715059150286976" lon="52.394572786031226"><ele>83.0</ele><time>2026-04-24T12:05:34Z</time></trkpt><trkpt lat="55.71500633060247" lon="52.394642402634446"><ele>82.5</ele><time>2026-04-24T12:05:36Z</time></trkpt><trkpt lat="55.71493683735982" lon="52.394755105169985"><ele>82.0</ele><time>2026-04-24T12:05:39Z</time></trkpt><trkpt lat="55.71486285734447" lon="52.394864756152685"><ele>81.5</ele><time>2026-04-24T12:05:42Z</time></trkpt><trkpt lat="55.71480633082718" lon="52.39494954350048"><ele>81.0</ele><time>2026-04-24T12:05:45Z</time></trkpt><trkpt lat="55.71476050670237" lon="52.39503630702924"><ele>80.5</ele><time>2026-04-24T12:05:47Z</time></trkpt><trkpt lat="55.71470875311793" lon="52.39511946205601"><ele>80.0</ele><time>2026-04-24T12:05:50Z</time></trkpt><trkpt lat="55.71464653877361" lon="52.39522293592371"><ele>80.0</ele><time>2026-04-24T12:05:53Z</time></trkpt><trkpt lat="55.714594827536025" lon="52.39534034046019"><ele>80.0</ele><time>2026-04-24T12:05:56Z</time></trkpt><trkpt lat="55.714532744203616" lon="52.39543887560913"><ele>80.0</ele><time>2026-04-24T12:05:59Z</time></trkpt><trkpt lat="55.71446561501639" lon="52.39553871975453"><ele>80.0</ele><time>2026-04-24T12:06:02Z</time></trkpt><trkpt lat="55.714419760922326" lon="52.39563907947123"><ele>80.0</ele><time>2026-04-24T12:06:04Z</time></trkpt><trkpt lat="55.71435165180349" lon="52.39575794222962"><ele>80.0</ele><time>2026-04-24T12:06:07Z</time></trkpt><trkpt lat="55.71429237087126" lon="52.39585656595126"><ele>80.16666666666667</ele><time>2026-04-24T12:06:10Z</time></trkpt><trkpt lat="55.71422890476329" lon="52.39594121510688"><ele>80.33333333333334</ele><time>2026-04-24T12:06:13Z</time></trkpt><trkpt lat="55.714170941124245" lon="52.396035730581715"><ele>80.5</ele><time>2026-04-24T12:06:16Z</time></trkpt><trkpt lat="55.71417525201754" lon="52.39616915119339"><ele>80.66666666666667</ele><time>2026-04-24T12:06:20Z</time></trkpt><trkpt lat="55.71423289180103" lon="52.39627984166892"><ele>80.83333333333333</ele><time>2026-04-24T12:06:23.999Z</time></trkpt><trkpt lat="55.714287229854946" lon="52.3963641365854"><ele>81.0</ele><time>2026-04-24T12:06:37.999Z</time></trkpt><trkpt lat="55.71433899295038" lon="52.39643476780871"><ele>81.16666666666667</ele><time>2026-04-24T12:06:43.999Z</time></trkpt><trkpt lat="55.714369586262485" lon="52.39654857547067"><ele>81.33333333333333</ele><time>2026-04-24T12:06:46.999Z</time></trkpt><trkpt lat="55.71442036756942" lon="52.396615362867074"><ele>81.5</ele><time>2026-04-24T12:06:48.999Z</time></trkpt><trkpt lat="55.7144787637631" lon="52.39672688107618"><ele>81.66666666666666</ele><time>2026-04-24T12:06:51.999Z</time></trkpt><trkpt lat="55.714537056354956" lon="52.39683104931697"><ele>81.83333333333333</ele><time>2026-04-24T12:06:54.999Z</time></trkpt><trkpt lat="55.71459796405309" lon="52.396949574873425"><ele>82.0</ele><time>2026-04-24T12:06:57.999Z</time></trkpt><trkpt lat="55.71465117457957" lon="52.39705841064591"><ele>82.0</ele><time>2026-04-24T12:07:00.999Z</time></trkpt><trkpt lat="55.71472240915186" lon="52.39715218071767"><ele>82.0</ele><time>2026-04-24T12:07:03.999Z</time></trkpt><trkpt lat="55.71476839418887" lon="52.39727015060063"><ele>82.0</ele><time>2026-04-24T12:07:06.999Z</time></trkpt><trkpt lat="55.714819242308174" lon="52.39738083042732"><ele>82.0</ele><time>2026-04-24T12:07:09.999Z</time></trkpt><trkpt lat="55.71488661447461" lon="52.39734087665487"><ele>82.0</ele><time>2026-04-24T12:07:14.999Z</time></trkpt><trkpt lat="55.714952289984" lon="52.39736947215957"><ele>82.0</ele><time>2026-04-24T12:07:18.999Z</time></trkpt><trkpt lat="55.714995623826326" lon="52.39745578247683"><ele>82.33333333333333</ele><time>2026-04-24T12:07:20.999Z</time></trkpt><trkpt lat="55.71505318795613" lon="52.39754283689022"><ele>82.66666666666666</ele><time>2026-04-24T12:07:23.999Z</time></trkpt><trkpt lat="55.71510666302687" lon="52.39763997513326"><ele>83.0</ele><time>2026-04-24T12:07:26.999Z</time></trkpt><trkpt lat="55.71516965839672" lon="52.39775460633797"><ele>83.33333333333333</ele><time>2026-04-24T12:07:29.999Z</time></trkpt><trkpt lat="55.71522680582586" lon="52.39784132789241"><ele>83.66666666666667</ele><time>2026-04-24T12:07:32.999Z</time></trkpt><trkpt lat="55.71528971586978" lon="52.39791080377583"><ele>84.0</ele><time>2026-04-24T12:07:36Z</time></trkpt><trkpt lat="55.71533885623269" lon="52.397990035361"><ele>84.14285714285714</ele><time>2026-04-24T12:07:39Z</time></trkpt><trkpt lat="55.71538536756632" lon="52.39808329488589"><ele>84.28571428571428</ele><time>2026-04-24T12:07:42Z</time></trkpt><trkpt lat="55.71544183064579" lon="52.39816905624171"><ele>84.42857142857143</ele><time>2026-04-24T12:07:45Z</time></trkpt><trkpt lat="55.71547560039499" lon="52.3983003031324"><ele>84.57142857142857</ele><time>2026-04-24T12:07:48Z</time></trkpt><trkpt lat="55.715525890455346" lon="52.39841003095318"><ele>84.71428571428571</ele><time>2026-04-24T12:07:51Z</time></trkpt><trkpt lat="55.71557841560913" lon="52.398510504094304"><ele>84.85714285714286</ele><time>2026-04-24T12:07:54Z</time></trkpt><trkpt lat="55.71562874292337" lon="52.398586205996914"><ele>85.0</ele><time>2026-04-24T12:07:57Z</time></trkpt><trkpt lat="55.7156755870527" lon="52.398674255513264"><ele>85.0</ele><time>2026-04-24T12:08:00Z</time></trkpt><trkpt lat="55.71572517290023" lon="52.39875542065474"><ele>85.0</ele><time>2026-04-24T12:08:03Z</time></trkpt><trkpt lat="55.71577459862824" lon="52.398867872748625"><ele>85.0</ele><time>2026-04-24T12:08:07Z</time></trkpt><trkpt lat="55.71582394178003" lon="52.39898642582565"><ele>85.0</ele><time>2026-04-24T12:08:11Z</time></trkpt><trkpt lat="55.71588144775405" lon="52.39909848947513"><ele>85.0</ele><time>2026-04-24T12:08:14Z</time></trkpt><trkpt lat="55.71594053514518" lon="52.39922565080539"><ele>85.0</ele><time>2026-04-24T12:08:17Z</time></trkpt><trkpt lat="55.71598760430216" lon="52.399315675054545"><ele>85.0</ele><time>2026-04-24T12:08:20Z</time></trkpt><trkpt lat="55.71603786329928" lon="52.399411329512894"><ele>85.0</ele><time>2026-04-24T12:08:23Z</time></trkpt><trkpt lat="55.716097027788756" lon="52.39950243010245"><ele>85.0</ele><time>2026-04-24T12:08:26Z</time></trkpt><trkpt lat="55.7161396554467" lon="52.399624167118546"><ele>85.0</ele><time>2026-04-24T12:08:29Z</time></trkpt><trkpt lat="55.71619538038016" lon="52.39976292225101"><ele>85.0</ele><time>2026-04-24T12:08:31Z</time></trkpt><trkpt lat="55.71625972434835" lon="52.399878182788036"><ele>85.0</ele><time>2026-04-24T12:08:34Z</time></trkpt><trkpt lat="55.71630714394351" lon="52.39995822543206"><ele>85.28571428571429</ele><time>2026-04-24T12:08:36Z</time></trkpt><trkpt lat="55.716373519363614" lon="52.400050081868045"><ele>85.57142857142857</ele><time>2026-04-24T12:08:38.999Z</time></trkpt><trkpt lat="55.71643849525733" lon="52.40005643178671"><ele>85.85714285714286</ele><time>2026-04-24T12:08:40.999Z</time></trkpt><trkpt lat="55.71647536607842" lon="52.40014959606835"><ele>86.14285714285714</ele><time>2026-04-24T12:08:42.999Z</time></trkpt><trkpt lat="55.71653854008492" lon="52.400268415905224"><ele>86.42857142857143</ele><time>2026-04-24T12:08:45.999Z</time></trkpt><trkpt lat="55.716581337871936" lon="52.400352015911196"><ele>86.71428571428571</ele><time>2026-04-24T12:08:47.999Z</time></trkpt><trkpt lat="55.71663031764991" lon="52.40043239133216"><ele>87.0</ele><time>2026-04-24T12:08:49.999Z</time></trkpt><trkpt lat="55.716695802104276" lon="52.40051256966718"><ele>87.16666666666667</ele><time>2026-04-24T12:08:52.999Z</time></trkpt><trkpt lat="55.71672876728512" lon="52.40060834325248"><ele>87.33333333333333</ele><time>2026-04-24T12:08:54.999Z</time></trkpt><trkpt lat="55.7167776849571" lon="52.40072785324408"><ele>87.5</ele><time>2026-04-24T12:08:57.999Z</time></trkpt><trkpt lat="55.716839920095765" lon="52.40082257073506"><ele>87.66666666666666</ele><time>2026-04-24T12:09:00.999Z</time></trkpt><trkpt lat="55.716881681988674" lon="52.400923448319055"><ele>87.83333333333333</ele><time>2026-04-24T12:09:03.999Z</time></trkpt><trkpt lat="55.7169463889774" lon="52.40102424828045"><ele>88.0</ele><time>2026-04-24T12:09:06.999Z</time></trkpt><trkpt lat="55.7169943848355" lon="52.40112504412676"><ele>88.16666666666666</ele><time>2026-04-24T12:09:10.999Z</time></trkpt><trkpt lat="55.7170360065472" lon="52.401214059580155"><ele>88.33333333333333</ele><time>2026-04-24T12:09:12.999Z</time></trkpt><trkpt lat="55.71709338889773" lon="52.401315534705375"><ele>88.5</ele><time>2026-04-24T12:09:15.999Z</time></trkpt><trkpt lat="55.71715247134496" lon="52.40141471934918"><ele>88.66666666666667</ele><time>2026-04-24T12:09:18.999Z</time></trkpt><trkpt lat="55.71721831225494" lon="52.40153142588616"><ele>88.83333333333334</ele><time>2026-04-24T12:09:21.999Z</time></trkpt><trkpt lat="55.71727901952576" lon="52.40162995590704"><ele>89.0</ele><time>2026-04-24T12:09:24.999Z</time></trkpt><trkpt lat="55.71733167277034" lon="52.40174197712093"><ele>89.0</ele><time>2026-04-24T12:09:27.999Z</time></trkpt><trkpt lat="55.7173769136539" lon="52.40182001785923"><ele>89.0</ele><time>2026-04-24T12:09:29.999Z</time></trkpt><trkpt lat="55.717438572586765" lon="52.4019444945322"><ele>89.0</ele><time>2026-04-24T12:09:32.999Z</time></trkpt><trkpt lat="55.71749611122254" lon="52.40205433239184"><ele>89.0</ele><time>2026-04-24T12:09:35.999Z</time></trkpt><trkpt lat="55.717556161324225" lon="52.402154025051175"><ele>89.0</ele><time>2026-04-24T12:09:38.999Z</time></trkpt><trkpt lat="55.717616517992106" lon="52.40226106712879"><ele>89.0</ele><time>2026-04-24T12:09:42Z</time></trkpt><trkpt lat="55.71767866253345" lon="52.40236192825104"><ele>89.33333333333334</ele><time>2026-04-24T12:09:45Z</time></trkpt><trkpt lat="55.71773538642621" lon="52.40247309717953"><ele>89.66666666666667</ele><time>2026-04-24T12:09:48Z</time></trkpt><trkpt lat="55.71778794705777" lon="52.4025858817669"><ele>90.0</ele><time>2026-04-24T12:09:51Z</time></trkpt><trkpt lat="55.71785134255809" lon="52.40269981554594"><ele>90.33333333333333</ele><time>2026-04-24T12:09:54Z</time></trkpt><trkpt lat="55.717905399923495" lon="52.40279838844928"><ele>90.66666666666666</ele><time>2026-04-24T12:09:57Z</time></trkpt><trkpt lat="55.717955084585725" lon="52.40288032809053"><ele>91.0</ele><time>2026-04-24T12:09:59Z</time></trkpt><trkpt lat="55.71800785406195" lon="52.40299818871169"><ele>91.0</ele><time>2026-04-24T12:10:02Z</time></trkpt><trkpt lat="55.71805271943256" lon="52.40307752484914"><ele>91.0</ele><time>2026-04-24T12:10:04Z</time></trkpt><trkpt lat="55.718114537371825" lon="52.40318509121784"><ele>91.0</ele><time>2026-04-24T12:10:07Z</time></trkpt><trkpt lat="55.71816840584875" lon="52.4032557382013"><ele>91.0</ele><time>2026-04-24T12:10:10Z</time></trkpt><trkpt lat="55.718220821860676" lon="52.40337475623686"><ele>91.0</ele><time>2026-04-24T12:10:13Z</time></trkpt><trkpt lat="55.71826629151637" lon="52.40346042222147"><ele>91.0</ele><time>2026-04-24T12:10:15Z</time></trkpt><trkpt lat="55.71832876691302" lon="52.403569874489236"><ele>91.0</ele><time>2026-04-24T12:10:18Z</time></trkpt><trkpt lat="55.71838751256181" lon="52.403676903547975"><ele>91.0</ele><time>2026-04-24T12:10:21Z</time></trkpt><trkpt lat="55.71843827957264" lon="52.40379061074948"><ele>91.0</ele><time>2026-04-24T12:10:25Z</time></trkpt><trkpt lat="55.71850122576624" lon="52.40389055193672"><ele>91.0</ele><time>2026-04-24T12:10:27Z</time></trkpt><trkpt lat="55.71855361601606" lon="52.40398728157866"><ele>91.0</ele><time>2026-04-24T12:10:30Z</time></trkpt><trkpt lat="55.7186089377673" lon="52.404075890593894"><ele>91.0</ele><time>2026-04-24T12:10:32Z</time></trkpt><trkpt lat="55.71865398719183" lon="52.40415587686802"><ele>91.33333333333333</ele><time>2026-04-24T12:10:34Z</time></trkpt><trkpt lat="55.7186988006593" lon="52.404234467014945"><ele>91.66666666666666</ele><time>2026-04-24T12:10:36Z</time></trkpt><trkpt lat="55.71876097260552" lon="52.404357674813134"><ele>92.0</ele><time>2026-04-24T12:10:39Z</time></trkpt><trkpt lat="55.71882740900494" lon="52.404472965979004"><ele>92.33333333333333</ele><time>2026-04-24T12:10:42Z</time></trkpt><trkpt lat="55.718894103278934" lon="52.40459745517438"><ele>92.66666666666667</ele><time>2026-04-24T12:10:45Z</time></trkpt><trkpt lat="55.71894116469136" lon="52.40467242228671"><ele>93.0</ele><time>2026-04-24T12:10:47Z</time></trkpt><trkpt lat="55.71898204832022" lon="52.40476091066725"><ele>93.14285714285715</ele><time>2026-04-24T12:10:49Z</time></trkpt><trkpt lat="55.71903202604137" lon="52.40484498766481"><ele>93.28571428571429</ele><time>2026-04-24T12:10:51Z</time></trkpt><trkpt lat="55.719075449978796" lon="52.404926270232906"><ele>93.42857142857143</ele><time>2026-04-24T12:10:53Z</time></trkpt><trkpt lat="55.71912446284921" lon="52.40499799811694"><ele>93.57142857142858</ele><time>2026-04-24T12:10:55Z</time></trkpt><trkpt lat="55.71916690237339" lon="52.405082366282066"><ele>93.71428571428571</ele><time>2026-04-24T12:10:57Z</time></trkpt><trkpt lat="55.71921434931137" lon="52.405168792788636"><ele>93.85714285714286</ele><time>2026-04-24T12:10:58.999Z</time></trkpt><trkpt lat="55.719257249768276" lon="52.405255137929714"><ele>94.0</ele><time>2026-04-24T12:11:00.999Z</time></trkpt><trkpt lat="55.71930198942139" lon="52.405338914230356"><ele>94.0</ele><time>2026-04-24T12:11:02.999Z</time></trkpt><trkpt lat="55.71934895654308" lon="52.40541667203475"><ele>94.0</ele><time>2026-04-24T12:11:04.999Z</time></trkpt><trkpt lat="55.719415820927765" lon="52.40553689634428"><ele>94.0</ele><time>2026-04-24T12:11:07.999Z</time></trkpt><trkpt lat="55.719478158206904" lon="52.40566814491334"><ele>94.0</ele><time>2026-04-24T12:11:10.999Z</time></trkpt><trkpt lat="55.71952952531007" lon="52.40574672944641"><ele>94.0</ele><time>2026-04-24T12:11:12.999Z</time></trkpt><trkpt lat="55.71959313641744" lon="52.405866341242586"><ele>94.0</ele><time>2026-04-24T12:11:15.999Z</time></trkpt><trkpt lat="55.71965574654441" lon="52.405985361043136"><ele>93.71428571428571</ele><time>2026-04-24T12:11:18.999Z</time></trkpt><trkpt lat="55.71971692810394" lon="52.40609203816551"><ele>93.42857142857142</ele><time>2026-04-24T12:11:21.999Z</time></trkpt><trkpt lat="55.71977823338589" lon="52.40619702538536"><ele>93.14285714285714</ele><time>2026-04-24T12:11:24.999Z</time></trkpt><trkpt lat="55.71982504435796" lon="52.406281227532"><ele>92.85714285714286</ele><time>2026-04-24T12:11:27.999Z</time></trkpt><trkpt lat="55.71987555011203" lon="52.406351964931034"><ele>92.57142857142857</ele><time>2026-04-24T12:11:31.999Z</time></trkpt><trkpt lat="55.71992712116336" lon="52.40645237035655"><ele>92.28571428571429</ele><time>2026-04-24T12:11:35.999Z</time></trkpt><trkpt lat="55.71996712077621" lon="52.40653957287044"><ele>92.0</ele><time>2026-04-24T12:11:39.999Z</time></trkpt><trkpt lat="55.720020076057644" lon="52.406636222468556"><ele>92.0</ele><time>2026-04-24T12:11:44.999Z</time></trkpt><trkpt lat="55.720060092878036" lon="52.40673514540169"><ele>92.0</ele><time>2026-04-24T12:11:49Z</time></trkpt><trkpt lat="55.72011641999934" lon="52.4068252135581"><ele>92.0</ele><time>2026-04-24T12:11:54Z</time></trkpt><trkpt lat="55.72017537364024" lon="52.406917671744445"><ele>92.0</ele><time>2026-04-24T12:12:00Z</time></trkpt><trkpt lat="55.72023327861479" lon="52.40699684542796"><ele>92.0</ele><time>2026-04-24T12:12:04Z</time></trkpt><trkpt lat="55.7202915104348" lon="52.40710038762682"><ele>92.0</ele><time>2026-04-24T12:12:08Z</time></trkpt><trkpt lat="55.72035905054798" lon="52.4072258654323"><ele>92.57142857142857</ele><time>2026-04-24T12:12:10Z</time></trkpt><trkpt lat="55.720416837549365" lon="52.40733585852964"><ele>93.14285714285714</ele><time>2026-04-24T12:12:14Z</time></trkpt><trkpt lat="55.72047585808716" lon="52.40741964247894"><ele>93.71428571428571</ele><time>2026-04-24T12:12:17Z</time></trkpt><trkpt lat="55.72052682929397" lon="52.40751388887332"><ele>94.28571428571428</ele><time>2026-04-24T12:12:20Z</time></trkpt><trkpt lat="55.720542905779574" lon="52.40762717385377"><ele>94.85714285714286</ele><time>2026-04-24T12:12:23Z</time></trkpt><trkpt lat="55.720583964018694" lon="52.40772044615524"><ele>95.42857142857142</ele><time>2026-04-24T12:12:26Z</time></trkpt><trkpt lat="55.720630369780004" lon="52.407825761849466"><ele>96.0</ele><time>2026-04-24T12:12:29Z</time></trkpt><trkpt lat="55.72068811928773" lon="52.407944425603844"><ele>96.0</ele><time>2026-04-24T12:12:31Z</time></trkpt><trkpt lat="55.720732164141765" lon="52.408078260792074"><ele>96.0</ele><time>2026-04-24T12:12:34Z</time></trkpt><trkpt lat="55.72077122904969" lon="52.40819683966755"><ele>96.0</ele><time>2026-04-24T12:12:37Z</time></trkpt><trkpt lat="55.72081231676995" lon="52.40831064273477"><ele>96.0</ele><time>2026-04-24T12:12:40Z</time></trkpt><trkpt lat="55.72085550012586" lon="52.40843441407721"><ele>96.0</ele><time>2026-04-24T12:12:43Z</time></trkpt><trkpt lat="55.72090819839794" lon="52.40855114104124"><ele>96.0</ele><time>2026-04-24T12:12:46Z</time></trkpt><trkpt lat="55.72096517281876" lon="52.40865514612108"><ele>95.99999999999999</ele><time>2026-04-24T12:12:49Z</time></trkpt><trkpt lat="55.72102787655378" lon="52.40874131460129"><ele>96.0</ele><time>2026-04-24T12:12:52Z</time></trkpt><trkpt lat="55.721081627801475" lon="52.408821293055055"><ele>96.0</ele><time>2026-04-24T12:12:55Z</time></trkpt><trkpt lat="55.72111618253409" lon="52.40891657065129"><ele>96.0</ele><time>2026-04-24T12:12:58Z</time></trkpt><trkpt lat="55.72116174722601" lon="52.4090224276357"><ele>96.0</ele><time>2026-04-24T12:13:01Z</time></trkpt><trkpt lat="55.72118544866541" lon="52.40914428490579"><ele>95.99999999999999</ele><time>2026-04-24T12:13:04Z</time></trkpt><trkpt lat="55.721228528940166" lon="52.40924780308954"><ele>96.0</ele><time>2026-04-24T12:13:07Z</time></trkpt><trkpt lat="55.721290928514534" lon="52.409365450895706"><ele>96.16666666666667</ele><time>2026-04-24T12:13:10Z</time></trkpt><trkpt lat="55.72134813546672" lon="52.40948677189"><ele>96.33333333333334</ele><time>2026-04-24T12:13:13Z</time></trkpt><trkpt lat="55.721413346041786" lon="52.40960898296176"><ele>96.5</ele><time>2026-04-24T12:13:15.999Z</time></trkpt><trkpt lat="55.72145758008546" lon="52.409692003962355"><ele>96.66666666666667</ele><time>2026-04-24T12:13:17.999Z</time></trkpt><trkpt lat="55.721522439233574" lon="52.409814509116124"><ele>96.83333333333334</ele><time>2026-04-24T12:13:20.998Z</time></trkpt><trkpt lat="55.72157180884448" lon="52.40989156671452"><ele>97.0</ele><time>2026-04-24T12:13:22.998Z</time></trkpt><trkpt lat="55.721618029619364" lon="52.4099771266644"><ele>97.0</ele><time>2026-04-24T12:13:24.998Z</time></trkpt><trkpt lat="55.72166184218913" lon="52.41006564760894"><ele>97.0</ele><time>2026-04-24T12:13:26.998Z</time></trkpt><trkpt lat="55.721711632379865" lon="52.41015147582868"><ele>97.0</ele><time>2026-04-24T12:13:28.998Z</time></trkpt><trkpt lat="55.72175351196741" lon="52.41023574925844"><ele>97.0</ele><time>2026-04-24T12:13:30.998Z</time></trkpt><trkpt lat="55.72180094022938" lon="52.41032445078438"><ele>97.0</ele><time>2026-04-24T12:13:32.998Z</time></trkpt><trkpt lat="55.72184501739202" lon="52.41040792865293"><ele>97.0</ele><time>2026-04-24T12:13:34.998Z</time></trkpt><trkpt lat="55.721888930462086" lon="52.410492863504636"><ele>97.0</ele><time>2026-04-24T12:13:36.998Z</time></trkpt><trkpt lat="55.721942201089206" lon="52.41055896231786"><ele>97.0</ele><time>2026-04-24T12:13:38.998Z</time></trkpt><trkpt lat="55.72199230587661" lon="52.41063543441283"><ele>97.0</ele><time>2026-04-24T12:13:40.998Z</time></trkpt><trkpt lat="55.72204512652025" lon="52.410715890511604"><ele>97.0</ele><time>2026-04-24T12:13:42.998Z</time></trkpt><trkpt lat="55.7220930990547" lon="52.410791857479836"><ele>97.0</ele><time>2026-04-24T12:13:44.998Z</time></trkpt><trkpt lat="55.72214557998629" lon="52.4108676235247"><ele>97.0</ele><time>2026-04-24T12:13:46.998Z</time></trkpt><trkpt lat="55.72219206679274" lon="52.410948666702836"><ele>97.0</ele><time>2026-04-24T12:13:48.998Z</time></trkpt><trkpt lat="55.722246127392516" lon="52.41102661194874"><ele>97.0</ele><time>2026-04-24T12:13:50.998Z</time></trkpt><trkpt lat="55.72229823286634" lon="52.411115708248715"><ele>97.00000000000001</ele><time>2026-04-24T12:13:52.998Z</time></trkpt><trkpt lat="55.7223466467494" lon="52.41119356235848"><ele>97.0</ele><time>2026-04-24T12:13:55Z</time></trkpt><trkpt lat="55.7223990468941" lon="52.411263682166876"><ele>97.0</ele><time>2026-04-24T12:13:57Z</time></trkpt><trkpt lat="55.722456723470614" lon="52.41138818830052"><ele>97.0</ele><time>2026-04-24T12:14:00Z</time></trkpt><trkpt lat="55.72251893035799" lon="52.41150533866762"><ele>97.00000000000001</ele><time>2026-04-24T12:14:03Z</time></trkpt><trkpt lat="55.722546377492314" lon="52.41160601083401"><ele>97.0</ele><time>2026-04-24T12:14:05Z</time></trkpt><trkpt lat="55.72260102515055" lon="52.41172992622996"><ele>97.00000000000001</ele><time>2026-04-24T12:14:08Z</time></trkpt><trkpt lat="55.72264519299662" lon="52.4118159925719"><ele>97.0</ele><time>2026-04-24T12:14:10Z</time></trkpt><trkpt lat="55.72268745882264" lon="52.411906155481255"><ele>97.0</ele><time>2026-04-24T12:14:12Z</time></trkpt><trkpt lat="55.72274384895639" lon="52.41202345269995"><ele>97.0</ele><time>2026-04-24T12:14:14.999Z</time></trkpt><trkpt lat="55.722797281713326" lon="52.41212337735499"><ele>97.00000000000001</ele><time>2026-04-24T12:14:17.999Z</time></trkpt><trkpt lat="55.722854533151235" lon="52.412216169439965"><ele>97.0</ele><time>2026-04-24T12:14:20.999Z</time></trkpt><trkpt lat="55.722909511603184" lon="52.41231925419347"><ele>97.28571428571428</ele><time>2026-04-24T12:14:23.999Z</time></trkpt><trkpt lat="55.72297925931538" lon="52.41240978197828"><ele>97.57142857142858</ele><time>2026-04-24T12:14:26.999Z</time></trkpt><trkpt lat="55.723041625924594" lon="52.412532968969366"><ele>97.85714285714286</ele><time>2026-04-24T12:14:28.999Z</time></trkpt><trkpt lat="55.72308159511575" lon="52.4126226482893"><ele>98.14285714285714</ele><time>2026-04-24T12:14:31.999Z</time></trkpt><trkpt lat="55.723125348626816" lon="52.41270306841833"><ele>98.42857142857142</ele><time>2026-04-24T12:14:33.999Z</time></trkpt><trkpt lat="55.72317073456284" lon="52.41279153775751"><ele>98.71428571428572</ele><time>2026-04-24T12:14:35.999Z</time></trkpt><trkpt lat="55.723219827266696" lon="52.412891852309905"><ele>99.0</ele><time>2026-04-24T12:14:37.999Z</time></trkpt><trkpt lat="55.72325873302265" lon="52.41298393791996"><ele>99.16666666666667</ele><time>2026-04-24T12:14:39.999Z</time></trkpt><trkpt lat="55.723332517253716" lon="52.41310292563604"><ele>99.33333333333334</ele><time>2026-04-24T12:14:42.999Z</time></trkpt><trkpt lat="55.72341185619371" lon="52.41323921229159"><ele>99.5</ele><time>2026-04-24T12:14:45.999Z</time></trkpt><trkpt lat="55.723473420406805" lon="52.41335528111106"><ele>99.66666666666667</ele><time>2026-04-24T12:14:47.999Z</time></trkpt><trkpt lat="55.72352685929003" lon="52.41344542787639"><ele>99.83333333333334</ele><time>2026-04-24T12:14:49.999Z</time></trkpt><trkpt lat="55.72357554589529" lon="52.41353492323971"><ele>100.0</ele><time>2026-04-24T12:14:51.999Z</time></trkpt><trkpt lat="55.7236305779206" lon="52.41361521967927"><ele>100.00000000000001</ele><time>2026-04-24T12:14:53.999Z</time></trkpt><trkpt lat="55.723694939661726" lon="52.41374036571054"><ele>100.0</ele><time>2026-04-24T12:14:56.999Z</time></trkpt><trkpt lat="55.72375148318783" lon="52.4138442852514"><ele>100.0</ele><time>2026-04-24T12:14:59.999Z</time></trkpt><trkpt lat="55.72381117404634" lon="52.41395294308495"><ele>100.0</ele><time>2026-04-24T12:15:02.999Z</time></trkpt><trkpt lat="55.72387277573114" lon="52.41404496378233"><ele>100.00000000000001</ele><time>2026-04-24T12:15:05.999Z</time></trkpt><trkpt lat="55.72392554742272" lon="52.414151875234296"><ele>100.0</ele><time>2026-04-24T12:15:08.999Z</time></trkpt><trkpt lat="55.72396575779054" lon="52.4142750712864"><ele>100.00000000000001</ele><time>2026-04-24T12:15:12.999Z</time></trkpt><trkpt lat="55.72401667551643" lon="52.4143631255416"><ele>100.0</ele><time>2026-04-24T12:15:15.999Z</time></trkpt><trkpt lat="55.72406315665173" lon="52.41446131249134"><ele>100.0</ele><time>2026-04-24T12:15:18.999Z</time></trkpt><trkpt lat="55.72411635694173" lon="52.41457619666674"><ele>100.0</ele><time>2026-04-24T12:15:21.999Z</time></trkpt><trkpt lat="55.7241558848722" lon="52.41466895682503"><ele>100.0</ele><time>2026-04-24T12:15:24.999Z</time></trkpt><trkpt lat="55.724213444538606" lon="52.41475051929099"><ele>100.00000000000001</ele><time>2026-04-24T12:15:26.999Z</time></trkpt><trkpt lat="55.72426571323364" lon="52.41483454987882"><ele>100.0</ele><time>2026-04-24T12:15:28.999Z</time></trkpt><trkpt lat="55.724316118366794" lon="52.41491562440524"><ele>100.00000000000001</ele><time>2026-04-24T12:15:31.998Z</time></trkpt><trkpt lat="55.72437157229836" lon="52.415008294900794"><ele>100.0</ele><time>2026-04-24T12:15:34.998Z</time></trkpt><trkpt lat="55.724425847426424" lon="52.41510135494629"><ele>100.0</ele><time>2026-04-24T12:15:37.998Z</time></trkpt><trkpt lat="55.72447770539415" lon="52.415201310545946"><ele>100.0</ele><time>2026-04-24T12:15:40.998Z</time></trkpt><trkpt lat="55.72453941006533" lon="52.415315612805244"><ele>100.00000000000001</ele><time>2026-04-24T12:15:42.998Z</time></trkpt><trkpt lat="55.72460397947127" lon="52.41541908947815"><ele>100.0</ele><time>2026-04-24T12:15:45.998Z</time></trkpt><trkpt lat="55.724668343634654" lon="52.41554734804594"><ele>100.28571428571429</ele><time>2026-04-24T12:15:48.998Z</time></trkpt><trkpt lat="55.72471237394581" lon="52.41562976302487"><ele>100.57142857142857</ele><time>2026-04-24T12:15:50.998Z</time></trkpt><trkpt lat="55.72475735771547" lon="52.41571181609341"><ele>100.85714285714286</ele><time>2026-04-24T12:15:52.998Z</time></trkpt><trkpt lat="55.72482409370627" lon="52.41582717304088"><ele>101.14285714285714</ele><time>2026-04-24T12:15:55.998Z</time></trkpt><trkpt lat="55.72486659216402" lon="52.41591362260526"><ele>101.42857142857143</ele><time>2026-04-24T12:15:57.998Z</time></trkpt><trkpt lat="55.72491573960427" lon="52.41598764216752"><ele>101.71428571428572</ele><time>2026-04-24T12:16:00Z</time></trkpt><trkpt lat="55.724959495672714" lon="52.41606801817165"><ele>102.0</ele><time>2026-04-24T12:16:02Z</time></trkpt><trkpt lat="55.72499873533988" lon="52.41616149852378"><ele>102.0</ele><time>2026-04-24T12:16:04Z</time></trkpt><trkpt lat="55.72504489997624" lon="52.41625106635556"><ele>102.0</ele><time>2026-04-24T12:16:06Z</time></trkpt><trkpt lat="55.725099386467434" lon="52.416348739630145"><ele>102.0</ele><time>2026-04-24T12:16:09Z</time></trkpt><trkpt lat="55.725158390646776" lon="52.41642961159323"><ele>102.0</ele><time>2026-04-24T12:16:12Z</time></trkpt><trkpt lat="55.725192479793414" lon="52.416555111998676"><ele>102.0</ele><time>2026-04-24T12:16:15Z</time></trkpt><trkpt lat="55.72527302731318" lon="52.41665538297279"><ele>102.0</ele><time>2026-04-24T12:16:19Z</time></trkpt><trkpt lat="55.72532888668854" lon="52.41674540121623"><ele>102.16666666666667</ele><time>2026-04-24T12:16:23Z</time></trkpt><trkpt lat="55.72537417898397" lon="52.41682410380499"><ele>102.33333333333334</ele><time>2026-04-24T12:16:27Z</time></trkpt><trkpt lat="55.72541949210795" lon="52.41691658429823"><ele>102.5</ele><time>2026-04-24T12:16:29.999Z</time></trkpt><trkpt lat="55.725479086707786" lon="52.416998978987515"><ele>102.66666666666667</ele><time>2026-04-24T12:16:33.999Z</time></trkpt><trkpt lat="55.72555101363506" lon="52.416951783156954"><ele>102.83333333333334</ele><time>2026-04-24T12:16:37.999Z</time></trkpt><trkpt lat="55.72562562554037" lon="52.41688496688406"><ele>103.0</ele><time>2026-04-24T12:16:40.999Z</time></trkpt><trkpt lat="55.7256942198885" lon="52.41680536410199"><ele>103.00000000000001</ele><time>2026-04-24T12:16:43.999Z</time></trkpt><trkpt lat="55.7257638837084" lon="52.416733661218764"><ele>103.0</ele><time>2026-04-24T12:16:46.999Z</time></trkpt><trkpt lat="55.725831299971865" lon="52.41663367424172"><ele>103.0</ele><time>2026-04-24T12:16:49.999Z</time></trkpt><trkpt lat="55.72588224732668" lon="52.41654017788772"><ele>103.0</ele><time>2026-04-24T12:16:52.999Z</time></trkpt><trkpt lat="55.72593468484976" lon="52.41643889971492"><ele>103.00000000000001</ele><time>2026-04-24T12:16:55.999Z</time></trkpt><trkpt lat="55.725989297247004" lon="52.416337590068636"><ele>103.0</ele><time>2026-04-24T12:16:57.999Z</time></trkpt><trkpt lat="55.7260496340968" lon="52.416233990898874"><ele>103.16666666666667</ele><time>2026-04-24T12:17:00.999Z</time></trkpt><trkpt lat="55.7261029308871" lon="52.41613905965989"><ele>103.33333333333334</ele><time>2026-04-24T12:17:03.999Z</time></trkpt><trkpt lat="55.72615562557559" lon="52.41605185356939"><ele>103.5</ele><time>2026-04-24T12:17:06.999Z</time></trkpt><trkpt lat="55.7262071662832" lon="52.41595813022002"><ele>103.66666666666666</ele><time>2026-04-24T12:17:09.999Z</time></trkpt><trkpt lat="55.726270044250796" lon="52.41588892877125"><ele>103.83333333333333</ele><time>2026-04-24T12:17:12.999Z</time></trkpt><trkpt lat="55.72632355044761" lon="52.41576623121722"><ele>104.0</ele><time>2026-04-24T12:17:15.999Z</time></trkpt><trkpt lat="55.7263692420206" lon="52.415669104154894"><ele>103.99999999999999</ele><time>2026-04-24T12:17:18.999Z</time></trkpt><trkpt lat="55.72642398430673" lon="52.415572988319774"><ele>104.0</ele><time>2026-04-24T12:17:21.999Z</time></trkpt><trkpt lat="55.7264845841375" lon="52.415482828191045"><ele>104.0</ele><time>2026-04-24T12:17:24.999Z</time></trkpt><trkpt lat="55.72653832421364" lon="52.415371129689724"><ele>104.0</ele><time>2026-04-24T12:17:27.999Z</time></trkpt><trkpt lat="55.72659453471797" lon="52.415269796904255"><ele>103.99999999999999</ele><time>2026-04-24T12:17:30.999Z</time></trkpt><trkpt lat="55.72665523101205" lon="52.41517036412366"><ele>104.0</ele><time>2026-04-24T12:17:33.999Z</time></trkpt><trkpt lat="55.72671604564932" lon="52.41506643376341"><ele>104.16666666666666</ele><time>2026-04-24T12:17:36.999Z</time></trkpt><trkpt lat="55.72677196394217" lon="52.414972003263244"><ele>104.33333333333333</ele><time>2026-04-24T12:17:39.999Z</time></trkpt><trkpt lat="55.72682688677067" lon="52.4148777328084"><ele>104.5</ele><time>2026-04-24T12:17:42.999Z</time></trkpt><trkpt lat="55.72689052297444" lon="52.41477003979924"><ele>104.66666666666666</ele><time>2026-04-24T12:17:45.998Z</time></trkpt><trkpt lat="55.72694488003964" lon="52.41467208718065"><ele>104.83333333333333</ele><time>2026-04-24T12:17:48.998Z</time></trkpt><trkpt lat="55.72700004523424" lon="52.414565281079945"><ele>105.0</ele><time>2026-04-24T12:17:51.998Z</time></trkpt><trkpt lat="55.72705876534204" lon="52.41446763541346"><ele>105.0</ele><time>2026-04-24T12:17:54.998Z</time></trkpt><trkpt lat="55.727109349137855" lon="52.41438736042915"><ele>105.0</ele><time>2026-04-24T12:17:57.998Z</time></trkpt><trkpt lat="55.727160213029386" lon="52.414310952083184"><ele>105.0</ele><time>2026-04-24T12:18:00.998Z</time></trkpt><trkpt lat="55.72721830353253" lon="52.41421081719245"><ele>105.0</ele><time>2026-04-24T12:18:03.998Z</time></trkpt><trkpt lat="55.72727090592132" lon="52.414129009718216"><ele>105.0</ele><time>2026-04-24T12:18:07Z</time></trkpt><trkpt lat="55.72730434529016" lon="52.41400123056619"><ele>105.0</ele><time>2026-04-24T12:18:12Z</time></trkpt><trkpt lat="55.72737337207192" lon="52.41394362461522"><ele>105.0</ele><time>2026-04-24T12:18:16Z</time></trkpt><trkpt lat="55.727448306220644" lon="52.4139519152048"><ele>105.0</ele><time>2026-04-24T12:18:20Z</time></trkpt><trkpt lat="55.727496797139196" lon="52.41387078305774"><ele>105.0</ele><time>2026-04-24T12:18:23Z</time></trkpt><trkpt lat="55.72754586599234" lon="52.413782963921456"><ele>105.0</ele><time>2026-04-24T12:18:26Z</time></trkpt><trkpt lat="55.72759839597222" lon="52.41369313598577"><ele>105.0</ele><time>2026-04-24T12:18:28Z</time></trkpt><trkpt lat="55.72764587208268" lon="52.4135933373989"><ele>105.0</ele><time>2026-04-24T12:18:32Z</time></trkpt><trkpt lat="55.72770333791372" lon="52.41364896672458"><ele>105.0</ele><time>2026-04-24T12:18:45.999Z</time></trkpt><trkpt lat="55.727757406530486" lon="52.413743847461184"><ele>105.0</ele><time>2026-04-24T12:18:49.999Z</time></trkpt><trkpt lat="55.727810778548516" lon="52.41381415122815"><ele>105.28571428571429</ele><time>2026-04-24T12:18:53.999Z</time></trkpt><trkpt lat="55.72785963917041" lon="52.413889585693966"><ele>105.57142857142857</ele><time>2026-04-24T12:18:57.999Z</time></trkpt><trkpt lat="55.72790206457183" lon="52.41398743823933"><ele>105.85714285714286</ele><time>2026-04-24T12:19:01.999Z</time></trkpt><trkpt lat="55.72795133261857" lon="52.41406887585446"><ele>106.14285714285714</ele><time>2026-04-24T12:19:06.999Z</time></trkpt><trkpt lat="55.72802048795137" lon="52.4140979904116"><ele>106.42857142857143</ele><time>2026-04-24T12:19:14.999Z</time></trkpt><trkpt lat="55.72809519505529" lon="52.41408302459207"><ele>106.71428571428572</ele><time>2026-04-24T12:19:20.999Z</time></trkpt><trkpt lat="55.72814093675002" lon="52.41420278440698"><ele>107.0</ele><time>2026-04-24T12:19:23.999Z</time></trkpt><trkpt lat="55.72819182042725" lon="52.41430521601465"><ele>106.99999999999999</ele><time>2026-04-24T12:19:26.999Z</time></trkpt><trkpt lat="55.72824015050594" lon="52.41439749074378"><ele>107.0</ele><time>2026-04-24T12:19:29.999Z</time></trkpt><trkpt lat="55.72828093958911" lon="52.41450790977836"><ele>107.0</ele><time>2026-04-24T12:19:32.999Z</time></trkpt><trkpt lat="55.72834023467357" lon="52.41460271994049"><ele>107.0</ele><time>2026-04-24T12:19:35.999Z</time></trkpt><trkpt lat="55.72840599248286" lon="52.41471176510486"><ele>106.99999999999999</ele><time>2026-04-24T12:19:38.999Z</time></trkpt><trkpt lat="55.72845383204576" lon="52.41480397797634"><ele>107.0</ele><time>2026-04-24T12:19:40.999Z</time></trkpt><trkpt lat="55.7285154364209" lon="52.414899298859844"><ele>107.16666666666666</ele><time>2026-04-24T12:19:42.999Z</time></trkpt><trkpt lat="55.72857745235371" lon="52.41501179200576"><ele>107.33333333333333</ele><time>2026-04-24T12:19:45.999Z</time></trkpt><trkpt lat="55.72863839088039" lon="52.41512600686316"><ele>107.5</ele><time>2026-04-24T12:19:48.999Z</time></trkpt><trkpt lat="55.72870579412035" lon="52.415237216408215"><ele>107.66666666666666</ele><time>2026-04-24T12:19:51.999Z</time></trkpt><trkpt lat="55.728769032587365" lon="52.41535428247164"><ele>107.83333333333333</ele><time>2026-04-24T12:19:54.999Z</time></trkpt><trkpt lat="55.72883355194552" lon="52.41545962516212"><ele>108.0</ele><time>2026-04-24T12:19:57.999Z</time></trkpt><trkpt lat="55.72887816060128" lon="52.415545199488975"><ele>107.66666666666667</ele><time>2026-04-24T12:19:59.999Z</time></trkpt><trkpt lat="55.728921579404734" lon="52.41563016873482"><ele>107.33333333333334</ele><time>2026-04-24T12:20:01.999Z</time></trkpt><trkpt lat="55.72898818328722" lon="52.41575488055648"><ele>107.0</ele><time>2026-04-24T12:20:04.998Z</time></trkpt><trkpt lat="55.729046353508274" lon="52.41586763234946"><ele>106.66666666666667</ele><time>2026-04-24T12:20:07.998Z</time></trkpt><trkpt lat="55.72908788114097" lon="52.41595536971055"><ele>106.33333333333334</ele><time>2026-04-24T12:20:09.998Z</time></trkpt><trkpt lat="55.72913270056883" lon="52.41604191447142"><ele>106.0</ele><time>2026-04-24T12:20:12Z</time></trkpt><trkpt lat="55.72920295687512" lon="52.41615325273083"><ele>106.0</ele><time>2026-04-24T12:20:15Z</time></trkpt><trkpt lat="55.72924576657607" lon="52.41623710289926"><ele>106.0</ele><time>2026-04-24T12:20:17Z</time></trkpt><trkpt lat="55.72929106445844" lon="52.41631506783195"><ele>106.0</ele><time>2026-04-24T12:20:19Z</time></trkpt><trkpt lat="55.72935505616071" lon="52.41641777416807"><ele>106.0</ele><time>2026-04-24T12:20:22Z</time></trkpt><trkpt lat="55.729399207719965" lon="52.416515628112535"><ele>106.0</ele><time>2026-04-24T12:20:24Z</time></trkpt><trkpt lat="55.72945708249429" lon="52.41661671445605"><ele>106.0</ele><time>2026-04-24T12:20:27Z</time></trkpt><trkpt lat="55.72950811603667" lon="52.41669977240134"><ele>106.0</ele><time>2026-04-24T12:20:29Z</time></trkpt><trkpt lat="55.729571761000415" lon="52.41682028295042"><ele>106.16666666666667</ele><time>2026-04-24T12:20:32Z</time></trkpt><trkpt lat="55.7296317609863" lon="52.41692410242525"><ele>106.33333333333334</ele><time>2026-04-24T12:20:35Z</time></trkpt><trkpt lat="55.72969378852609" lon="52.41702096836502"><ele>106.5</ele><time>2026-04-24T12:20:38Z</time></trkpt><trkpt lat="55.72975384384925" lon="52.417098664659584"><ele>106.66666666666666</ele><time>2026-04-24T12:20:41Z</time></trkpt><trkpt lat="55.7298040626826" lon="52.41719761231517"><ele>106.83333333333333</ele><time>2026-04-24T12:20:44Z</time></trkpt><trkpt lat="55.729862085852744" lon="52.417309418525385"><ele>107.0</ele><time>2026-04-24T12:20:47Z</time></trkpt><trkpt lat="55.72992702781385" lon="52.417407037522246"><ele>107.00000000000001</ele><time>2026-04-24T12:20:50Z</time></trkpt><trkpt lat="55.729988763697115" lon="52.41746293918914"><ele>107.0</ele><time>2026-04-24T12:20:52Z</time></trkpt><trkpt lat="55.73005641379819" lon="52.417558029295165"><ele>107.0</ele><time>2026-04-24T12:20:55Z</time></trkpt><trkpt lat="55.73009683826805" lon="52.417657086354744"><ele>107.0</ele><time>2026-04-24T12:21:02.999Z</time></trkpt><trkpt lat="55.730152036148034" lon="52.41771849285737"><ele>107.0</ele><time>2026-04-24T12:21:04.999Z</time></trkpt><trkpt lat="55.73019472783688" lon="52.41781017615957"><ele>107.00000000000001</ele><time>2026-04-24T12:21:06.999Z</time></trkpt><trkpt lat="55.73024330459836" lon="52.41789342181023"><ele>107.0</ele><time>2026-04-24T12:21:08.999Z</time></trkpt><trkpt lat="55.7302895383775" lon="52.417975160027254"><ele>107.57142857142858</ele><time>2026-04-24T12:21:10.999Z</time></trkpt><trkpt lat="55.73035178903887" lon="52.418030368613195"><ele>108.14285714285714</ele><time>2026-04-24T12:21:12.999Z</time></trkpt><trkpt lat="55.73038703510197" lon="52.41813381741514"><ele>108.71428571428572</ele><time>2026-04-24T12:21:14.999Z</time></trkpt><trkpt lat="55.73043680904405" lon="52.41821471516797"><ele>109.28571428571429</ele><time>2026-04-24T12:21:17.999Z</time></trkpt><trkpt lat="55.730497487404" lon="52.41833411720637"><ele>109.85714285714286</ele><time>2026-04-24T12:21:19.999Z</time></trkpt><trkpt lat="55.73055849607723" lon="52.41838110725143"><ele>110.42857142857143</ele><time>2026-04-24T12:21:26.999Z</time></trkpt><trkpt lat="55.7306000543255" lon="52.41847032488635"><ele>111.0</ele><time>2026-04-24T12:21:29.999Z</time></trkpt><trkpt lat="55.730651605922326" lon="52.41857949188125"><ele>111.0</ele><time>2026-04-24T12:21:32.999Z</time></trkpt><trkpt lat="55.73068164909554" lon="52.41868758049305"><ele>111.0</ele><time>2026-04-24T12:21:37.999Z</time></trkpt><trkpt lat="55.73074218087578" lon="52.418740510306236"><ele>111.0</ele><time>2026-04-24T12:21:42.999Z</time></trkpt><trkpt lat="55.730804651204146" lon="52.418863629302614"><ele>111.0</ele><time>2026-04-24T12:21:45.999Z</time></trkpt><trkpt lat="55.730857409202684" lon="52.41893601267177"><ele>111.0</ele><time>2026-04-24T12:21:47.999Z</time></trkpt><trkpt lat="55.73090393310181" lon="52.41901389745025"><ele>111.0</ele><time>2026-04-24T12:21:49.999Z</time></trkpt><trkpt lat="55.730970294602756" lon="52.419140266898786"><ele>111.0</ele><time>2026-04-24T12:21:52.999Z</time></trkpt><trkpt lat="55.731015221365354" lon="52.41921958659489"><ele>111.0</ele><time>2026-04-24T12:21:54.999Z</time></trkpt><trkpt lat="55.73105146686558" lon="52.41931225080431"><ele>111.0</ele><time>2026-04-24T12:21:56.999Z</time></trkpt><trkpt lat="55.73109596629513" lon="52.41941147519112"><ele>111.0</ele><time>2026-04-24T12:21:58.999Z</time></trkpt><trkpt lat="55.73114178950578" lon="52.41949846533129"><ele>111.0</ele><time>2026-04-24T12:22:00.999Z</time></trkpt><trkpt lat="55.7312071382649" lon="52.4196161315926"><ele>111.0</ele><time>2026-04-24T12:22:03.999Z</time></trkpt><trkpt lat="55.73125940073042" lon="52.41974394030934"><ele>111.0</ele><time>2026-04-24T12:22:06.999Z</time></trkpt><trkpt lat="55.73131381119178" lon="52.41985773888643"><ele>111.0</ele><time>2026-04-24T12:22:09.999Z</time></trkpt><trkpt lat="55.73138348339648" lon="52.419969311118884"><ele>111.0</ele><time>2026-04-24T12:22:12.999Z</time></trkpt><trkpt lat="55.731425906522176" lon="52.42005205190468"><ele>111.0</ele><time>2026-04-24T12:22:14.999Z</time></trkpt><trkpt lat="55.731491004666765" lon="52.42018188025102"><ele>111.0</ele><time>2026-04-24T12:22:18Z</time></trkpt><trkpt lat="55.73153584307876" lon="52.420269030034014"><ele>111.0</ele><time>2026-04-24T12:22:20Z</time></trkpt><trkpt lat="55.7315794216332" lon="52.42035066339917"><ele>111.0</ele><time>2026-04-24T12:22:22Z</time></trkpt><trkpt lat="55.731622770363124" lon="52.42043197074872"><ele>111.0</ele><time>2026-04-24T12:22:24Z</time></trkpt><trkpt lat="55.73168783058145" lon="52.42054091915369"><ele>111.0</ele><time>2026-04-24T12:22:27Z</time></trkpt><trkpt lat="55.73174726103707" lon="52.42066068688445"><ele>111.0</ele><time>2026-04-24T12:22:30Z</time></trkpt><trkpt lat="55.731808724426266" lon="52.420759510700066"><ele>111.0</ele><time>2026-04-24T12:22:33Z</time></trkpt><trkpt lat="55.73185598767966" lon="52.42087102320826"><ele>111.0</ele><time>2026-04-24T12:22:36Z</time></trkpt><trkpt lat="55.731914270026785" lon="52.42099685228647"><ele>111.0</ele><time>2026-04-24T12:22:39Z</time></trkpt><trkpt lat="55.73195459437952" lon="52.42113130332296"><ele>111.0</ele><time>2026-04-24T12:22:42Z</time></trkpt><trkpt lat="55.73197521608344" lon="52.42123863440122"><ele>110.71428571428571</ele><time>2026-04-24T12:22:44Z</time></trkpt><trkpt lat="55.73201222147193" lon="52.421332649349495"><ele>110.42857142857143</ele><time>2026-04-24T12:22:47Z</time></trkpt><trkpt lat="55.732061034157056" lon="52.42146076522286"><ele>110.14285714285714</ele><time>2026-04-24T12:22:49Z</time></trkpt><trkpt lat="55.732128919225545" lon="52.42156322863623"><ele>109.85714285714286</ele><time>2026-04-24T12:22:52Z</time></trkpt><trkpt lat="55.73217121515908" lon="52.42164721752108"><ele>109.57142857142858</ele><time>2026-04-24T12:22:54Z</time></trkpt><trkpt lat="55.73222003812099" lon="52.42172457957543"><ele>109.28571428571429</ele><time>2026-04-24T12:22:56Z</time></trkpt><trkpt lat="55.73226422779399" lon="52.42182341893735"><ele>109.0</ele><time>2026-04-24T12:22:58Z</time></trkpt><trkpt lat="55.732316258145154" lon="52.421907050983314"><ele>109.00000000000001</ele><time>2026-04-24T12:23:00Z</time></trkpt><trkpt lat="55.73236442148598" lon="52.42199220667762"><ele>109.0</ele><time>2026-04-24T12:23:02Z</time></trkpt><trkpt lat="55.73241793741786" lon="52.4221165536999"><ele>109.0</ele><time>2026-04-24T12:23:05Z</time></trkpt><trkpt lat="55.73246513614656" lon="52.42221206240635"><ele>109.0</ele><time>2026-04-24T12:23:07Z</time></trkpt><trkpt lat="55.732516744670434" lon="52.422299207367644"><ele>109.00000000000001</ele><time>2026-04-24T12:23:09Z</time></trkpt><trkpt lat="55.73256518175618" lon="52.42237785182907"><ele>109.0</ele><time>2026-04-24T12:23:11Z</time></trkpt><trkpt lat="55.732628140439104" lon="52.42250452547043"><ele>109.0</ele><time>2026-04-24T12:23:13.999Z</time></trkpt><trkpt lat="55.7326770982921" lon="52.42259062451334"><ele>109.0</ele><time>2026-04-24T12:23:15.999Z</time></trkpt><trkpt lat="55.7327264954576" lon="52.42269265339165"><ele>109.0</ele><time>2026-04-24T12:23:17.999Z</time></trkpt><trkpt lat="55.732776829277554" lon="52.42277623301624"><ele>109.0</ele><time>2026-04-24T12:23:19.999Z</time></trkpt><trkpt lat="55.732840524359986" lon="52.42290773042381"><ele>109.0</ele><time>2026-04-24T12:23:22.999Z</time></trkpt><trkpt lat="55.73288497998128" lon="52.42299433083678"><ele>109.0</ele><time>2026-04-24T12:23:24.999Z</time></trkpt><trkpt lat="55.73293492440064" lon="52.423084382378"><ele>109.0</ele><time>2026-04-24T12:23:26.999Z</time></trkpt><trkpt lat="55.73298417956351" lon="52.42316593997741"><ele>109.16666666666667</ele><time>2026-04-24T12:23:28.999Z</time></trkpt><trkpt lat="55.733046718993" lon="52.42328778436904"><ele>109.33333333333334</ele><time>2026-04-24T12:23:31.999Z</time></trkpt><trkpt lat="55.73310979010593" lon="52.423403734894535"><ele>109.5</ele><time>2026-04-24T12:23:34.999Z</time></trkpt><trkpt lat="55.73317149773355" lon="52.42350859267428"><ele>109.66666666666666</ele><time>2026-04-24T12:23:37.999Z</time></trkpt><trkpt lat="55.73321113893924" lon="52.423613955820905"><ele>109.83333333333333</ele><time>2026-04-24T12:23:40.999Z</time></trkpt><trkpt lat="55.73327503456341" lon="52.42370567114038"><ele>110.0</ele><time>2026-04-24T12:23:43.999Z</time></trkpt><trkpt lat="55.733331479533945" lon="52.423794607287384"><ele>109.85714285714285</ele><time>2026-04-24T12:23:47.999Z</time></trkpt><trkpt lat="55.73338255378418" lon="52.42388272576341"><ele>109.71428571428571</ele><time>2026-04-24T12:23:50.999Z</time></trkpt><trkpt lat="55.73342965552162" lon="52.42397391024583"><ele>109.57142857142857</ele><time>2026-04-24T12:23:53.999Z</time></trkpt><trkpt lat="55.73347531982134" lon="52.42405622497075"><ele>109.42857142857142</ele><time>2026-04-24T12:23:56.999Z</time></trkpt><trkpt lat="55.733526736890674" lon="52.4241432294105"><ele>109.28571428571429</ele><time>2026-04-24T12:23:59.999Z</time></trkpt><trkpt lat="55.73358005536724" lon="52.424229235245505"><ele>109.14285714285714</ele><time>2026-04-24T12:24:02.999Z</time></trkpt><trkpt lat="55.733630888774876" lon="52.42433283112172"><ele>109.0</ele><time>2026-04-24T12:24:05.999Z</time></trkpt><trkpt lat="55.73367255723011" lon="52.42444609896649"><ele>109.33333333333334</ele><time>2026-04-24T12:24:08.999Z</time></trkpt><trkpt lat="55.7336722457569" lon="52.424575448463706"><ele>109.66666666666667</ele><time>2026-04-24T12:24:11.999Z</time></trkpt><trkpt lat="55.73368444435583" lon="52.42469629374999"><ele>110.0</ele><time>2026-04-24T12:24:15.999Z</time></trkpt><trkpt lat="55.733752598528945" lon="52.424783915867934"><ele>110.33333333333334</ele><time>2026-04-24T12:24:34Z</time></trkpt><trkpt lat="55.733810634381" lon="52.42489983864634"><ele>110.66666666666667</ele><time>2026-04-24T12:24:37Z</time></trkpt><trkpt lat="55.73386275743224" lon="52.42499432171602"><ele>111.0</ele><time>2026-04-24T12:24:40Z</time></trkpt><trkpt lat="55.73392139198407" lon="52.425098369190536"><ele>111.0</ele><time>2026-04-24T12:24:43Z</time></trkpt><trkpt lat="55.73397483710292" lon="52.425215093156325"><ele>111.0</ele><time>2026-04-24T12:24:46Z</time></trkpt><trkpt lat="55.73404481089522" lon="52.42528457866849"><ele>111.0</ele><time>2026-04-24T12:24:49Z</time></trkpt><trkpt lat="55.73411829193545" lon="52.42525570756818"><ele>111.0</ele><time>2026-04-24T12:24:52Z</time></trkpt><trkpt lat="55.734179478757945" lon="52.42521782613704"><ele>111.0</ele><time>2026-04-24T12:24:55Z</time></trkpt><trkpt lat="55.734230715938686" lon="52.425344243742515"><ele>111.0</ele><time>2026-04-24T12:24:58Z</time></trkpt><trkpt lat="55.73428799833619" lon="52.42544783760167"><ele>111.0</ele><time>2026-04-24T12:25:01Z</time></trkpt><trkpt lat="55.73435094831072" lon="52.425553407614224"><ele>111.0</ele><time>2026-04-24T12:25:04Z</time></trkpt><trkpt lat="55.734413903985285" lon="52.42566731184826"><ele>111.0</ele><time>2026-04-24T12:25:07Z</time></trkpt><trkpt lat="55.73445932877938" lon="52.4257499719723"><ele>111.0</ele><time>2026-04-24T12:25:09Z</time></trkpt><trkpt lat="55.73450640788994" lon="52.42583320444126"><ele>111.0</ele><time>2026-04-24T12:25:11Z</time></trkpt><trkpt lat="55.73454941397918" lon="52.42591558390199"><ele>111.0</ele><time>2026-04-24T12:25:13Z</time></trkpt><trkpt lat="55.734614102503635" lon="52.42603033236875"><ele>111.16666666666667</ele><time>2026-04-24T12:25:16Z</time></trkpt><trkpt lat="55.73467305164639" lon="52.42613839365416"><ele>111.33333333333334</ele><time>2026-04-24T12:25:19Z</time></trkpt><trkpt lat="55.73472849230425" lon="52.426251573001885"><ele>111.5</ele><time>2026-04-24T12:25:22Z</time></trkpt><trkpt lat="55.73477135669263" lon="52.42633540284249"><ele>111.66666666666667</ele><time>2026-04-24T12:25:24Z</time></trkpt><trkpt lat="55.734816018874184" lon="52.426421294769106"><ele>111.83333333333334</ele><time>2026-04-24T12:25:26Z</time></trkpt><trkpt lat="55.73486411843916" lon="52.426498559533506"><ele>112.0</ele><time>2026-04-24T12:25:28Z</time></trkpt><trkpt lat="55.73492258073946" lon="52.42662065315501"><ele>112.19999999999999</ele><time>2026-04-24T12:25:31Z</time></trkpt><trkpt lat="55.73498648744199" lon="52.426725540126824"><ele>112.39999999999999</ele><time>2026-04-24T12:25:33.999Z</time></trkpt><trkpt lat="55.735051973850155" lon="52.42684972035641"><ele>112.60000000000001</ele><time>2026-04-24T12:25:36.999Z</time></trkpt><trkpt lat="55.735114759825926" lon="52.4269716990591"><ele>112.80000000000001</ele><time>2026-04-24T12:25:39.999Z</time></trkpt><trkpt lat="55.73517870695262" lon="52.42708912720495"><ele>113.0</ele><time>2026-04-24T12:25:42.999Z</time></trkpt><trkpt lat="55.735234060700265" lon="52.42720495339291"><ele>112.99999999999999</ele><time>2026-04-24T12:25:45.999Z</time></trkpt><trkpt lat="55.735281965518375" lon="52.42732949644633"><ele>113.0</ele><time>2026-04-24T12:25:48.999Z</time></trkpt><trkpt lat="55.73531722956085" lon="52.42744842863521"><ele>113.0</ele><time>2026-04-24T12:25:51.999Z</time></trkpt><trkpt lat="55.735371312521565" lon="52.427576593769416"><ele>113.0</ele><time>2026-04-24T12:25:54.999Z</time></trkpt><trkpt lat="55.73541960465575" lon="52.42765419755996"><ele>112.99999999999999</ele><time>2026-04-24T12:25:56.999Z</time></trkpt><trkpt lat="55.735480801226664" lon="52.42777783507963"><ele>113.0</ele><time>2026-04-24T12:25:59.999Z</time></trkpt><trkpt lat="55.73552757482367" lon="52.42786551430965"><ele>112.66666666666666</ele><time>2026-04-24T12:26:01.999Z</time></trkpt><trkpt lat="55.73559199329787" lon="52.42798494215915"><ele>112.33333333333333</ele><time>2026-04-24T12:26:04.999Z</time></trkpt><trkpt lat="55.73565294099176" lon="52.428101441519495"><ele>112.0</ele><time>2026-04-24T12:26:07.999Z</time></trkpt><trkpt lat="55.73571792658811" lon="52.42822189899231"><ele>111.66666666666666</ele><time>2026-04-24T12:26:10.999Z</time></trkpt><trkpt lat="55.73576993912407" lon="52.42833913765094"><ele>111.33333333333333</ele><time>2026-04-24T12:26:13.999Z</time></trkpt><trkpt lat="55.73583110744385" lon="52.428451987486255"><ele>111.0</ele><time>2026-04-24T12:26:16.999Z</time></trkpt><trkpt lat="55.73589190949375" lon="52.42855358552299"><ele>111.0</ele><time>2026-04-24T12:26:19.999Z</time></trkpt><trkpt lat="55.73593878835253" lon="52.428636820444986"><ele>111.0</ele><time>2026-04-24T12:26:22.999Z</time></trkpt><trkpt lat="55.736016201644524" lon="52.42873620387292"><ele>111.0</ele><time>2026-04-24T12:27:23Z</time></trkpt><trkpt lat="55.73606842521741" lon="52.428825073136046"><ele>111.0</ele><time>2026-04-24T12:27:25Z</time></trkpt><trkpt lat="55.7361185250301" lon="52.428913397819585"><ele>111.0</ele><time>2026-04-24T12:27:28Z</time></trkpt><trkpt lat="55.73616913754116" lon="52.42901690221474"><ele>111.0</ele><time>2026-04-24T12:27:31Z</time></trkpt><trkpt lat="55.73622795575083" lon="52.4291197088565"><ele>111.16666666666667</ele><time>2026-04-24T12:27:34Z</time></trkpt><trkpt lat="55.73628928532332" lon="52.42922720730364"><ele>111.33333333333334</ele><time>2026-04-24T12:27:37Z</time></trkpt><trkpt lat="55.73634538863674" lon="52.42932956140149"><ele>111.5</ele><time>2026-04-24T12:27:40Z</time></trkpt><trkpt lat="55.73639046367563" lon="52.42941466303308"><ele>111.66666666666667</ele><time>2026-04-24T12:27:43Z</time></trkpt><trkpt lat="55.73643912630221" lon="52.42950567570484"><ele>111.83333333333334</ele><time>2026-04-24T12:27:44.999Z</time></trkpt><trkpt lat="55.73650291159901" lon="52.429605176493574"><ele>112.0</ele><time>2026-04-24T12:27:47.999Z</time></trkpt><trkpt lat="55.73656889932536" lon="52.42970135574539"><ele>112.00000000000001</ele><time>2026-04-24T12:27:50.999Z</time></trkpt><trkpt lat="55.73662779791129" lon="52.4298124894036"><ele>112.0</ele><time>2026-04-24T12:27:53.999Z</time></trkpt><trkpt lat="55.73669011536038" lon="52.42990961312962"><ele>112.0</ele><time>2026-04-24T12:27:56.999Z</time></trkpt><trkpt lat="55.73675402520075" lon="52.43001700024989"><ele>112.0</ele><time>2026-04-24T12:27:59.999Z</time></trkpt><trkpt lat="55.73680579068612" lon="52.430137616961304"><ele>112.00000000000001</ele><time>2026-04-24T12:28:02.999Z</time></trkpt><trkpt lat="55.736863871674736" lon="52.43024933038286"><ele>112.0</ele><time>2026-04-24T12:28:05.999Z</time></trkpt><trkpt lat="55.73692544678716" lon="52.43035201343944"><ele>112.50000000000001</ele><time>2026-04-24T12:28:08.999Z</time></trkpt><trkpt lat="55.73698960744541" lon="52.43046991359012"><ele>113.0</ele><time>2026-04-24T12:28:11.999Z</time></trkpt><trkpt lat="55.737049708353396" lon="52.43058591825132"><ele>113.5</ele><time>2026-04-24T12:28:14.999Z</time></trkpt><trkpt lat="55.73710780022922" lon="52.430691710493235"><ele>114.0</ele><time>2026-04-24T12:28:17.999Z</time></trkpt><trkpt lat="55.73715966837792" lon="52.43079548543989"><ele>114.50000000000001</ele><time>2026-04-24T12:28:20.999Z</time></trkpt><trkpt lat="55.737221334427595" lon="52.430889178275876"><ele>115.0</ele><time>2026-04-24T12:28:23.999Z</time></trkpt><trkpt lat="55.7372768334991" lon="52.43099490455438"><ele>115.00000000000001</ele><time>2026-04-24T12:28:26.999Z</time></trkpt><trkpt lat="55.73734011263652" lon="52.43112051200863"><ele>115.0</ele><time>2026-04-24T12:28:29.999Z</time></trkpt><trkpt lat="55.73739031823954" lon="52.43122004749468"><ele>115.0</ele><time>2026-04-24T12:28:32.999Z</time></trkpt><trkpt lat="55.73743751550646" lon="52.43131684469139"><ele>115.0</ele><time>2026-04-24T12:28:36Z</time></trkpt><trkpt lat="55.73749307280865" lon="52.431417583428384"><ele>115.00000000000001</ele><time>2026-04-24T12:28:39Z</time></trkpt><trkpt lat="55.737545795679665" lon="52.43149788127508"><ele>115.0</ele><time>2026-04-24T12:28:42Z</time></trkpt><trkpt lat="55.73759763872308" lon="52.43156927675134"><ele>115.16666666666667</ele><time>2026-04-24T12:28:47Z</time></trkpt><trkpt lat="55.73764859763151" lon="52.43167794976975"><ele>115.33333333333334</ele><time>2026-04-24T12:28:50Z</time></trkpt><trkpt lat="55.737696032220484" lon="52.43178525750478"><ele>115.5</ele><time>2026-04-24T12:28:53Z</time></trkpt><trkpt lat="55.737737535774365" lon="52.43187444466831"><ele>115.66666666666666</ele><time>2026-04-24T12:28:56Z</time></trkpt><trkpt lat="55.737796473586336" lon="52.4319700250521"><ele>115.83333333333333</ele><time>2026-04-24T12:28:59Z</time></trkpt><trkpt lat="55.737852489491154" lon="52.43204322598546"><ele>116.0</ele><time>2026-04-24T12:29:01Z</time></trkpt><trkpt lat="55.73791041243566" lon="52.43214574250742"><ele>115.49999999999999</ele><time>2026-04-24T12:29:04Z</time></trkpt><trkpt lat="55.737976728834155" lon="52.43226324462896"><ele>115.0</ele><time>2026-04-24T12:29:07Z</time></trkpt><trkpt lat="55.73805064267475" lon="52.432359755091795"><ele>114.5</ele><time>2026-04-24T12:29:09Z</time></trkpt><trkpt lat="55.73809653577815" lon="52.432461731151925"><ele>114.0</ele><time>2026-04-24T12:29:11Z</time></trkpt><trkpt lat="55.73814705040214" lon="52.43255986913736"><ele>113.49999999999999</ele><time>2026-04-24T12:29:13Z</time></trkpt><trkpt lat="55.7382037557275" lon="52.43265591947255"><ele>113.0</ele><time>2026-04-24T12:29:15Z</time></trkpt><trkpt lat="55.738253989443024" lon="52.432750533543555"><ele>113.0</ele><time>2026-04-24T12:29:17Z</time></trkpt><trkpt lat="55.738295509796934" lon="52.43283726314588"><ele>113.0</ele><time>2026-04-24T12:29:19Z</time></trkpt><trkpt lat="55.73834890312751" lon="52.43294093339928"><ele>113.0</ele><time>2026-04-24T12:29:21Z</time></trkpt><trkpt lat="55.73839593567756" lon="52.43304463089263"><ele>113.0</ele><time>2026-04-24T12:29:23Z</time></trkpt><trkpt lat="55.73844600206321" lon="52.43313607981835"><ele>113.0</ele><time>2026-04-24T12:29:25Z</time></trkpt><trkpt lat="55.73849552694958" lon="52.43323069127153"><ele>113.0</ele><time>2026-04-24T12:29:27Z</time></trkpt><trkpt lat="55.73854201275498" lon="52.43332525742645"><ele>113.0</ele><time>2026-04-24T12:29:29Z</time></trkpt><trkpt lat="55.73859413692988" lon="52.433412269923636"><ele>113.0</ele><time>2026-04-24T12:29:31Z</time></trkpt><trkpt lat="55.73864707864971" lon="52.43351964905835"><ele>113.0</ele><time>2026-04-24T12:29:33Z</time></trkpt><trkpt lat="55.73869724300661" lon="52.43360961608144"><ele>113.0</ele><time>2026-04-24T12:29:35Z</time></trkpt><trkpt lat="55.73875073780511" lon="52.433700688651015"><ele>113.0</ele><time>2026-04-24T12:29:37Z</time></trkpt><trkpt lat="55.7388018165291" lon="52.433800435517526"><ele>113.0</ele><time>2026-04-24T12:29:38.999Z</time></trkpt><trkpt lat="55.738856451371134" lon="52.433890450984165"><ele>113.0</ele><time>2026-04-24T12:29:40.999Z</time></trkpt><trkpt lat="55.738904733141766" lon="52.43397320583545"><ele>113.0</ele><time>2026-04-24T12:29:42.999Z</time></trkpt><trkpt lat="55.738941905874725" lon="52.43409969079625"><ele>112.71428571428572</ele><time>2026-04-24T12:29:45.999Z</time></trkpt><trkpt lat="55.73892382848071" lon="52.43423106309655"><ele>112.42857142857142</ele><time>2026-04-24T12:29:48.999Z</time></trkpt><trkpt lat="55.738911862192055" lon="52.4343641882328"><ele>112.14285714285714</ele><time>2026-04-24T12:29:51.999Z</time></trkpt><trkpt lat="55.73887644864341" lon="52.43446439592925"><ele>111.85714285714286</ele><time>2026-04-24T12:29:54.999Z</time></trkpt><trkpt lat="55.73893474036447" lon="52.434400129982926"><ele>111.57142857142858</ele><time>2026-04-24T12:30:00.999Z</time></trkpt><trkpt lat="55.73890198975754" lon="52.4342710242351"><ele>111.28571428571428</ele><time>2026-04-24T12:30:04.999Z</time></trkpt><trkpt lat="55.73891514540549" lon="52.434158402548746"><ele>111.0</ele><time>2026-04-24T12:30:07.998Z</time></trkpt><trkpt lat="55.738946848188604" lon="52.43403791434006"><ele>111.0</ele><time>2026-04-24T12:30:10.998Z</time></trkpt><trkpt lat="55.73900207625447" lon="52.43393456621864"><ele>111.0</ele><time>2026-04-24T12:30:13.998Z</time></trkpt><trkpt lat="55.73906094474667" lon="52.43383486149186"><ele>111.0</ele><time>2026-04-24T12:30:16.998Z</time></trkpt><trkpt lat="55.739120475406125" lon="52.433735858800546"><ele>111.0</ele><time>2026-04-24T12:30:19.998Z</time></trkpt><trkpt lat="55.73918081490773" lon="52.43361765875331"><ele>111.0</ele><time>2026-04-24T12:30:22.998Z</time></trkpt><trkpt lat="55.73922047452947" lon="52.433530028503554"><ele>111.0</ele><time>2026-04-24T12:30:24.998Z</time></trkpt><trkpt lat="55.73928209538085" lon="52.43344594456172"><ele>111.14285714285714</ele><time>2026-04-24T12:30:27.998Z</time></trkpt><trkpt lat="55.73934616159167" lon="52.433417173464086"><ele>111.28571428571429</ele><time>2026-04-24T12:30:30.998Z</time></trkpt><trkpt lat="55.73940474326794" lon="52.4335172351415"><ele>111.42857142857143</ele><time>2026-04-24T12:30:33.998Z</time></trkpt><trkpt lat="55.73946153007409" lon="52.43343960307635"><ele>111.57142857142857</ele><time>2026-04-24T12:30:36.998Z</time></trkpt><trkpt lat="55.73952467819678" lon="52.433508109391106"><ele>111.71428571428572</ele><time>2026-04-24T12:30:54Z</time></trkpt><trkpt lat="55.73957119172854" lon="52.43361451416114"><ele>111.85714285714286</ele><time>2026-04-24T12:30:58Z</time></trkpt><trkpt lat="55.73961841457829" lon="52.43370347397979"><ele>112.0</ele><time>2026-04-24T12:31:01Z</time></trkpt><trkpt lat="55.73966460688361" lon="52.43378633282589"><ele>112.0</ele><time>2026-04-24T12:31:03.999Z</time></trkpt><trkpt lat="55.73971711767774" lon="52.4338887100499"><ele>112.0</ele><time>2026-04-24T12:31:05.999Z</time></trkpt><trkpt lat="55.73978072201642" lon="52.43400029690273"><ele>112.0</ele><time>2026-04-24T12:31:08.999Z</time></trkpt><trkpt lat="55.73982208299323" lon="52.4340919699405"><ele>112.0</ele><time>2026-04-24T12:31:10.999Z</time></trkpt><trkpt lat="55.73986555650255" lon="52.4341767586937"><ele>112.0</ele><time>2026-04-24T12:31:12.999Z</time></trkpt><trkpt lat="55.73991368077253" lon="52.43425111755748"><ele>112.0</ele><time>2026-04-24T12:31:14.999Z</time></trkpt><trkpt lat="55.7399571459152" lon="52.434332484317174"><ele>112.0</ele><time>2026-04-24T12:31:16.999Z</time></trkpt><trkpt lat="55.74000523713416" lon="52.43442225041792"><ele>112.0</ele><time>2026-04-24T12:31:18.999Z</time></trkpt><trkpt lat="55.740051859571835" lon="52.434511100865954"><ele>112.0</ele><time>2026-04-24T12:31:20.999Z</time></trkpt><trkpt lat="55.74009710717694" lon="52.4346006005729"><ele>112.0</ele><time>2026-04-24T12:31:22.999Z</time></trkpt><trkpt lat="55.74014790391181" lon="52.434686533776684"><ele>112.0</ele><time>2026-04-24T12:31:24.999Z</time></trkpt><trkpt lat="55.74019389198459" lon="52.43477784628832"><ele>112.0</ele><time>2026-04-24T12:31:26.999Z</time></trkpt><trkpt lat="55.74024679370932" lon="52.43486555768387"><ele>112.0</ele><time>2026-04-24T12:31:28.999Z</time></trkpt><trkpt lat="55.74029479030936" lon="52.4349522674271"><ele>112.0</ele><time>2026-04-24T12:31:30.999Z</time></trkpt><trkpt lat="55.740342545714576" lon="52.43504468689381"><ele>112.14285714285714</ele><time>2026-04-24T12:31:32.999Z</time></trkpt><trkpt lat="55.74039264873854" lon="52.43514352923418"><ele>112.28571428571428</ele><time>2026-04-24T12:31:34.999Z</time></trkpt><trkpt lat="55.74044295454583" lon="52.435231458828056"><ele>112.42857142857143</ele><time>2026-04-24T12:31:36.999Z</time></trkpt><trkpt lat="55.740494605933705" lon="52.435327244448814"><ele>112.57142857142857</ele><time>2026-04-24T12:31:38.999Z</time></trkpt><trkpt lat="55.74054409155056" lon="52.435414875371315"><ele>112.71428571428571</ele><time>2026-04-24T12:31:40.999Z</time></trkpt><trkpt lat="55.74060301446883" lon="52.43549455359873"><ele>112.85714285714286</ele><time>2026-04-24T12:31:42.999Z</time></trkpt><trkpt lat="55.740653560427155" lon="52.43557431822661"><ele>113.0</ele><time>2026-04-24T12:31:44.999Z</time></trkpt><trkpt lat="55.7407063667307" lon="52.435678284709326"><ele>112.99999999999999</ele><time>2026-04-24T12:31:46.999Z</time></trkpt><trkpt lat="55.7407623707382" lon="52.435794507522914"><ele>113.0</ele><time>2026-04-24T12:31:48.999Z</time></trkpt><trkpt lat="55.74082325492899" lon="52.43591989493385"><ele>113.0</ele><time>2026-04-24T12:31:50.999Z</time></trkpt><trkpt lat="55.74087630120346" lon="52.43602727274225"><ele>113.0</ele><time>2026-04-24T12:31:52.999Z</time></trkpt><trkpt lat="55.740933472364674" lon="52.43612934562116"><ele>112.99999999999999</ele><time>2026-04-24T12:31:54.999Z</time></trkpt><trkpt lat="55.74098560786908" lon="52.4362428098681"><ele>113.0</ele><time>2026-04-24T12:31:56.999Z</time></trkpt><trkpt lat="55.741044186915445" lon="52.4363527186683"><ele>113.16666666666666</ele><time>2026-04-24T12:31:58.999Z</time></trkpt><trkpt lat="55.74110676556188" lon="52.436462735886664"><ele>113.33333333333333</ele><time>2026-04-24T12:32:00.999Z</time></trkpt><trkpt lat="55.74116780346046" lon="52.4365723586024"><ele>113.5</ele><time>2026-04-24T12:32:02.999Z</time></trkpt><trkpt lat="55.741223265367644" lon="52.4366727925047"><ele>113.66666666666666</ele><time>2026-04-24T12:32:04.999Z</time></trkpt><trkpt lat="55.74127399609259" lon="52.43676675222624"><ele>113.83333333333333</ele><time>2026-04-24T12:32:06.999Z</time></trkpt><trkpt lat="55.741321119076936" lon="52.436850953848534"><ele>114.0</ele><time>2026-04-24T12:32:08.999Z</time></trkpt><trkpt lat="55.74136786114182" lon="52.436941879312705"><ele>114.0</ele><time>2026-04-24T12:32:10.999Z</time></trkpt><trkpt lat="55.741412728946564" lon="52.437025499561635"><ele>113.99999999999999</ele><time>2026-04-24T12:32:12.999Z</time></trkpt><trkpt lat="55.74146137654572" lon="52.437101256486294"><ele>114.0</ele><time>2026-04-24T12:32:14.999Z</time></trkpt><trkpt lat="55.74152103666757" lon="52.437215630152224"><ele>114.0</ele><time>2026-04-24T12:32:17.999Z</time></trkpt><trkpt lat="55.74156979864875" lon="52.4373120236543"><ele>113.99999999999999</ele><time>2026-04-24T12:32:19.998Z</time></trkpt><trkpt lat="55.74159794352823" lon="52.43744260788005"><ele>114.0</ele><time>2026-04-24T12:32:21.998Z</time></trkpt><trkpt lat="55.74160205548092" lon="52.43757626004391"><ele>114.0</ele><time>2026-04-24T12:32:23.998Z</time></trkpt><trkpt lat="55.74163142134173" lon="52.437684155790265"><ele>114.0</ele><time>2026-04-24T12:32:25.998Z</time></trkpt><trkpt lat="55.74167979850658" lon="52.43777732795097"><ele>113.99999999999999</ele><time>2026-04-24T12:32:27.998Z</time></trkpt><trkpt lat="55.741731012026335" lon="52.43786267239607"><ele>114.0</ele><time>2026-04-24T12:32:29.998Z</time></trkpt><trkpt lat="55.74177909557687" lon="52.43794600179759"><ele>114.0</ele><time>2026-04-24T12:32:31.998Z</time></trkpt><trkpt lat="55.74182331782468" lon="52.438036436062376"><ele>113.99999999999999</ele><time>2026-04-24T12:32:33.998Z</time></trkpt><trkpt lat="55.7418701149344" lon="52.438128681497986"><ele>114.0</ele><time>2026-04-24T12:32:36.998Z</time></trkpt><trkpt lat="55.741918227480525" lon="52.438214721885075"><ele>114.0</ele><time>2026-04-24T12:32:37.998Z</time></trkpt><trkpt lat="55.74196456316263" lon="52.43831593147897"><ele>114.0</ele><time>2026-04-24T12:32:39.998Z</time></trkpt><trkpt lat="55.74201146791094" lon="52.43840711766141"><ele>113.99999999999999</ele><time>2026-04-24T12:32:41.998Z</time></trkpt><trkpt lat="55.74206215316128" lon="52.438479523905926"><ele>114.0</ele><time>2026-04-24T12:32:43.998Z</time></trkpt><trkpt lat="55.742105463388214" lon="52.43857018641497"><ele>114.0</ele><time>2026-04-24T12:32:45.998Z</time></trkpt><trkpt lat="55.74214567956453" lon="52.438662690606634"><ele>113.99999999999999</ele><time>2026-04-24T12:32:48Z</time></trkpt><trkpt lat="55.742191385907795" lon="52.4387444635062"><ele>114.0</ele><time>2026-04-24T12:32:50Z</time></trkpt><trkpt lat="55.742249037617995" lon="52.43885228242007"><ele>114.0</ele><time>2026-04-24T12:32:53Z</time></trkpt><trkpt lat="55.74230504504401" lon="52.43895331872472"><ele>113.83333333333333</ele><time>2026-04-24T12:32:56Z</time></trkpt><trkpt lat="55.74236620508716" lon="52.4390615721648"><ele>113.66666666666666</ele><time>2026-04-24T12:32:59Z</time></trkpt><trkpt lat="55.74244414286854" lon="52.43914423214349"><ele>113.5</ele><time>2026-04-24T12:33:02Z</time></trkpt><trkpt lat="55.74251329802126" lon="52.43925327482145"><ele>113.33333333333333</ele><time>2026-04-24T12:33:05Z</time></trkpt><trkpt lat="55.74255707282513" lon="52.43934345785979"><ele>113.16666666666666</ele><time>2026-04-24T12:33:07Z</time></trkpt><trkpt lat="55.74260178102338" lon="52.439435357030604"><ele>113.0</ele><time>2026-04-24T12:33:10Z</time></trkpt><trkpt lat="55.74266216862659" lon="52.43955128633392"><ele>112.85714285714286</ele><time>2026-04-24T12:33:13Z</time></trkpt><trkpt lat="55.74270871262133" lon="52.43963536619297"><ele>112.71428571428571</ele><time>2026-04-24T12:33:14Z</time></trkpt><trkpt lat="55.74276625066883" lon="52.4397323572623"><ele>112.57142857142857</ele><time>2026-04-24T12:33:15.999Z</time></trkpt><trkpt lat="55.74281521322541" lon="52.43983056388787"><ele>112.42857142857143</ele><time>2026-04-24T12:33:17.999Z</time></trkpt><trkpt lat="55.74286787386397" lon="52.439922355339775"><ele>112.28571428571428</ele><time>2026-04-24T12:33:19.999Z</time></trkpt><trkpt lat="55.74291904902238" lon="52.44001604231833"><ele>112.14285714285714</ele><time>2026-04-24T12:33:21.999Z</time></trkpt><trkpt lat="55.742973919337956" lon="52.44010333408596"><ele>112.0</ele><time>2026-04-24T12:33:23.999Z</time></trkpt><trkpt lat="55.743025328523025" lon="52.440199090271925"><ele>111.85714285714286</ele><time>2026-04-24T12:33:25.999Z</time></trkpt><trkpt lat="55.74307761467214" lon="52.440297629580414"><ele>111.71428571428572</ele><time>2026-04-24T12:33:27.999Z</time></trkpt><trkpt lat="55.743130794175926" lon="52.4403996413066"><ele>111.57142857142857</ele><time>2026-04-24T12:33:29.999Z</time></trkpt><trkpt lat="55.74318908426752" lon="52.44047453478442"><ele>111.42857142857143</ele><time>2026-04-24T12:33:31.999Z</time></trkpt><trkpt lat="55.74323329693117" lon="52.44056546870521"><ele>111.28571428571429</ele><time>2026-04-24T12:33:33.999Z</time></trkpt><trkpt lat="55.743279399361995" lon="52.44067454219302"><ele>111.14285714285714</ele><time>2026-04-24T12:33:50.999Z</time></trkpt><trkpt lat="55.743323985958966" lon="52.440767245878405"><ele>111.0</ele><time>2026-04-24T12:33:53.999Z</time></trkpt><trkpt lat="55.74339026250806" lon="52.44088734166466"><ele>111.0</ele><time>2026-04-24T12:33:56.999Z</time></trkpt><trkpt lat="55.743444131089134" lon="52.44099588351981"><ele>111.0</ele><time>2026-04-24T12:33:58.999Z</time></trkpt><trkpt lat="55.74349360951357" lon="52.4410900887148"><ele>111.0</ele><time>2026-04-24T12:34:00.999Z</time></trkpt><trkpt lat="55.74354643525883" lon="52.44117821412681"><ele>111.0</ele><time>2026-04-24T12:34:02.999Z</time></trkpt><trkpt lat="55.743592525204065" lon="52.44126512691454"><ele>111.0</ele><time>2026-04-24T12:34:04.999Z</time></trkpt><trkpt lat="55.74364950391361" lon="52.44137129232635"><ele>111.0</ele><time>2026-04-24T12:34:07.999Z</time></trkpt><trkpt lat="55.743712408563034" lon="52.441485918310164"><ele>111.0</ele><time>2026-04-24T12:34:10.999Z</time></trkpt><trkpt lat="55.743753033451554" lon="52.441585663533424"><ele>111.0</ele><time>2026-04-24T12:34:12.999Z</time></trkpt><trkpt lat="55.7438288851688" lon="52.44171218661561"><ele>111.0</ele><time>2026-04-24T12:34:15.999Z</time></trkpt><trkpt lat="55.74388551800227" lon="52.441806413189646"><ele>111.0</ele><time>2026-04-24T12:34:17.999Z</time></trkpt><trkpt lat="55.743925922418896" lon="52.44189442620741"><ele>111.0</ele><time>2026-04-24T12:34:19.999Z</time></trkpt><trkpt lat="55.743998811759575" lon="52.442047525762554"><ele>111.0</ele><time>2026-04-24T12:34:21.999Z</time></trkpt><trkpt lat="55.744074600024845" lon="52.44215041195096"><ele>111.0</ele><time>2026-04-24T12:34:23.999Z</time></trkpt><trkpt lat="55.74412912679269" lon="52.442240585311424"><ele>111.0</ele><time>2026-04-24T12:34:25.999Z</time></trkpt><trkpt lat="55.7441866144307" lon="52.442355050224414"><ele>111.0</ele><time>2026-04-24T12:34:27.999Z</time></trkpt><trkpt lat="55.74424755744288" lon="52.44245852896884"><ele>111.0</ele><time>2026-04-24T12:34:29.999Z</time></trkpt><trkpt lat="55.74430535902796" lon="52.44255962988984"><ele>111.0</ele><time>2026-04-24T12:34:31.999Z</time></trkpt><trkpt lat="55.74435066971552" lon="52.44265304315452"><ele>111.0</ele><time>2026-04-24T12:34:33.998Z</time></trkpt><trkpt lat="55.74441239651206" lon="52.44274139026712"><ele>111.0</ele><time>2026-04-24T12:34:36.998Z</time></trkpt><trkpt lat="55.7444874407254" lon="52.44278633273327"><ele>111.0</ele><time>2026-04-24T12:34:38.998Z</time></trkpt><trkpt lat="55.744533019395305" lon="52.44292626433737"><ele>111.0</ele><time>2026-04-24T12:34:41.998Z</time></trkpt><trkpt lat="55.74458466772769" lon="52.443030783987595"><ele>111.0</ele><time>2026-04-24T12:34:43.998Z</time></trkpt><trkpt lat="55.744646060998086" lon="52.443153585585115"><ele>111.0</ele><time>2026-04-24T12:34:46.998Z</time></trkpt><trkpt lat="55.744700289479354" lon="52.44323002198337"><ele>111.0</ele><time>2026-04-24T12:34:49.998Z</time></trkpt><trkpt lat="55.74479238429504" lon="52.44340701375773"><ele>110.85714285714285</ele><time>2026-04-24T12:34:50.998Z</time></trkpt><trkpt lat="55.74483411669776" lon="52.4435035104854"><ele>110.71428571428572</ele><time>2026-04-24T12:34:53Z</time></trkpt><trkpt lat="55.74484664930606" lon="52.44362859009232"><ele>110.57142857142857</ele><time>2026-04-24T12:34:55Z</time></trkpt><trkpt lat="55.74489849132286" lon="52.44370894639159"><ele>110.42857142857142</ele><time>2026-04-24T12:34:57Z</time></trkpt><trkpt lat="55.74495794622399" lon="52.4437588986641"><ele>110.28571428571428</ele><time>2026-04-24T12:34:59Z</time></trkpt><trkpt lat="55.74501901802408" lon="52.443850435363856"><ele>110.14285714285714</ele><time>2026-04-24T12:35:02Z</time></trkpt><trkpt lat="55.74506408607425" lon="52.44393375170431"><ele>110.0</ele><time>2026-04-24T12:35:04Z</time></trkpt><trkpt lat="55.74511581906078" lon="52.444016593465534"><ele>109.83333333333333</ele><time>2026-04-24T12:35:06Z</time></trkpt><trkpt lat="55.74516149781911" lon="52.444103823754226"><ele>109.66666666666666</ele><time>2026-04-24T12:35:09Z</time></trkpt><trkpt lat="55.74521752692891" lon="52.44421394728756"><ele>109.5</ele><time>2026-04-24T12:35:12Z</time></trkpt><trkpt lat="55.74526715508784" lon="52.44431757676622"><ele>109.33333333333334</ele><time>2026-04-24T12:35:16Z</time></trkpt><trkpt lat="55.74524148827776" lon="52.4444417345904"><ele>109.16666666666667</ele><time>2026-04-24T12:35:19Z</time></trkpt><trkpt lat="55.7451801370768" lon="52.44455759100539"><ele>109.0</ele><time>2026-04-24T12:35:22Z</time></trkpt><trkpt lat="55.74510945154057" lon="52.444661146248286"><ele>109.00000000000001</ele><time>2026-04-24T12:35:25Z</time></trkpt><trkpt lat="55.745033695615476" lon="52.444731292808434"><ele>109.0</ele><time>2026-04-24T12:35:28Z</time></trkpt><trkpt lat="55.744991707343026" lon="52.44486824627169"><ele>109.0</ele><time>2026-04-24T12:35:31Z</time></trkpt><trkpt lat="55.744940220555904" lon="52.44494484893999"><ele>109.0</ele><time>2026-04-24T12:35:32.999Z</time></trkpt><trkpt lat="55.74488927354273" lon="52.445045527066604"><ele>109.00000000000001</ele><time>2026-04-24T12:35:35.999Z</time></trkpt><trkpt lat="55.74487140341111" lon="52.44515608549465"><ele>109.0</ele><time>2026-04-24T12:35:38.999Z</time></trkpt><trkpt lat="55.74489173471811" lon="52.44528921756346"><ele>109.00000000000001</ele><time>2026-04-24T12:35:42.999Z</time></trkpt><trkpt lat="55.74495903954183" lon="52.44538185843277"><ele>109.0</ele><time>2026-04-24T12:36:03.999Z</time></trkpt><trkpt lat="55.745000078330634" lon="52.44546995994342"><ele>109.0</ele><time>2026-04-24T12:36:05.999Z</time></trkpt><trkpt lat="55.74505446260034" lon="52.445555809107006"><ele>109.0</ele><time>2026-04-24T12:36:08.999Z</time></trkpt><trkpt lat="55.74510821162034" lon="52.4456646047062"><ele>109.00000000000001</ele><time>2026-04-24T12:36:11.999Z</time></trkpt><trkpt lat="55.74517013996384" lon="52.445760129375415"><ele>109.0</ele><time>2026-04-24T12:36:14.999Z</time></trkpt><trkpt lat="55.745238574298334" lon="52.44575080642966"><ele>109.00000000000001</ele><time>2026-04-24T12:36:17.999Z</time></trkpt><trkpt lat="55.745271637112985" lon="52.44588662451797"><ele>109.0</ele><time>2026-04-24T12:36:20.999Z</time></trkpt><trkpt lat="55.74529889947893" lon="52.44600673837056"><ele>109.0</ele><time>2026-04-24T12:36:23.999Z</time></trkpt><trkpt lat="55.74532623775094" lon="52.44614271809578"><ele>109.0</ele><time>2026-04-24T12:36:26.999Z</time></trkpt><trkpt lat="55.74535939440885" lon="52.44628512304112"><ele>109.00000000000001</ele><time>2026-04-24T12:36:28.999Z</time></trkpt><trkpt lat="55.74538817200523" lon="52.446406197589816"><ele>109.0</ele><time>2026-04-24T12:36:30.999Z</time></trkpt><trkpt lat="55.74542017248369" lon="52.446509603622225"><ele>108.83333333333334</ele><time>2026-04-24T12:36:32.999Z</time></trkpt><trkpt lat="55.745457051033924" lon="52.44660316259241"><ele>108.66666666666667</ele><time>2026-04-24T12:36:34.999Z</time></trkpt><trkpt lat="55.745469763381536" lon="52.44674612228399"><ele>108.5</ele><time>2026-04-24T12:36:37.999Z</time></trkpt><trkpt lat="55.74543400766794" lon="52.44687242994142"><ele>108.33333333333334</ele><time>2026-04-24T12:36:40.999Z</time></trkpt><trkpt lat="55.74536660868508" lon="52.44697948766109"><ele>108.16666666666667</ele><time>2026-04-24T12:36:43.999Z</time></trkpt><trkpt lat="55.74530260987284" lon="52.44709561734016"><ele>108.0</ele><time>2026-04-24T12:36:46.999Z</time></trkpt><trkpt lat="55.74525082108399" lon="52.44716951002272"><ele>108.14285714285714</ele><time>2026-04-24T12:36:48.999Z</time></trkpt><trkpt lat="55.745201174280695" lon="52.447253770470084"><ele>108.28571428571428</ele><time>2026-04-24T12:36:50.998Z</time></trkpt><trkpt lat="55.74515425363964" lon="52.447344655938224"><ele>108.42857142857143</ele><time>2026-04-24T12:36:52.998Z</time></trkpt><trkpt lat="55.74510431981572" lon="52.44742354020456"><ele>108.57142857142857</ele><time>2026-04-24T12:36:54.998Z</time></trkpt><trkpt lat="55.74505542205208" lon="52.44751470213133"><ele>108.71428571428572</ele><time>2026-04-24T12:36:56.998Z</time></trkpt><trkpt lat="55.74501092406756" lon="52.44759667036017"><ele>108.85714285714286</ele><time>2026-04-24T12:36:59Z</time></trkpt><trkpt lat="55.74496280199062" lon="52.44767683951197"><ele>109.0</ele><time>2026-04-24T12:37:01Z</time></trkpt><trkpt lat="55.74490468829232" lon="52.44777422029966"><ele>109.00000000000001</ele><time>2026-04-24T12:37:03Z</time></trkpt><trkpt lat="55.74484855271212" lon="52.447872329753906"><ele>109.0</ele><time>2026-04-24T12:37:05Z</time></trkpt><trkpt lat="55.744793646978856" lon="52.4479791761694"><ele>109.0</ele><time>2026-04-24T12:37:07Z</time></trkpt><trkpt lat="55.74473922261661" lon="52.44807388009696"><ele>109.0</ele><time>2026-04-24T12:37:09Z</time></trkpt><trkpt lat="55.74467951042563" lon="52.448166720879165"><ele>109.00000000000001</ele><time>2026-04-24T12:37:11Z</time></trkpt><trkpt lat="55.74462115563698" lon="52.44825866936692"><ele>109.0</ele><time>2026-04-24T12:37:13Z</time></trkpt><trkpt lat="55.744566578318334" lon="52.44834935901944"><ele>109.00000000000001</ele><time>2026-04-24T12:37:15Z</time></trkpt><trkpt lat="55.74451628225604" lon="52.44844542379598"><ele>109.0</ele><time>2026-04-24T12:37:17Z</time></trkpt><trkpt lat="55.74446438840195" lon="52.448534632943634"><ele>109.0</ele><time>2026-04-24T12:37:19Z</time></trkpt><trkpt lat="55.744411139626465" lon="52.44863074238812"><ele>109.0</ele><time>2026-04-24T12:37:21Z</time></trkpt><trkpt lat="55.74435392893282" lon="52.44872865613539"><ele>109.00000000000001</ele><time>2026-04-24T12:37:23Z</time></trkpt><trkpt lat="55.74429982439833" lon="52.44881985295077"><ele>109.0</ele><time>2026-04-24T12:37:25Z</time></trkpt><trkpt lat="55.74424149943477" lon="52.44890225815797"><ele>108.66666666666667</ele><time>2026-04-24T12:37:27Z</time></trkpt><trkpt lat="55.74418846163479" lon="52.449006353527864"><ele>108.33333333333334</ele><time>2026-04-24T12:37:29Z</time></trkpt><trkpt lat="55.744132516052346" lon="52.449107323054356"><ele>108.0</ele><time>2026-04-24T12:37:31Z</time></trkpt><trkpt lat="55.74407649056291" lon="52.44920349778743"><ele>107.66666666666666</ele><time>2026-04-24T12:37:33Z</time></trkpt><trkpt lat="55.74402167506637" lon="52.44929059965113"><ele>107.33333333333333</ele><time>2026-04-24T12:37:35Z</time></trkpt><trkpt lat="55.74396671673654" lon="52.44938437168379"><ele>107.0</ele><time>2026-04-24T12:37:37Z</time></trkpt><trkpt lat="55.743912375866124" lon="52.44947565790729"><ele>106.99999999999999</ele><time>2026-04-24T12:37:39Z</time></trkpt><trkpt lat="55.74385851426354" lon="52.44957308998505"><ele>107.0</ele><time>2026-04-24T12:37:41Z</time></trkpt><trkpt lat="55.74380407398465" lon="52.44966513158824"><ele>107.0</ele><time>2026-04-24T12:37:43Z</time></trkpt><trkpt lat="55.74374608345266" lon="52.44976270133301"><ele>107.0</ele><time>2026-04-24T12:37:45Z</time></trkpt><trkpt lat="55.743690873723466" lon="52.44985321341758"><ele>106.99999999999999</ele><time>2026-04-24T12:37:47Z</time></trkpt><trkpt lat="55.74362994001143" lon="52.44994474417657"><ele>107.0</ele><time>2026-04-24T12:37:48.999Z</time></trkpt><trkpt lat="55.7435754437799" lon="52.45003565104429"><ele>107.00000000000001</ele><time>2026-04-24T12:37:50.999Z</time></trkpt><trkpt lat="55.74352495303698" lon="52.45012313268623"><ele>107.0</ele><time>2026-04-24T12:37:52.999Z</time></trkpt><trkpt lat="55.74351607598564" lon="52.45025927961505"><ele>107.0</ele><time>2026-04-24T12:37:55.999Z</time></trkpt><trkpt lat="55.7435679610875" lon="52.45032753622711"><ele>107.0</ele><time>2026-04-24T12:37:57.999Z</time></trkpt><trkpt lat="55.74362907987603" lon="52.45044057888363"><ele>107.0</ele><time>2026-04-24T12:38:00.999Z</time></trkpt><trkpt lat="55.74367638833119" lon="52.45052100969847"><ele>107.00000000000001</ele><time>2026-04-24T12:38:02.999Z</time></trkpt><trkpt lat="55.74372516550031" lon="52.450599157676876"><ele>107.0</ele><time>2026-04-24T12:38:04.999Z</time></trkpt><trkpt lat="55.74377472721218" lon="52.45071070106648"><ele>107.00000000000001</ele><time>2026-04-24T12:38:07.999Z</time></trkpt><trkpt lat="55.74382139441007" lon="52.450794037815434"><ele>107.0</ele><time>2026-04-24T12:38:09.999Z</time></trkpt><trkpt lat="55.743869811742094" lon="52.450871329949564"><ele>107.0</ele><time>2026-04-24T12:38:11.999Z</time></trkpt><trkpt lat="55.743925418887386" lon="52.450983116077595"><ele>107.0</ele><time>2026-04-24T12:38:14.999Z</time></trkpt><trkpt lat="55.74397907780094" lon="52.45105882100799"><ele>107.0</ele><time>2026-04-24T12:38:16.999Z</time></trkpt><trkpt lat="55.74403193914817" lon="52.45114599949174"><ele>107.00000000000001</ele><time>2026-04-24T12:38:18.999Z</time></trkpt><trkpt lat="55.744078923068926" lon="52.45123115867799"><ele>107.0</ele><time>2026-04-24T12:38:20.999Z</time></trkpt><trkpt lat="55.7441262230844" lon="52.4513213983005"><ele>107.14285714285715</ele><time>2026-04-24T12:38:22.999Z</time></trkpt><trkpt lat="55.74417229765444" lon="52.45140991276665"><ele>107.28571428571429</ele><time>2026-04-24T12:38:24.999Z</time></trkpt><trkpt lat="55.74422254810961" lon="52.45149686430724"><ele>107.42857142857143</ele><time>2026-04-24T12:38:26.999Z</time></trkpt><trkpt lat="55.744276043846" lon="52.451581179932326"><ele>107.57142857142858</ele><time>2026-04-24T12:38:28.999Z</time></trkpt><trkpt lat="55.74432618864347" lon="52.451650367885826"><ele>107.71428571428571</ele><time>2026-04-24T12:38:30.999Z</time></trkpt><trkpt lat="55.74436760614218" lon="52.451774826994196"><ele>107.85714285714286</ele><time>2026-04-24T12:38:33.999Z</time></trkpt><trkpt lat="55.744313139004774" lon="52.45185797622108"><ele>108.0</ele><time>2026-04-24T12:38:36.999Z</time></trkpt><trkpt lat="55.74425628291609" lon="52.45194097516214"><ele>108.0</ele><time>2026-04-24T12:38:39.999Z</time></trkpt><trkpt lat="55.744205682576656" lon="52.45206402508425"><ele>108.0</ele><time>2026-04-24T12:38:42.999Z</time></trkpt><trkpt lat="55.7441683709448" lon="52.45215481149382"><ele>108.0</ele><time>2026-04-24T12:38:44.999Z</time></trkpt><trkpt lat="55.744125535835416" lon="52.45223841497626"><ele>108.0</ele><time>2026-04-24T12:38:46.999Z</time></trkpt><trkpt lat="55.74406419925159" lon="52.452357123769865"><ele>108.0</ele><time>2026-04-24T12:38:49.999Z</time></trkpt><trkpt lat="55.74400628057723" lon="52.452468899450984"><ele>108.0</ele><time>2026-04-24T12:38:52.999Z</time></trkpt><trkpt lat="55.74395256728066" lon="52.45258105504812"><ele>108.0</ele><time>2026-04-24T12:38:55.999Z</time></trkpt><trkpt lat="55.743893866651774" lon="52.45268532972297"><ele>108.0</ele><time>2026-04-24T12:38:58.999Z</time></trkpt><trkpt lat="55.743833111482715" lon="52.45279589352318"><ele>108.0</ele><time>2026-04-24T12:39:01.999Z</time></trkpt><trkpt lat="55.74379009473136" lon="52.45291089222254"><ele>108.0</ele><time>2026-04-24T12:39:05Z</time></trkpt><trkpt lat="55.74374355388166" lon="52.45300048745485"><ele>108.0</ele><time>2026-04-24T12:39:08Z</time></trkpt><trkpt lat="55.7436883381618" lon="52.45310106485992"><ele>108.0</ele><time>2026-04-24T12:39:11Z</time></trkpt><trkpt lat="55.74367061198825" lon="52.453211977153806"><ele>108.16666666666667</ele><time>2026-04-24T12:39:15Z</time></trkpt><trkpt lat="55.74371012655177" lon="52.453308884157"><ele>108.33333333333334</ele><time>2026-04-24T12:39:18Z</time></trkpt><trkpt lat="55.74375640830937" lon="52.45340219087785"><ele>108.5</ele><time>2026-04-24T12:39:21Z</time></trkpt><trkpt lat="55.74380296769268" lon="52.45348186647424"><ele>108.66666666666667</ele><time>2026-04-24T12:39:24Z</time></trkpt><trkpt lat="55.74383582558705" lon="52.453610161767955"><ele>108.83333333333334</ele><time>2026-04-24T12:39:27Z</time></trkpt><trkpt lat="55.74386258108523" lon="52.45376196672394"><ele>109.0</ele><time>2026-04-24T12:39:30Z</time></trkpt><trkpt lat="55.74392675093959" lon="52.45387890468243"><ele>109.0</ele><time>2026-04-24T12:39:33Z</time></trkpt><trkpt lat="55.74396973435966" lon="52.45398354807172"><ele>109.0</ele><time>2026-04-24T12:39:36Z</time></trkpt><trkpt lat="55.74402198235643" lon="52.4540646282211"><ele>109.0</ele><time>2026-04-24T12:39:38Z</time></trkpt><trkpt lat="55.744076403998925" lon="52.45415616622394"><ele>109.0</ele><time>2026-04-24T12:39:41Z</time></trkpt><trkpt lat="55.7441300758202" lon="52.45426068557812"><ele>109.0</ele><time>2026-04-24T12:39:44Z</time></trkpt><trkpt lat="55.74419202089796" lon="52.45435072045801"><ele>109.0</ele><time>2026-04-24T12:39:46Z</time></trkpt><trkpt lat="55.74424752323425" lon="52.45441666986288"><ele>109.0</ele><time>2026-04-24T12:39:50Z</time></trkpt><trkpt lat="55.74430605264702" lon="52.454480017362044"><ele>109.00000000000001</ele><time>2026-04-24T12:39:54Z</time></trkpt><trkpt lat="55.744373303877396" lon="52.45457191595822"><ele>109.0</ele><time>2026-04-24T12:39:58Z</time></trkpt><trkpt lat="55.744319539901056" lon="52.45451146346014"><ele>109.0</ele><time>2026-04-24T12:40:40.999Z</time></trkpt><trkpt lat="55.744261099278326" lon="52.45443338071564"><ele>109.0</ele><time>2026-04-24T12:40:47.999Z</time></trkpt><trkpt lat="55.744402399112346" lon="52.45436472351369"><ele>109.00000000000001</ele><time>2026-04-24T12:41:29Z</time></trkpt><trkpt lat="55.74440853631121" lon="52.454230472730515"><ele>109.0</ele><time>2026-04-24T12:41:33Z</time></trkpt><trkpt lat="55.744339038966054" lon="52.454193577886066"><ele>109.0</ele><time>2026-04-24T12:41:37Z</time></trkpt><trkpt lat="55.74426470618294" lon="52.45410127329992"><ele>109.0</ele><time>2026-04-24T12:41:40Z</time></trkpt><trkpt lat="55.744590769649236" lon="52.45420064652118"><ele>109.0</ele><time>2026-04-24T12:41:55Z</time></trkpt><trkpt lat="55.74428216000357" lon="52.45409541318147"><ele>109.0</ele><time>2026-04-24T12:42:17.813Z</time></trkpt><trkpt lat="55.74420309093342" lon="52.454115672867"><ele>109.0</ele><time>2026-04-24T12:42:23.923Z</time></trkpt><trkpt lat="55.74428643507139" lon="52.453998594207285"><ele>109.0</ele><time>2026-04-24T12:42:31.059Z</time></trkpt><trkpt lat="55.74434407458737" lon="52.45390676216136"><ele>109.0</ele><time>2026-04-24T12:42:37.903Z</time></trkpt><trkpt lat="55.744191382069005" lon="52.45421616659523"><ele>109.0</ele><time>2026-04-24T12:43:52.852Z</time></trkpt><trkpt lat="55.74428179960276" lon="52.454027852001516"><ele>109.0</ele><time>2026-04-24T12:44:10.856Z</time></trkpt><trkpt lat="55.74396973435966" lon="52.45398354807172"><ele>109.0</ele><time>2026-04-24T12:39:36Z</time></trkpt><trkpt lat="55.74402198235643" lon="52.4540646282211"><ele>109.0</ele><time>2026-04-24T12:39:38Z</time></trkpt><trkpt lat="55.744076403998925" lon="52.45415616622394"><ele>109.0</ele><time>2026-04-24T12:39:41Z</time></trkpt><trkpt lat="55.7441300758202" lon="52.45426068557812"><ele>109.0</ele><time>2026-04-24T12:39:44Z</time></trkpt><trkpt lat="55.74419202089796" lon="52.45435072045801"><ele>109.0</ele><time>2026-04-24T12:39:46Z</time></trkpt><trkpt lat="55.74424752323425" lon="52.45441666986288"><ele>109.0</ele><time>2026-04-24T12:39:50Z</time></trkpt><trkpt lat="55.74430605264702" lon="52.454480017362044"><ele>109.0</ele><time>2026-04-24T12:39:54Z</time></trkpt><trkpt lat="55.744373303877396" lon="52.45457191595822"><ele>109.00000000000001</ele><time>2026-04-24T12:39:58Z</time></trkpt><trkpt lat="55.744319539901056" lon="52.45451146346014"><ele>109.0</ele><time>2026-04-24T12:40:40.999Z</time></trkpt><trkpt lat="55.744261099278326" lon="52.45443338071564"><ele>109.0</ele><time>2026-04-24T12:40:47.999Z</time></trkpt><trkpt lat="55.744402399112346" lon="52.45436472351369"><ele>109.0</ele><time>2026-04-24T12:41:29Z</time></trkpt><trkpt lat="55.74440853631121" lon="52.454230472730515"><ele>109.00000000000001</ele><time>2026-04-24T12:41:33Z</time></trkpt><trkpt lat="55.744339038966054" lon="52.454193577886066"><ele>109.0</ele><time>2026-04-24T12:41:37Z</time></trkpt><trkpt lat="55.74426470618294" lon="52.45410127329992"><ele>109.0</ele><time>2026-04-24T12:41:40Z</time></trkpt><trkpt lat="55.744590769649236" lon="52.45420064652118"><ele>109.0</ele><time>2026-04-24T12:41:55Z</time></trkpt><trkpt lat="55.74428216000357" lon="52.45409541318147"><ele>109.0</ele><time>2026-04-24T12:42:17.813Z</time></trkpt><trkpt lat="55.74420309093342" lon="52.454115672867"><ele>109.0</ele><time>2026-04-24T12:42:23.923Z</time></trkpt><trkpt lat="55.74428643507139" lon="52.453998594207285"><ele>109.0</ele><time>2026-04-24T12:42:31.059Z</time></trkpt><trkpt lat="55.74434407458737" lon="52.45390676216136"><ele>109.0</ele><time>2026-04-24T12:42:37.903Z</time></trkpt><trkpt lat="55.744191382069005" lon="52.45421616659523"><ele>109.0</ele><time>2026-04-24T12:43:52.852Z</time></trkpt><trkpt lat="55.74428179960276" lon="52.454027852001516"><ele>109.0</ele><time>2026-04-24T12:44:10.856Z</time></trkpt><trkpt lat="55.74415450063177" lon="52.45417740534149"><ele>109.0</ele><time>2026-04-24T12:57:48.895Z</time></trkpt><trkpt lat="55.744030958176374" lon="52.4536211896703"><ele>109.0</ele><time>2026-04-24T12:57:52.988Z</time></trkpt><trkpt lat="55.74415398885671" lon="52.45419564016616"><ele>109.0</ele><time>2026-04-24T12:57:55.988Z</time></trkpt><trkpt lat="55.74409796070622" lon="52.45413273777157"><ele>109.0</ele><time>2026-04-24T12:58:01.002Z</time></trkpt><trkpt lat="55.744033239235144" lon="52.45416056084208"><ele>109.0</ele><time>2026-04-24T12:58:03.002Z</time></trkpt><trkpt lat="55.743936822928724" lon="52.454134069248525"><ele>109.0</ele><time>2026-04-24T12:58:05.067Z</time></trkpt><trkpt lat="55.74388366826742" lon="52.45403789585643"><ele>109.0</ele><time>2026-04-24T12:58:13.002Z</time></trkpt><trkpt lat="55.743874524813684" lon="52.453766101392326"><ele>109.0</ele><time>2026-04-24T12:58:17Z</time></trkpt><trkpt lat="55.7439821522622" lon="52.45368718131201"><ele>109.0</ele><time>2026-04-24T12:58:53Z</time></trkpt><trkpt lat="55.74393478445071" lon="52.45378264238361"><ele>109.0</ele><time>2026-04-24T12:59:07Z</time></trkpt><trkpt lat="55.7439243410655" lon="52.45393862183493"><ele>109.0</ele><time>2026-04-24T12:59:14.999Z</time></trkpt><trkpt lat="55.74393710502774" lon="52.45407339065979"><ele>109.0</ele><time>2026-04-24T12:59:28.999Z</time></trkpt><trkpt lat="55.744027399196206" lon="52.45408060778442"><ele>109.0</ele><time>2026-04-24T12:59:34.999Z</time></trkpt><trkpt lat="55.74408934076383" lon="52.454248376327186"><ele>109.0</ele><time>2026-04-24T12:59:37.999Z</time></trkpt><trkpt lat="55.744156348844164" lon="52.45433329694215"><ele>109.00000000000001</ele><time>2026-04-24T12:59:47.999Z</time></trkpt><trkpt lat="55.74417153577874" lon="52.45446248426405"><ele>109.0</ele><time>2026-04-24T12:59:49.999Z</time></trkpt><trkpt lat="55.744246544227764" lon="52.454572061658304"><ele>109.0</ele><time>2026-04-24T12:59:53.999Z</time></trkpt><trkpt lat="55.74418429087107" lon="52.454396982460494"><ele>109.0</ele><time>2026-04-24T13:00:20Z</time></trkpt><trkpt lat="55.74423555464137" lon="52.45448939020273"><ele>109.00000000000001</ele><time>2026-04-24T13:00:34Z</time></trkpt><trkpt lat="55.744263233264654" lon="52.45460192307767"><ele>109.0</ele><time>2026-04-24T13:00:37Z</time></trkpt><trkpt lat="55.744363847624804" lon="52.45461382542547"><ele>109.00000000000001</ele><time>2026-04-24T13:05:06.999Z</time></trkpt><trkpt lat="55.74429005157839" lon="52.45461365195563"><ele>109.0</ele><time>2026-04-24T13:06:47Z</time></trkpt><trkpt lat="55.744231692953164" lon="52.454509435158904"><ele>109.0</ele><time>2026-04-24T13:06:50Z</time></trkpt><trkpt lat="55.744187169876696" lon="52.45437631502543"><ele>109.0</ele><time>2026-04-24T13:06:52.999Z</time></trkpt><trkpt lat="55.74415702970566" lon="52.4542743630602"><ele>109.00000000000001</ele><time>2026-04-24T13:06:56.999Z</time></trkpt><trkpt lat="55.744101453561136" lon="52.4541756163974"><ele>109.0</ele><time>2026-04-24T13:06:59.999Z</time></trkpt><trkpt lat="55.74402794225682" lon="52.45412862045944"><ele>109.0</ele><time>2026-04-24T13:07:02.999Z</time></trkpt><trkpt lat="55.74395303833748" lon="52.454069103627226"><ele>109.0</ele><time>2026-04-24T13:07:05.999Z</time></trkpt><trkpt lat="55.743909907452114" lon="52.45397755602439"><ele>109.0</ele><time>2026-04-24T13:07:07.999Z</time></trkpt><trkpt lat="55.74386075037686" lon="52.45389480392901"><ele>109.0</ele><time>2026-04-24T13:07:09.999Z</time></trkpt><trkpt lat="55.74380704212495" lon="52.4537850289155"><ele>109.0</ele><time>2026-04-24T13:07:12.999Z</time></trkpt><trkpt lat="55.74376009311467" lon="52.453698999283056"><ele>109.0</ele><time>2026-04-24T13:07:15.999Z</time></trkpt><trkpt lat="55.743702906118806" lon="52.453594516109135"><ele>109.0</ele><time>2026-04-24T13:07:18.999Z</time></trkpt><trkpt lat="55.74365732588983" lon="52.453462507938816"><ele>109.00000000000001</ele><time>2026-04-24T13:07:21.999Z</time></trkpt><trkpt lat="55.7436396575649" lon="52.45329908522207"><ele>109.0</ele><time>2026-04-24T13:07:24.999Z</time></trkpt><trkpt lat="55.743656622573376" lon="52.45312975580351"><ele>109.0</ele><time>2026-04-24T13:07:27.999Z</time></trkpt><trkpt lat="55.74368494904512" lon="52.45302120201127"><ele>109.0</ele><time>2026-04-24T13:07:29.999Z</time></trkpt><trkpt lat="55.743724654901825" lon="52.45291937404836"><ele>109.00000000000001</ele><time>2026-04-24T13:07:31.999Z</time></trkpt><trkpt lat="55.743780978122594" lon="52.45283785373212"><ele>109.0</ele><time>2026-04-24T13:07:33.999Z</time></trkpt><trkpt lat="55.7438342656798" lon="52.452740630098084"><ele>108.83333333333334</ele><time>2026-04-24T13:07:35.999Z</time></trkpt><trkpt lat="55.74388030948045" lon="52.45263953890082"><ele>108.66666666666667</ele><time>2026-04-24T13:07:37.999Z</time></trkpt><trkpt lat="55.743937632823965" lon="52.452550722410884"><ele>108.5</ele><time>2026-04-24T13:07:39.999Z</time></trkpt><trkpt lat="55.743994810921286" lon="52.45246042878993"><ele>108.33333333333334</ele><time>2026-04-24T13:07:41.999Z</time></trkpt><trkpt lat="55.744052037708805" lon="52.45236105923525"><ele>108.16666666666667</ele><time>2026-04-24T13:07:43.999Z</time></trkpt><trkpt lat="55.74411105308709" lon="52.4522600614285"><ele>108.0</ele><time>2026-04-24T13:07:45.999Z</time></trkpt><trkpt lat="55.7441684633419" lon="52.45215992651618"><ele>108.0</ele><time>2026-04-24T13:07:47.999Z</time></trkpt><trkpt lat="55.74422014975124" lon="52.45205701915098"><ele>108.0</ele><time>2026-04-24T13:07:49.999Z</time></trkpt><trkpt lat="55.744259676675995" lon="52.451961369093766"><ele>108.0</ele><time>2026-04-24T13:07:51.999Z</time></trkpt><trkpt lat="55.74429930451095" lon="52.451870250972945"><ele>108.0</ele><time>2026-04-24T13:07:53.999Z</time></trkpt><trkpt lat="55.74434571476878" lon="52.4517626386819"><ele>108.0</ele><time>2026-04-24T13:07:56.999Z</time></trkpt><trkpt lat="55.74431193554136" lon="52.45162842511512"><ele>108.0</ele><time>2026-04-24T13:08:00.999Z</time></trkpt><trkpt lat="55.74424396142392" lon="52.45154250591732"><ele>108.0</ele><time>2026-04-24T13:08:03.999Z</time></trkpt><trkpt lat="55.74419052333372" lon="52.45146125011894"><ele>108.0</ele><time>2026-04-24T13:08:05.999Z</time></trkpt><trkpt lat="55.74413822905032" lon="52.45136947239808"><ele>108.0</ele><time>2026-04-24T13:08:07.999Z</time></trkpt><trkpt lat="55.74408831716745" lon="52.45128056795136"><ele>108.0</ele><time>2026-04-24T13:08:09.999Z</time></trkpt><trkpt lat="55.744037226155726" lon="52.45118162889054"><ele>108.0</ele><time>2026-04-24T13:08:11.998Z</time></trkpt><trkpt lat="55.743994734166876" lon="52.45109190586889"><ele>108.0</ele><time>2026-04-24T13:08:13.998Z</time></trkpt><trkpt lat="55.743919290577075" lon="52.45100237481295"><ele>108.0</ele><time>2026-04-24T13:08:16.998Z</time></trkpt><trkpt lat="55.74387359291024" lon="52.45091385614147"><ele>107.83333333333333</ele><time>2026-04-24T13:08:18.998Z</time></trkpt><trkpt lat="55.743831007755915" lon="52.4508222332698"><ele>107.66666666666666</ele><time>2026-04-24T13:08:20.998Z</time></trkpt><trkpt lat="55.743775282434314" lon="52.45072995074922"><ele>107.5</ele><time>2026-04-24T13:08:22.998Z</time></trkpt><trkpt lat="55.74372406820265" lon="52.450632402626155"><ele>107.33333333333333</ele><time>2026-04-24T13:08:24.998Z</time></trkpt><trkpt lat="55.74367099815503" lon="52.450531501222756"><ele>107.16666666666666</ele><time>2026-04-24T13:08:26.998Z</time></trkpt><trkpt lat="55.7436151713079" lon="52.450450640809066"><ele>107.0</ele><time>2026-04-24T13:08:29Z</time></trkpt><trkpt lat="55.74355012469552" lon="52.450333706865905"><ele>106.99999999999999</ele><time>2026-04-24T13:08:32Z</time></trkpt><trkpt lat="55.74350241556172" lon="52.450207997030034"><ele>107.0</ele><time>2026-04-24T13:08:35Z</time></trkpt><trkpt lat="55.74356706500888" lon="52.45008131543733"><ele>107.0</ele><time>2026-04-24T13:08:38Z</time></trkpt><trkpt lat="55.74361201097753" lon="52.44999855699005"><ele>107.0</ele><time>2026-04-24T13:08:40Z</time></trkpt><trkpt lat="55.74365417561373" lon="52.449901637992525"><ele>106.99999999999999</ele><time>2026-04-24T13:08:42Z</time></trkpt><trkpt lat="55.743704458707214" lon="52.44981258891018"><ele>107.0</ele><time>2026-04-24T13:08:44Z</time></trkpt><trkpt lat="55.743758318324836" lon="52.449731264921326"><ele>106.99999999999999</ele><time>2026-04-24T13:08:46Z</time></trkpt><trkpt lat="55.74380666609872" lon="52.44964100886843"><ele>107.0</ele><time>2026-04-24T13:08:48Z</time></trkpt><trkpt lat="55.743858489285486" lon="52.44955335189567"><ele>107.0</ele><time>2026-04-24T13:08:50Z</time></trkpt><trkpt lat="55.74391026423074" lon="52.44946209788551"><ele>107.0</ele><time>2026-04-24T13:08:52Z</time></trkpt><trkpt lat="55.74396730752859" lon="52.44936849291623"><ele>106.99999999999999</ele><time>2026-04-24T13:08:54Z</time></trkpt><trkpt lat="55.744027998507796" lon="52.44926491670527"><ele>107.0</ele><time>2026-04-24T13:08:56Z</time></trkpt><trkpt lat="55.74408477901024" lon="52.449158458813145"><ele>106.99999999999999</ele><time>2026-04-24T13:08:58Z</time></trkpt><trkpt lat="55.744145695498474" lon="52.44905909101359"><ele>107.0</ele><time>2026-04-24T13:09:00Z</time></trkpt><trkpt lat="55.7442057088677" lon="52.448962522084344"><ele>107.0</ele><time>2026-04-24T13:09:02Z</time></trkpt><trkpt lat="55.74426416677283" lon="52.448870997547274"><ele>107.0</ele><time>2026-04-24T13:09:04Z</time></trkpt><trkpt lat="55.74432165669255" lon="52.44878523647462"><ele>106.99999999999999</ele><time>2026-04-24T13:09:06Z</time></trkpt><trkpt lat="55.74437886391107" lon="52.44870367654381"><ele>107.0</ele><time>2026-04-24T13:09:08Z</time></trkpt><trkpt lat="55.744432997381956" lon="52.448604700287476"><ele>107.16666666666666</ele><time>2026-04-24T13:09:10Z</time></trkpt><trkpt lat="55.74448626696217" lon="52.44851024308265"><ele>107.33333333333333</ele><time>2026-04-24T13:09:12Z</time></trkpt><trkpt lat="55.74453973908423" lon="52.44841866317394"><ele>107.5</ele><time>2026-04-24T13:09:13.999Z</time></trkpt><trkpt lat="55.74459340294226" lon="52.44831951180659"><ele>107.66666666666666</ele><time>2026-04-24T13:09:15.999Z</time></trkpt><trkpt lat="55.74465311126433" lon="52.448221069864914"><ele>107.83333333333333</ele><time>2026-04-24T13:09:17.999Z</time></trkpt><trkpt lat="55.74471007845912" lon="52.44812522887261"><ele>108.0</ele><time>2026-04-24T13:09:19.999Z</time></trkpt><trkpt lat="55.744765298062234" lon="52.44802943514306"><ele>108.14285714285714</ele><time>2026-04-24T13:09:21.999Z</time></trkpt><trkpt lat="55.744820807183544" lon="52.44793750485101"><ele>108.28571428571428</ele><time>2026-04-24T13:09:23.999Z</time></trkpt><trkpt lat="55.74487185186532" lon="52.447845373938705"><ele>108.42857142857143</ele><time>2026-04-24T13:09:25.999Z</time></trkpt><trkpt lat="55.74492391333441" lon="52.44776178023472"><ele>108.57142857142857</ele><time>2026-04-24T13:09:27.999Z</time></trkpt><trkpt lat="55.744970157171345" lon="52.44766660533173"><ele>108.71428571428572</ele><time>2026-04-24T13:09:29.999Z</time></trkpt><trkpt lat="55.74502331541844" lon="52.447592433087195"><ele>108.85714285714286</ele><time>2026-04-24T13:09:31.999Z</time></trkpt><trkpt lat="55.74507030826811" lon="52.44751032404113"><ele>109.0</ele><time>2026-04-24T13:09:33.999Z</time></trkpt><trkpt lat="55.745134394666565" lon="52.44739792658632"><ele>109.00000000000001</ele><time>2026-04-24T13:09:36.999Z</time></trkpt><trkpt lat="55.7451717813701" lon="52.44730134847989"><ele>109.0</ele><time>2026-04-24T13:09:38.999Z</time></trkpt><trkpt lat="55.74518399497817" lon="52.447187650329994"><ele>109.0</ele><time>2026-04-24T13:09:40.999Z</time></trkpt><trkpt lat="55.74519906209068" lon="52.44702691269723"><ele>109.0</ele><time>2026-04-24T13:09:43.999Z</time></trkpt><trkpt lat="55.7452080777503" lon="52.44687601408152"><ele>109.00000000000001</ele><time>2026-04-24T13:09:46.999Z</time></trkpt><trkpt lat="55.745230152263765" lon="52.44673298652032"><ele>109.0</ele><time>2026-04-24T13:09:49.999Z</time></trkpt><trkpt lat="55.74525059443375" lon="52.44657859791054"><ele>109.00000000000001</ele><time>2026-04-24T13:09:52.999Z</time></trkpt><trkpt lat="55.74525818152392" lon="52.446455502389"><ele>109.0</ele><time>2026-04-24T13:09:55.999Z</time></trkpt><trkpt lat="55.74525860410157" lon="52.446311223748346"><ele>109.0</ele><time>2026-04-24T13:09:59.999Z</time></trkpt><trkpt lat="55.74527340880037" lon="52.44615707192151"><ele>109.0</ele><time>2026-04-24T13:10:02.999Z</time></trkpt><trkpt lat="55.745277618016665" lon="52.44602643743577"><ele>109.00000000000001</ele><time>2026-04-24T13:10:05.999Z</time></trkpt><trkpt lat="55.745269917302984" lon="52.44588680840307"><ele>109.0</ele><time>2026-04-24T13:10:09.999Z</time></trkpt><trkpt lat="55.74524199589727" lon="52.44575325116898"><ele>109.00000000000001</ele><time>2026-04-24T13:10:13.999Z</time></trkpt><trkpt lat="55.74529455524309" lon="52.44563336925156"><ele>109.0</ele><time>2026-04-24T13:10:16.999Z</time></trkpt><trkpt lat="55.745357523534075" lon="52.44554906255349"><ele>109.0</ele><time>2026-04-24T13:10:18.999Z</time></trkpt><trkpt lat="55.74541085846069" lon="52.445432091662035"><ele>109.0</ele><time>2026-04-24T13:10:20.999Z</time></trkpt><trkpt lat="55.7454777031565" lon="52.4453192369207"><ele>109.00000000000001</ele><time>2026-04-24T13:10:22.999Z</time></trkpt><trkpt lat="55.745541869666674" lon="52.44521510760966"><ele>109.0</ele><time>2026-04-24T13:10:24.999Z</time></trkpt><trkpt lat="55.74559303226907" lon="52.44512635164246"><ele>109.16666666666667</ele><time>2026-04-24T13:10:26.999Z</time></trkpt><trkpt lat="55.74558880550737" lon="52.445007655033265"><ele>109.33333333333334</ele><time>2026-04-24T13:10:29.999Z</time></trkpt><trkpt lat="55.7455018276583" lon="52.444908906706125"><ele>109.5</ele><time>2026-04-24T13:10:35Z</time></trkpt><trkpt lat="55.74544166609698" lon="52.44478340292197"><ele>109.66666666666666</ele><time>2026-04-24T13:10:38Z</time></trkpt><trkpt lat="55.74538509105301" lon="52.44467060089042"><ele>109.83333333333333</ele><time>2026-04-24T13:10:41Z</time></trkpt><trkpt lat="55.74533923858209" lon="52.44458280527115"><ele>110.0</ele><time>2026-04-24T13:10:43Z</time></trkpt><trkpt lat="55.74529343109283" lon="52.44448143322975"><ele>110.16666666666666</ele><time>2026-04-24T13:10:46Z</time></trkpt><trkpt lat="55.745266868405345" lon="52.444370183341015"><ele>110.33333333333333</ele><time>2026-04-24T13:10:49Z</time></trkpt><trkpt lat="55.74522338093731" lon="52.44426128945666"><ele>110.5</ele><time>2026-04-24T13:10:53Z</time></trkpt><trkpt lat="55.74515464200197" lon="52.44412377747347"><ele>110.66666666666666</ele><time>2026-04-24T13:10:56Z</time></trkpt><trkpt lat="55.74510326126299" lon="52.444021642358756"><ele>110.83333333333333</ele><time>2026-04-24T13:10:58Z</time></trkpt><trkpt lat="55.745054958440065" lon="52.44394892897459"><ele>111.0</ele><time>2026-04-24T13:11:01Z</time></trkpt><trkpt lat="55.74500745720298" lon="52.44386317853204"><ele>110.85714285714285</ele><time>2026-04-24T13:11:04Z</time></trkpt><trkpt lat="55.74496446681664" lon="52.44377686296264"><ele>110.71428571428572</ele><time>2026-04-24T13:11:07Z</time></trkpt><trkpt lat="55.74489422090393" lon="52.443720828677506"><ele>110.57142857142857</ele><time>2026-04-24T13:11:10Z</time></trkpt><trkpt lat="55.744843793925746" lon="52.44360694489349"><ele>110.42857142857142</ele><time>2026-04-24T13:11:13Z</time></trkpt><trkpt lat="55.74484547070476" lon="52.443487018751526"><ele>110.28571428571428</ele><time>2026-04-24T13:11:15Z</time></trkpt><trkpt lat="55.74478699111905" lon="52.44340874195673"><ele>110.14285714285714</ele><time>2026-04-24T13:11:17Z</time></trkpt><trkpt lat="55.74473073583194" lon="52.44331638984403"><ele>110.0</ele><time>2026-04-24T13:11:20Z</time></trkpt><trkpt lat="55.74468639347145" lon="52.44322366018258"><ele>109.99999999999999</ele><time>2026-04-24T13:11:23Z</time></trkpt><trkpt lat="55.74466747832684" lon="52.4431158323377"><ele>110.0</ele><time>2026-04-24T13:11:29.999Z</time></trkpt><trkpt lat="55.74461102810264" lon="52.44302642911877"><ele>110.0</ele><time>2026-04-24T13:11:41.999Z</time></trkpt><trkpt lat="55.74455541915612" lon="52.44292600175581"><ele>110.0</ele><time>2026-04-24T13:11:44.999Z</time></trkpt><trkpt lat="55.744503114154945" lon="52.44282070367197"><ele>110.0</ele><time>2026-04-24T13:11:47.999Z</time></trkpt><trkpt lat="55.744460012482946" lon="52.442724720879454"><ele>109.99999999999999</ele><time>2026-04-24T13:11:50.999Z</time></trkpt><trkpt lat="55.744392978715325" lon="52.44271910582658"><ele>110.0</ele><time>2026-04-24T13:11:53.999Z</time></trkpt><trkpt lat="55.744334122228146" lon="52.442607624314356"><ele>109.99999999999999</ele><time>2026-04-24T13:11:57.999Z</time></trkpt><trkpt lat="55.74427518440882" lon="52.44250635507274"><ele>110.0</ele><time>2026-04-24T13:12:00.999Z</time></trkpt><trkpt lat="55.744216721743236" lon="52.4424123074225"><ele>110.0</ele><time>2026-04-24T13:12:03.999Z</time></trkpt><trkpt lat="55.74416578341669" lon="52.44234332519439"><ele>110.0</ele><time>2026-04-24T13:12:06.999Z</time></trkpt><trkpt lat="55.74411176351822" lon="52.442240296390466"><ele>109.99999999999999</ele><time>2026-04-24T13:12:09.999Z</time></trkpt><trkpt lat="55.74405609520942" lon="52.442083705031386"><ele>110.0</ele><time>2026-04-24T13:12:12.999Z</time></trkpt><trkpt lat="55.74399269984647" lon="52.44196888001321"><ele>110.14285714285714</ele><time>2026-04-24T13:12:14.999Z</time></trkpt><trkpt lat="55.743937192728716" lon="52.44189605737336"><ele>110.28571428571428</ele><time>2026-04-24T13:12:16.999Z</time></trkpt><trkpt lat="55.74387718328342" lon="52.44183099417064"><ele>110.42857142857142</ele><time>2026-04-24T13:12:18.999Z</time></trkpt><trkpt lat="55.743834850343895" lon="52.44173172180627"><ele>110.57142857142857</ele><time>2026-04-24T13:12:20.999Z</time></trkpt><trkpt lat="55.74376975915797" lon="52.44160722457591"><ele>110.71428571428572</ele><time>2026-04-24T13:12:23.999Z</time></trkpt><trkpt lat="55.743724766363954" lon="52.44151753598096"><ele>110.85714285714285</ele><time>2026-04-24T13:12:25.999Z</time></trkpt><trkpt lat="55.743682484674835" lon="52.441425542585876"><ele>111.0</ele><time>2026-04-24T13:12:27.999Z</time></trkpt><trkpt lat="55.743619159900156" lon="52.4412980614548"><ele>111.0</ele><time>2026-04-24T13:12:30.999Z</time></trkpt><trkpt lat="55.743570485949014" lon="52.44121468573279"><ele>111.0</ele><time>2026-04-24T13:12:32.999Z</time></trkpt><trkpt lat="55.743523178356476" lon="52.44113011628368"><ele>111.0</ele><time>2026-04-24T13:12:34.999Z</time></trkpt><trkpt lat="55.74347685329302" lon="52.44102972813569"><ele>111.0</ele><time>2026-04-24T13:12:36.999Z</time></trkpt><trkpt lat="55.74342578306023" lon="52.44094580027438"><ele>111.0</ele><time>2026-04-24T13:12:39Z</time></trkpt><trkpt lat="55.74337926557465" lon="52.4408655160943"><ele>111.0</ele><time>2026-04-24T13:12:41Z</time></trkpt><trkpt lat="55.74331781672457" lon="52.44075325241223"><ele>111.0</ele><time>2026-04-24T13:12:44Z</time></trkpt><trkpt lat="55.74326068559722" lon="52.4406584988412"><ele>111.0</ele><time>2026-04-24T13:12:47Z</time></trkpt><trkpt lat="55.74320701222897" lon="52.440545280855844"><ele>111.0</ele><time>2026-04-24T13:12:50Z</time></trkpt><trkpt lat="55.743149599386015" lon="52.44044968909611"><ele>111.0</ele><time>2026-04-24T13:12:53Z</time></trkpt><trkpt lat="55.74309480814953" lon="52.4403445626983"><ele>111.0</ele><time>2026-04-24T13:12:57Z</time></trkpt><trkpt lat="55.74304497108138" lon="52.44025635799663"><ele>111.0</ele><time>2026-04-24T13:13:00Z</time></trkpt><trkpt lat="55.74299396713845" lon="52.44016879976174"><ele>111.0</ele><time>2026-04-24T13:13:03Z</time></trkpt><trkpt lat="55.74293765730178" lon="52.44008467095912"><ele>111.33333333333333</ele><time>2026-04-24T13:13:06Z</time></trkpt><trkpt lat="55.742876381347784" lon="52.43997767706208"><ele>111.66666666666666</ele><time>2026-04-24T13:13:08Z</time></trkpt><trkpt lat="55.742828258592176" lon="52.43988647725633"><ele>112.0</ele><time>2026-04-24T13:13:10Z</time></trkpt><trkpt lat="55.74280485624424" lon="52.43978140714152"><ele>112.33333333333333</ele><time>2026-04-24T13:13:11Z</time></trkpt><trkpt lat="55.74273484795941" lon="52.439659701932676"><ele>112.66666666666666</ele><time>2026-04-24T13:13:14Z</time></trkpt><trkpt lat="55.74269224841759" lon="52.43957145908395"><ele>113.0</ele><time>2026-04-24T13:13:16Z</time></trkpt><trkpt lat="55.74263416526143" lon="52.43945702617113"><ele>112.99999999999999</ele><time>2026-04-24T13:13:19Z</time></trkpt><trkpt lat="55.74257921420858" lon="52.43935945142145"><ele>113.0</ele><time>2026-04-24T13:13:22Z</time></trkpt><trkpt lat="55.742523942234065" lon="52.43924946052887"><ele>113.0</ele><time>2026-04-24T13:13:25Z</time></trkpt><trkpt lat="55.7424592860342" lon="52.439194909624774"><ele>113.0</ele><time>2026-04-24T13:13:27Z</time></trkpt><trkpt lat="55.7424393520108" lon="52.43904749248032"><ele>112.99999999999999</ele><time>2026-04-24T13:13:30Z</time></trkpt><trkpt lat="55.74244118713457" lon="52.43889557287344"><ele>113.0</ele><time>2026-04-24T13:13:33Z</time></trkpt><trkpt lat="55.742479307402036" lon="52.43875621847314"><ele>113.14285714285714</ele><time>2026-04-24T13:13:36Z</time></trkpt><trkpt lat="55.74253112310416" lon="52.43868733461119"><ele>113.28571428571428</ele><time>2026-04-24T13:13:38Z</time></trkpt><trkpt lat="55.7425937049604" lon="52.43864102588065"><ele>113.42857142857142</ele><time>2026-04-24T13:13:40Z</time></trkpt><trkpt lat="55.74263576008587" lon="52.43853049864768"><ele>113.57142857142857</ele><time>2026-04-24T13:13:43Z</time></trkpt><trkpt lat="55.74271371631715" lon="52.438432039606845"><ele>113.7142857142857</ele><time>2026-04-24T13:13:46Z</time></trkpt><trkpt lat="55.74276327138526" lon="52.438350416721526"><ele>113.85714285714285</ele><time>2026-04-24T13:13:47.999Z</time></trkpt><trkpt lat="55.74281589549171" lon="52.438271194371495"><ele>114.0</ele><time>2026-04-24T13:13:49.999Z</time></trkpt><trkpt lat="55.74286431751021" lon="52.438180620439155"><ele>114.0</ele><time>2026-04-24T13:13:52.999Z</time></trkpt><trkpt lat="55.74293744947094" lon="52.43805387585089"><ele>114.0</ele><time>2026-04-24T13:13:54.999Z</time></trkpt><trkpt lat="55.74299145091468" lon="52.437965808395695"><ele>114.0</ele><time>2026-04-24T13:13:56.999Z</time></trkpt><trkpt lat="55.743062517302164" lon="52.43786543199795"><ele>114.0</ele><time>2026-04-24T13:13:59.999Z</time></trkpt><trkpt lat="55.74311684665105" lon="52.43774277384867"><ele>114.0</ele><time>2026-04-24T13:14:02.999Z</time></trkpt><trkpt lat="55.74316885552866" lon="52.437660404408284"><ele>114.0</ele><time>2026-04-24T13:14:04.999Z</time></trkpt><trkpt lat="55.74323314013946" lon="52.43756006246044"><ele>114.0</ele><time>2026-04-24T13:14:07.999Z</time></trkpt><trkpt lat="55.74328511990569" lon="52.43745802154327"><ele>114.0</ele><time>2026-04-24T13:14:10.999Z</time></trkpt><trkpt lat="55.74334796357057" lon="52.43739546344459"><ele>114.0</ele><time>2026-04-24T13:14:13.999Z</time></trkpt><trkpt lat="55.743372557022" lon="52.43726694221225"><ele>114.0</ele><time>2026-04-24T13:14:16.999Z</time></trkpt><trkpt lat="55.74341010150169" lon="52.437137218802185"><ele>114.0</ele><time>2026-04-24T13:14:19.999Z</time></trkpt><trkpt lat="55.743458776693615" lon="52.43705400780787"><ele>114.0</ele><time>2026-04-24T13:14:21.999Z</time></trkpt><trkpt lat="55.74350089774544" lon="52.43694272470022"><ele>113.83333333333333</ele><time>2026-04-24T13:14:23.999Z</time></trkpt><trkpt lat="55.74356326259319" lon="52.43683717942999"><ele>113.66666666666666</ele><time>2026-04-24T13:14:26.999Z</time></trkpt><trkpt lat="55.743632956346836" lon="52.43674218652482"><ele>113.5</ele><time>2026-04-24T13:14:29.999Z</time></trkpt><trkpt lat="55.74368914514714" lon="52.436643551826975"><ele>113.33333333333333</ele><time>2026-04-24T13:14:32.999Z</time></trkpt><trkpt lat="55.7437270379113" lon="52.43654511296013"><ele>113.16666666666666</ele><time>2026-04-24T13:14:35.999Z</time></trkpt><trkpt lat="55.74378925092073" lon="52.43644247808622"><ele>113.0</ele><time>2026-04-24T13:14:38.999Z</time></trkpt><trkpt lat="55.743855806155274" lon="52.436321021880445"><ele>112.85714285714286</ele><time>2026-04-24T13:14:40.999Z</time></trkpt><trkpt lat="55.74388206731235" lon="52.43620629804525"><ele>112.71428571428571</ele><time>2026-04-24T13:14:43.999Z</time></trkpt><trkpt lat="55.7438709675708" lon="52.43607124904762"><ele>112.57142857142857</ele><time>2026-04-24T13:14:47Z</time></trkpt><trkpt lat="55.743874622476106" lon="52.435946501533486"><ele>112.42857142857143</ele><time>2026-04-24T13:14:50Z</time></trkpt><trkpt lat="55.743911870527214" lon="52.43585042051207"><ele>112.28571428571428</ele><time>2026-04-24T13:14:53Z</time></trkpt><trkpt lat="55.743870809977295" lon="52.435739236414676"><ele>112.14285714285714</ele><time>2026-04-24T13:14:56Z</time></trkpt><trkpt lat="55.743847737013944" lon="52.435634597923325"><ele>112.0</ele><time>2026-04-24T13:15:02Z</time></trkpt><trkpt lat="55.743803666537275" lon="52.43553084086651"><ele>112.16666666666667</ele><time>2026-04-24T13:15:05Z</time></trkpt><trkpt lat="55.74381125567868" lon="52.435414444846224"><ele>112.33333333333334</ele><time>2026-04-24T13:15:09Z</time></trkpt><trkpt lat="55.74386090894695" lon="52.4352939399672"><ele>112.5</ele><time>2026-04-24T13:15:12Z</time></trkpt><trkpt lat="55.74387176256692" lon="52.43518243945405"><ele>112.66666666666666</ele><time>2026-04-24T13:15:14Z</time></trkpt><trkpt lat="55.74382028009469" lon="52.435073623487696"><ele>112.83333333333333</ele><time>2026-04-24T13:15:16Z</time></trkpt><trkpt lat="55.743741983644576" lon="52.43497211053815"><ele>113.0</ele><time>2026-04-24T13:15:18Z</time></trkpt><trkpt lat="55.74368942432675" lon="52.434885911488564"><ele>112.99999999999999</ele><time>2026-04-24T13:15:20Z</time></trkpt><trkpt lat="55.74364081572126" lon="52.43480993920188"><ele>113.0</ele><time>2026-04-24T13:15:22Z</time></trkpt><trkpt lat="55.743585129110485" lon="52.434694250746716"><ele>113.0</ele><time>2026-04-24T13:15:25Z</time></trkpt><trkpt lat="55.74360868544773" lon="52.434545879983276"><ele>113.0</ele><time>2026-04-24T13:15:28Z</time></trkpt><trkpt lat="55.74366226339199" lon="52.43443378095171"><ele>112.99999999999999</ele><time>2026-04-24T13:15:30Z</time></trkpt><trkpt lat="55.743712332975264" lon="52.434342235099564"><ele>113.0</ele><time>2026-04-24T13:15:32Z</time></trkpt><trkpt lat="55.74375665017091" lon="52.43424714496334"><ele>112.99999999999999</ele><time>2026-04-24T13:15:34Z</time></trkpt><trkpt lat="55.74374741800811" lon="52.434092468189576"><ele>113.0</ele><time>2026-04-24T13:15:37Z</time></trkpt><trkpt lat="55.743688207526965" lon="52.433997339252656"><ele>113.0</ele><time>2026-04-24T13:15:40Z</time></trkpt><trkpt lat="55.743637539657335" lon="52.43388670443041"><ele>113.0</ele><time>2026-04-24T13:15:44Z</time></trkpt><trkpt lat="55.743583813109495" lon="52.43382638995156"><ele>112.99999999999999</ele><time>2026-04-24T13:15:48Z</time></trkpt><trkpt lat="55.74360634638818" lon="52.43370109970677"><ele>113.0</ele><time>2026-04-24T13:15:52Z</time></trkpt><trkpt lat="55.743677069853824" lon="52.433630656076026"><ele>112.99999999999999</ele><time>2026-04-24T13:15:55Z</time></trkpt><trkpt lat="55.743722118151304" lon="52.43353519639699"><ele>113.0</ele><time>2026-04-24T13:15:58Z</time></trkpt><trkpt lat="55.74366445483968" lon="52.43342874242542"><ele>113.0</ele><time>2026-04-24T13:16:01.999Z</time></trkpt><trkpt lat="55.743648318195355" lon="52.43329564989386"><ele>113.0</ele><time>2026-04-24T13:16:04.999Z</time></trkpt><trkpt lat="55.74370591826298" lon="52.433191643051785"><ele>112.99999999999999</ele><time>2026-04-24T13:16:08.999Z</time></trkpt><trkpt lat="55.74375876756012" lon="52.43308324602069"><ele>113.0</ele><time>2026-04-24T13:16:11.999Z</time></trkpt><trkpt lat="55.74381548537629" lon="52.43295897371572"><ele>113.16666666666666</ele><time>2026-04-24T13:16:14.999Z</time></trkpt><trkpt lat="55.74376920082767" lon="52.432715925825725"><ele>113.33333333333333</ele><time>2026-04-24T13:16:16.999Z</time></trkpt><trkpt lat="55.743825460277414" lon="52.43277574658561"><ele>113.5</ele><time>2026-04-24T13:16:22.999Z</time></trkpt><trkpt lat="55.74376942773087" lon="52.43267554940964"><ele>113.66666666666666</ele><time>2026-04-24T13:16:30.999Z</time></trkpt><trkpt lat="55.74370051183196" lon="52.43259434814027"><ele>113.83333333333333</ele><time>2026-04-24T13:16:34.999Z</time></trkpt><trkpt lat="55.743644433583974" lon="52.43251105293999"><ele>114.0</ele><time>2026-04-24T13:16:37.999Z</time></trkpt><trkpt lat="55.743574944490476" lon="52.43239537094161"><ele>114.0</ele><time>2026-04-24T13:16:40.999Z</time></trkpt><trkpt lat="55.743505632538366" lon="52.43228241608856"><ele>114.0</ele><time>2026-04-24T13:16:43.999Z</time></trkpt><trkpt lat="55.74342292592242" lon="52.432218119360826"><ele>114.0</ele><time>2026-04-24T13:16:45.999Z</time></trkpt><trkpt lat="55.743358584331325" lon="52.432101840056205"><ele>114.0</ele><time>2026-04-24T13:16:48.999Z</time></trkpt><trkpt lat="55.743299504967375" lon="52.432038753558764"><ele>114.0</ele><time>2026-04-24T13:16:51Z</time></trkpt><trkpt lat="55.74325807386328" lon="52.43194870565875"><ele>114.0</ele><time>2026-04-24T13:16:53Z</time></trkpt><trkpt lat="55.74321158481506" lon="52.43186082818284"><ele>114.0</ele><time>2026-04-24T13:16:55Z</time></trkpt><trkpt lat="55.74316716304205" lon="52.43176501005697"><ele>113.99999999999999</ele><time>2026-04-24T13:16:57Z</time></trkpt><trkpt lat="55.74312598988833" lon="52.431671840352465"><ele>114.0</ele><time>2026-04-24T13:16:59Z</time></trkpt><trkpt lat="55.74308196312042" lon="52.43158118701456"><ele>114.0</ele><time>2026-04-24T13:17:01Z</time></trkpt><trkpt lat="55.74303161732943" lon="52.43144661119965"><ele>113.99999999999999</ele><time>2026-04-24T13:17:04Z</time></trkpt><trkpt lat="55.74298004861537" lon="52.43137101338961"><ele>114.0</ele><time>2026-04-24T13:17:06Z</time></trkpt><trkpt lat="55.742924762780774" lon="52.43128815812269"><ele>114.0</ele><time>2026-04-24T13:17:09Z</time></trkpt><trkpt lat="55.7429149226893" lon="52.43112463079527"><ele>114.0</ele><time>2026-04-24T13:17:11Z</time></trkpt><trkpt lat="55.74284910161045" lon="52.43099834954704"><ele>114.0</ele><time>2026-04-24T13:17:14Z</time></trkpt><trkpt lat="55.742794672851446" lon="52.43092793251221"><ele>114.0</ele><time>2026-04-24T13:17:16Z</time></trkpt><trkpt lat="55.74272955180303" lon="52.43080656276221"><ele>114.0</ele><time>2026-04-24T13:17:19Z</time></trkpt><trkpt lat="55.742677682019455" lon="52.43067347970511"><ele>114.0</ele><time>2026-04-24T13:17:22Z</time></trkpt><trkpt lat="55.74262907380208" lon="52.43058856413348"><ele>114.0</ele><time>2026-04-24T13:17:24Z</time></trkpt><trkpt lat="55.74259740186437" lon="52.43046794664691"><ele>113.71428571428571</ele><time>2026-04-24T13:17:27Z</time></trkpt><trkpt lat="55.74256834535129" lon="52.43034890847921"><ele>113.42857142857142</ele><time>2026-04-24T13:17:31Z</time></trkpt><trkpt lat="55.74252545952686" lon="52.43026054402661"><ele>113.14285714285714</ele><time>2026-04-24T13:17:34Z</time></trkpt><trkpt lat="55.74246622623912" lon="52.430176734916856"><ele>112.85714285714286</ele><time>2026-04-24T13:17:37Z</time></trkpt><trkpt lat="55.742428370665294" lon="52.43007065325295"><ele>112.57142857142857</ele><time>2026-04-24T13:17:40Z</time></trkpt><trkpt lat="55.74238339743473" lon="52.429952878779616"><ele>112.28571428571428</ele><time>2026-04-24T13:17:46Z</time></trkpt><trkpt lat="55.74232439771964" lon="52.429868436285936"><ele>112.0</ele><time>2026-04-24T13:17:49Z</time></trkpt><trkpt lat="55.74231151349074" lon="52.42975666162326"><ele>112.0</ele><time>2026-04-24T13:17:51Z</time></trkpt><trkpt lat="55.7423910330186" lon="52.42971850916265"><ele>112.0</ele><time>2026-04-24T13:17:53Z</time></trkpt><trkpt lat="55.74244512574645" lon="52.42964529806111"><ele>112.0</ele><time>2026-04-24T13:17:55Z</time></trkpt><trkpt lat="55.74249190225984" lon="52.429564787637105"><ele>112.0</ele><time>2026-04-24T13:17:57Z</time></trkpt><trkpt lat="55.74254004682557" lon="52.42947599120771"><ele>112.0</ele><time>2026-04-24T13:17:59Z</time></trkpt><trkpt lat="55.74258973333516" lon="52.429386173587034"><ele>112.0</ele><time>2026-04-24T13:18:01Z</time></trkpt><trkpt lat="55.74263877851122" lon="52.429298402981175"><ele>112.0</ele><time>2026-04-24T13:18:03Z</time></trkpt><trkpt lat="55.74269301175973" lon="52.42922143605783"><ele>112.66666666666667</ele><time>2026-04-24T13:18:05Z</time></trkpt><trkpt lat="55.74274348120443" lon="52.42914076394182"><ele>113.33333333333334</ele><time>2026-04-24T13:18:07Z</time></trkpt><trkpt lat="55.74278826004092" lon="52.42905493591824"><ele>114.0</ele><time>2026-04-24T13:18:09Z</time></trkpt><trkpt lat="55.74283885623422" lon="52.42896691998201"><ele>114.66666666666666</ele><time>2026-04-24T13:18:11Z</time></trkpt><trkpt lat="55.74288691106208" lon="52.428884165982126"><ele>115.33333333333333</ele><time>2026-04-24T13:18:13Z</time></trkpt><trkpt lat="55.74295420857034" lon="52.42876648338476"><ele>116.0</ele><time>2026-04-24T13:18:16Z</time></trkpt><trkpt lat="55.74301291608583" lon="52.42864957516503"><ele>116.0</ele><time>2026-04-24T13:18:18.999Z</time></trkpt><trkpt lat="55.743071467787416" lon="52.42856191007356"><ele>116.0</ele><time>2026-04-24T13:18:21.999Z</time></trkpt><trkpt lat="55.743117737992144" lon="52.42848506524194"><ele>116.0</ele><time>2026-04-24T13:18:31.998Z</time></trkpt><trkpt lat="55.742857921532355" lon="52.42784149036221"><ele>115.99999999999999</ele><time>2026-04-24T13:19:18.998Z</time></trkpt><trkpt lat="55.74280453897808" lon="52.42794451713094"><ele>116.0</ele><time>2026-04-24T13:19:20.998Z</time></trkpt><trkpt lat="55.74274407584665" lon="52.42798029812534"><ele>116.0</ele><time>2026-04-24T13:19:28Z</time></trkpt><trkpt lat="55.74277502497069" lon="52.42787340988503"><ele>116.0</ele><time>2026-04-24T13:19:46Z</time></trkpt><trkpt lat="55.7428361652756" lon="52.4277650746738"><ele>115.99999999999999</ele><time>2026-04-24T13:19:50.999Z</time></trkpt><trkpt lat="55.74288687150075" lon="52.42765627399334"><ele>116.0</ele><time>2026-04-24T13:19:53.999Z</time></trkpt><trkpt lat="55.74294196833231" lon="52.42756151633771"><ele>115.85714285714288</ele><time>2026-04-24T13:19:56.999Z</time></trkpt><trkpt lat="55.74298433401605" lon="52.42745804644779"><ele>115.71428571428572</ele><time>2026-04-24T13:19:59.999Z</time></trkpt><trkpt lat="55.74296974154971" lon="52.42733426146227"><ele>115.57142857142857</ele><time>2026-04-24T13:20:02.999Z</time></trkpt><trkpt lat="55.742973997260016" lon="52.427187994167994"><ele>115.42857142857143</ele><time>2026-04-24T13:20:06.999Z</time></trkpt><trkpt lat="55.74295204961885" lon="52.427077012564766"><ele>115.28571428571428</ele><time>2026-04-24T13:20:10.999Z</time></trkpt><trkpt lat="55.74301035805554" lon="52.426971798667864"><ele>115.14285714285712</ele><time>2026-04-24T13:20:14.999Z</time></trkpt><trkpt lat="55.74305596062349" lon="52.42687960763996"><ele>114.99999999999999</ele><time>2026-04-24T13:20:17.999Z</time></trkpt><trkpt lat="55.74311528278111" lon="52.42678832818253"><ele>115.33333333333334</ele><time>2026-04-24T13:20:20.999Z</time></trkpt><trkpt lat="55.74316354675288" lon="52.426709061607056"><ele>115.66666666666667</ele><time>2026-04-24T13:20:22.999Z</time></trkpt><trkpt lat="55.743229628461826" lon="52.42659846422957"><ele>116.0</ele><time>2026-04-24T13:20:25.999Z</time></trkpt><trkpt lat="55.74329161395762" lon="52.42648572180285"><ele>116.33333333333334</ele><time>2026-04-24T13:20:28.999Z</time></trkpt><trkpt lat="55.74335717260644" lon="52.426370496636025"><ele>116.66666666666667</ele><time>2026-04-24T13:20:31.999Z</time></trkpt><trkpt lat="55.74340230207779" lon="52.426264818062236"><ele>117.0</ele><time>2026-04-24T13:20:33.999Z</time></trkpt><trkpt lat="55.74347183604176" lon="52.426175676785"><ele>117.39999999999999</ele><time>2026-04-24T13:20:36.999Z</time></trkpt><trkpt lat="55.74353440981436" lon="52.426058935513936"><ele>117.79999999999998</ele><time>2026-04-24T13:20:39.999Z</time></trkpt><trkpt lat="55.743583686022404" lon="52.42593376918404"><ele>118.2</ele><time>2026-04-24T13:20:42.999Z</time></trkpt><trkpt lat="55.743653292581484" lon="52.42582158634694"><ele>118.6</ele><time>2026-04-24T13:20:45.999Z</time></trkpt><trkpt lat="55.74372233735016" lon="52.42570883977935"><ele>119.0</ele><time>2026-04-24T13:20:48.999Z</time></trkpt><trkpt lat="55.74379466092677" lon="52.42560270705418"><ele>118.49999999999999</ele><time>2026-04-24T13:20:51.999Z</time></trkpt><trkpt lat="55.74386107629777" lon="52.42548330258833"><ele>118.0</ele><time>2026-04-24T13:20:54.999Z</time></trkpt><trkpt lat="55.74392987470293" lon="52.425371327730154"><ele>117.5</ele><time>2026-04-24T13:20:57.999Z</time></trkpt><trkpt lat="55.743975356331994" lon="52.425292249385784"><ele>117.0</ele><time>2026-04-24T13:20:59.999Z</time></trkpt><trkpt lat="55.74403710381109" lon="52.42517905032695"><ele>116.49999999999999</ele><time>2026-04-24T13:21:02.999Z</time></trkpt><trkpt lat="55.744099218766074" lon="52.42507667959604"><ele>116.0</ele><time>2026-04-24T13:21:05.998Z</time></trkpt><trkpt lat="55.74416439665865" lon="52.42496280345984"><ele>116.00000000000001</ele><time>2026-04-24T13:21:08.998Z</time></trkpt><trkpt lat="55.744210024253036" lon="52.424883071688676"><ele>116.0</ele><time>2026-04-24T13:21:10.998Z</time></trkpt><trkpt lat="55.74425672313641" lon="52.42480272337922"><ele>116.00000000000001</ele><time>2026-04-24T13:21:12.998Z</time></trkpt><trkpt lat="55.74432867089275" lon="52.42469395510682"><ele>116.00000000000001</ele><time>2026-04-24T13:21:15.998Z</time></trkpt><trkpt lat="55.74437997023307" lon="52.42461735740341"><ele>116.0</ele><time>2026-04-24T13:21:17.998Z</time></trkpt><trkpt lat="55.74442141769084" lon="52.42453030442621"><ele>116.00000000000001</ele><time>2026-04-24T13:21:19.998Z</time></trkpt><trkpt lat="55.74446769251411" lon="52.424445996491315"><ele>116.00000000000001</ele><time>2026-04-24T13:21:21.998Z</time></trkpt><trkpt lat="55.744516442308466" lon="52.424364946175615"><ele>116.00000000000001</ele><time>2026-04-24T13:21:23.998Z</time></trkpt><trkpt lat="55.74456494182173" lon="52.42427656806794"><ele>116.0</ele><time>2026-04-24T13:21:25.998Z</time></trkpt><trkpt lat="55.74461215417785" lon="52.424188498408675"><ele>116.00000000000001</ele><time>2026-04-24T13:21:27.998Z</time></trkpt><trkpt lat="55.74466281500621" lon="52.424116194837566"><ele>116.00000000000001</ele><time>2026-04-24T13:21:29.998Z</time></trkpt><trkpt lat="55.7447058118748" lon="52.42403342395535"><ele>116.0</ele><time>2026-04-24T13:21:32Z</time></trkpt><trkpt lat="55.74475475855902" lon="52.42394481298591"><ele>116.00000000000001</ele><time>2026-04-24T13:21:34Z</time></trkpt><trkpt lat="55.74480618234103" lon="52.42385731366673"><ele>116.00000000000001</ele><time>2026-04-24T13:21:36Z</time></trkpt><trkpt lat="55.74485789158191" lon="52.42377306453879"><ele>116.00000000000001</ele><time>2026-04-24T13:21:38Z</time></trkpt><trkpt lat="55.74490979998394" lon="52.423684861832704"><ele>116.0</ele><time>2026-04-24T13:21:40Z</time></trkpt><trkpt lat="55.74495607252232" lon="52.42360013728407"><ele>116.00000000000001</ele><time>2026-04-24T13:21:42Z</time></trkpt><trkpt lat="55.745002783307946" lon="52.42351428609609"><ele>116.00000000000001</ele><time>2026-04-24T13:21:45Z</time></trkpt><trkpt lat="55.745058761887876" lon="52.42341495309992"><ele>116.0</ele><time>2026-04-24T13:21:49Z</time></trkpt><trkpt lat="55.745104762298496" lon="52.42330912977976"><ele>116.00000000000001</ele><time>2026-04-24T13:21:52Z</time></trkpt><trkpt lat="55.74514965727381" lon="52.42321026891813"><ele>116.00000000000001</ele><time>2026-04-24T13:21:55Z</time></trkpt><trkpt lat="55.74519085839629" lon="52.423092214576315"><ele>115.99999999999999</ele><time>2026-04-24T13:21:59Z</time></trkpt><trkpt lat="55.7452712377221" lon="52.42302478741991"><ele>116.0</ele><time>2026-04-24T13:22:02.999Z</time></trkpt><trkpt lat="55.7453363850091" lon="52.4229552744338"><ele>116.0</ele><time>2026-04-24T13:22:05.999Z</time></trkpt><trkpt lat="55.74527938628605" lon="52.42282707360441"><ele>116.0</ele><time>2026-04-24T13:22:08.999Z</time></trkpt><trkpt lat="55.74522347010464" lon="52.42273877906686"><ele>115.99999999999999</ele><time>2026-04-24T13:22:10.999Z</time></trkpt><trkpt lat="55.74516130509297" lon="52.422633223087274"><ele>116.0</ele><time>2026-04-24T13:22:12.999Z</time></trkpt><trkpt lat="55.74510096482297" lon="52.42252061756838"><ele>115.99999999999999</ele><time>2026-04-24T13:22:14.999Z</time></trkpt><trkpt lat="55.74504735815947" lon="52.422420958573845"><ele>116.0</ele><time>2026-04-24T13:22:16.999Z</time></trkpt><trkpt lat="55.74499357626439" lon="52.422345128032156"><ele>116.0</ele><time>2026-04-24T13:22:18.999Z</time></trkpt><trkpt lat="55.744946247153" lon="52.422231151167246"><ele>116.0</ele><time>2026-04-24T13:22:21.999Z</time></trkpt><trkpt lat="55.74488008021041" lon="52.42214709701526"><ele>115.99999999999999</ele><time>2026-04-24T13:22:24.999Z</time></trkpt><trkpt lat="55.74482313669097" lon="52.422064236611206"><ele>116.0</ele><time>2026-04-24T13:22:27.999Z</time></trkpt><trkpt lat="55.744762610156464" lon="52.421967658298286"><ele>116.16666666666666</ele><time>2026-04-24T13:22:31.999Z</time></trkpt><trkpt lat="55.744707204941" lon="52.42185222198025"><ele>116.33333333333333</ele><time>2026-04-24T13:22:33.999Z</time></trkpt><trkpt lat="55.744653133465775" lon="52.42174538194421"><ele>116.5</ele><time>2026-04-24T13:22:36.999Z</time></trkpt><trkpt lat="55.74458897096241" lon="52.42164661472756"><ele>116.66666666666666</ele><time>2026-04-24T13:22:39.999Z</time></trkpt><trkpt lat="55.74452412566686" lon="52.42154760552811"><ele>116.83333333333333</ele><time>2026-04-24T13:22:42.999Z</time></trkpt><trkpt lat="55.74447879735186" lon="52.421463671182444"><ele>117.0</ele><time>2026-04-24T13:22:45.999Z</time></trkpt><trkpt lat="55.744424515383024" lon="52.42136997763199"><ele>117.33333333333333</ele><time>2026-04-24T13:22:48.999Z</time></trkpt><trkpt lat="55.74434355639732" lon="52.421283372985094"><ele>117.66666666666666</ele><time>2026-04-24T13:22:51.999Z</time></trkpt><trkpt lat="55.74428609736489" lon="52.42118903626095"><ele>118.0</ele><time>2026-04-24T13:22:53.999Z</time></trkpt><trkpt lat="55.74424525595758" lon="52.42109569667323"><ele>118.33333333333333</ele><time>2026-04-24T13:22:55.999Z</time></trkpt><trkpt lat="55.744210396350795" lon="52.420994180682484"><ele>118.66666666666666</ele><time>2026-04-24T13:22:57.999Z</time></trkpt><trkpt lat="55.74414905526172" lon="52.420886852490725"><ele>119.0</ele><time>2026-04-24T13:23:00.999Z</time></trkpt><trkpt lat="55.744082246747816" lon="52.42078563864537"><ele>119.0</ele><time>2026-04-24T13:23:03.999Z</time></trkpt><trkpt lat="55.744020932570464" lon="52.42068696490777"><ele>119.0</ele><time>2026-04-24T13:23:06.999Z</time></trkpt><trkpt lat="55.743976780347325" lon="52.42059892674821"><ele>119.0</ele><time>2026-04-24T13:23:09.999Z</time></trkpt><trkpt lat="55.743993304734744" lon="52.42048058664507"><ele>119.0</ele><time>2026-04-24T13:23:13.999Z</time></trkpt><trkpt lat="55.74394236413614" lon="52.420404216574994"><ele>119.0</ele><time>2026-04-24T13:23:15.999Z</time></trkpt><trkpt lat="55.743894841263895" lon="52.420299358192125"><ele>119.0</ele><time>2026-04-24T13:23:18.998Z</time></trkpt><trkpt lat="55.7438405805841" lon="52.42019980717508"><ele>119.0</ele><time>2026-04-24T13:23:21.998Z</time></trkpt><trkpt lat="55.74378774002851" lon="52.42011905420085"><ele>118.99999999999999</ele><time>2026-04-24T13:23:26.998Z</time></trkpt><trkpt lat="55.743763336159276" lon="52.419979601694486"><ele>119.0</ele><time>2026-04-24T13:23:29.998Z</time></trkpt><trkpt lat="55.7437805895701" lon="52.41981859764869"><ele>119.0</ele><time>2026-04-24T13:23:32.998Z</time></trkpt><trkpt lat="55.743806967972915" lon="52.41967230373257"><ele>119.0</ele><time>2026-04-24T13:23:35.998Z</time></trkpt><trkpt lat="55.74382122957455" lon="52.41955509270468"><ele>118.99999999999999</ele><time>2026-04-24T13:23:38Z</time></trkpt><trkpt lat="55.74384174351979" lon="52.41943553796527"><ele>119.0</ele><time>2026-04-24T13:23:40Z</time></trkpt><trkpt lat="55.743871184912166" lon="52.41931319192186"><ele>119.28571428571428</ele><time>2026-04-24T13:23:43Z</time></trkpt><trkpt lat="55.743877730346796" lon="52.4191847777408"><ele>119.57142857142857</ele><time>2026-04-24T13:23:46Z</time></trkpt><trkpt lat="55.743841750273994" lon="52.41906184563667"><ele>119.85714285714286</ele><time>2026-04-24T13:23:49Z</time></trkpt><trkpt lat="55.74379690311347" lon="52.41890056123763"><ele>120.14285714285714</ele><time>2026-04-24T13:23:51Z</time></trkpt><trkpt lat="55.743781960290285" lon="52.41879185898462"><ele>120.42857142857142</ele><time>2026-04-24T13:23:53Z</time></trkpt><trkpt lat="55.74375524784711" lon="52.41868637012402"><ele>120.71428571428571</ele><time>2026-04-24T13:23:55Z</time></trkpt><trkpt lat="55.743727429647606" lon="52.41858133994359"><ele>121.0</ele><time>2026-04-24T13:23:57Z</time></trkpt><trkpt lat="55.74368554528351" lon="52.41849235027057"><ele>121.0</ele><time>2026-04-24T13:23:59Z</time></trkpt><trkpt lat="55.743646252884574" lon="52.4183976776921"><ele>120.99999999999999</ele><time>2026-04-24T13:24:01Z</time></trkpt><trkpt lat="55.74360805732633" lon="52.41829897038792"><ele>121.0</ele><time>2026-04-24T13:24:03Z</time></trkpt><trkpt lat="55.74356219249735" lon="52.41820773679735"><ele>121.0</ele><time>2026-04-24T13:24:05Z</time></trkpt><trkpt lat="55.74352283414193" lon="52.418114172804415"><ele>120.99999999999999</ele><time>2026-04-24T13:24:07Z</time></trkpt><trkpt lat="55.743480868953334" lon="52.41802693772987"><ele>121.0</ele><time>2026-04-24T13:24:09Z</time></trkpt><trkpt lat="55.743418590515695" lon="52.41790003860336"><ele>121.0</ele><time>2026-04-24T13:24:12Z</time></trkpt><trkpt lat="55.74335664906822" lon="52.417777808713055"><ele>121.16666666666667</ele><time>2026-04-24T13:24:14.999Z</time></trkpt><trkpt lat="55.74329420071668" lon="52.417670269539954"><ele>121.33333333333334</ele><time>2026-04-24T13:24:17.999Z</time></trkpt><trkpt lat="55.743229624249736" lon="52.41756884207852"><ele>121.5</ele><time>2026-04-24T13:24:20.999Z</time></trkpt><trkpt lat="55.74317183215388" lon="52.41744595162667"><ele>121.66666666666666</ele><time>2026-04-24T13:24:23.999Z</time></trkpt><trkpt lat="55.743122789002186" lon="52.4173693697098"><ele>121.83333333333333</ele><time>2026-04-24T13:24:25.999Z</time></trkpt><trkpt lat="55.743080224876365" lon="52.41728589610638"><ele>122.0</ele><time>2026-04-24T13:24:27.999Z</time></trkpt><trkpt lat="55.74303349733605" lon="52.417199982847485"><ele>121.85714285714283</ele><time>2026-04-24T13:24:29.999Z</time></trkpt><trkpt lat="55.742982130171015" lon="52.417114835259916"><ele>121.71428571428571</ele><time>2026-04-24T13:24:31.999Z</time></trkpt><trkpt lat="55.7429353996492" lon="52.41702671552532"><ele>121.57142857142856</ele><time>2026-04-24T13:24:33.999Z</time></trkpt><trkpt lat="55.74288406341202" lon="52.41693446400035"><ele>121.42857142857142</ele><time>2026-04-24T13:24:35.999Z</time></trkpt><trkpt lat="55.742829250607855" lon="52.41684892228635"><ele>121.28571428571428</ele><time>2026-04-24T13:24:37.999Z</time></trkpt><trkpt lat="55.74277355155325" lon="52.41675017430419"><ele>121.14285714285714</ele><time>2026-04-24T13:24:39.999Z</time></trkpt><trkpt lat="55.74271786756945" lon="52.416664599781434"><ele>121.0</ele><time>2026-04-24T13:24:41.999Z</time></trkpt><trkpt lat="55.74266177560885" lon="52.41657885206015"><ele>121.0</ele><time>2026-04-24T13:24:43.999Z</time></trkpt><trkpt lat="55.7426149237646" lon="52.41648608832057"><ele>120.99999999999999</ele><time>2026-04-24T13:24:45.999Z</time></trkpt><trkpt lat="55.74256922399951" lon="52.41638798256045"><ele>121.0</ele><time>2026-04-24T13:24:47.999Z</time></trkpt><trkpt lat="55.74251926649113" lon="52.416300546508616"><ele>121.0</ele><time>2026-04-24T13:24:49.999Z</time></trkpt><trkpt lat="55.74247525759175" lon="52.41621693761745"><ele>120.99999999999999</ele><time>2026-04-24T13:24:51.999Z</time></trkpt><trkpt lat="55.742425817899495" lon="52.41612617783238"><ele>121.0</ele><time>2026-04-24T13:24:53.999Z</time></trkpt><trkpt lat="55.7423894988105" lon="52.416029815103215"><ele>121.0</ele><time>2026-04-24T13:24:55.999Z</time></trkpt><trkpt lat="55.74234695993249" lon="52.41594280507526"><ele>121.0</ele><time>2026-04-24T13:24:57.999Z</time></trkpt><trkpt lat="55.74228145095227" lon="52.41581967746771"><ele>120.99999999999999</ele><time>2026-04-24T13:25:00.999Z</time></trkpt><trkpt lat="55.74223952463264" lon="52.41573063565792"><ele>121.0</ele><time>2026-04-24T13:25:02.999Z</time></trkpt><trkpt lat="55.742188344913764" lon="52.41564525701736"><ele>121.0</ele><time>2026-04-24T13:25:04.999Z</time></trkpt><trkpt lat="55.74214536862183" lon="52.41556241711609"><ele>120.99999999999999</ele><time>2026-04-24T13:25:06.999Z</time></trkpt><trkpt lat="55.74210312880172" lon="52.41547325083932"><ele>121.0</ele><time>2026-04-24T13:25:08.999Z</time></trkpt><trkpt lat="55.742035113810964" lon="52.41537587663063"><ele>121.0</ele><time>2026-04-24T13:25:11.999Z</time></trkpt><trkpt lat="55.74196609796769" lon="52.415278257733625"><ele>120.83333333333334</ele><time>2026-04-24T13:25:14.999Z</time></trkpt><trkpt lat="55.74192126306575" lon="52.415148479829526"><ele>120.66666666666667</ele><time>2026-04-24T13:25:17.999Z</time></trkpt><trkpt lat="55.74188690753168" lon="52.415016473686656"><ele>120.5</ele><time>2026-04-24T13:25:20.999Z</time></trkpt><trkpt lat="55.741833106265105" lon="52.414902494952926"><ele>120.33333333333334</ele><time>2026-04-24T13:25:23.999Z</time></trkpt><trkpt lat="55.74178626123684" lon="52.41477132145906"><ele>120.16666666666667</ele><time>2026-04-24T13:25:26.999Z</time></trkpt><trkpt lat="55.741733438952124" lon="52.414647368791044"><ele>120.0</ele><time>2026-04-24T13:25:29.999Z</time></trkpt><trkpt lat="55.74169175578895" lon="52.41454078769733"><ele>119.66666666666667</ele><time>2026-04-24T13:25:32.998Z</time></trkpt><trkpt lat="55.74162960233106" lon="52.414417341193925"><ele>119.33333333333334</ele><time>2026-04-24T13:25:35.998Z</time></trkpt><trkpt lat="55.74157983225894" lon="52.41433436725587"><ele>119.0</ele><time>2026-04-24T13:25:37.998Z</time></trkpt><trkpt lat="55.74153485830226" lon="52.41425302028776"><ele>118.66666666666667</ele><time>2026-04-24T13:25:39.998Z</time></trkpt><trkpt lat="55.74147329439772" lon="52.41415506755595"><ele>118.33333333333334</ele><time>2026-04-24T13:25:43Z</time></trkpt><trkpt lat="55.741428804375474" lon="52.41405500220096"><ele>118.0</ele><time>2026-04-24T13:25:46Z</time></trkpt><trkpt lat="55.74143880954135" lon="52.41392031887993"><ele>118.00000000000001</ele><time>2026-04-24T13:25:49Z</time></trkpt><trkpt lat="55.741456989751875" lon="52.41378503333792"><ele>118.0</ele><time>2026-04-24T13:25:52Z</time></trkpt><trkpt lat="55.74147652307037" lon="52.413634231662776"><ele>118.0</ele><time>2026-04-24T13:25:55Z</time></trkpt><trkpt lat="55.74151655569186" lon="52.413484949151325"><ele>118.0</ele><time>2026-04-24T13:25:56Z</time></trkpt><trkpt lat="55.741501725212736" lon="52.41337281069678"><ele>118.00000000000001</ele><time>2026-04-24T13:25:58Z</time></trkpt><trkpt lat="55.74147180420201" lon="52.413264305112634"><ele>118.0</ele><time>2026-04-24T13:26:00Z</time></trkpt><trkpt lat="55.741428483715545" lon="52.41317682586492"><ele>118.0</ele><time>2026-04-24T13:26:02Z</time></trkpt><trkpt lat="55.74138803191282" lon="52.41308559910553"><ele>118.0</ele><time>2026-04-24T13:26:04Z</time></trkpt><trkpt lat="55.7413496025016" lon="52.412981751239634"><ele>118.0</ele><time>2026-04-24T13:26:06Z</time></trkpt><trkpt lat="55.74134254444147" lon="52.41285963273519"><ele>118.0</ele><time>2026-04-24T13:26:08Z</time></trkpt><trkpt lat="55.741359917296904" lon="52.41273724475789"><ele>118.0</ele><time>2026-04-24T13:26:10Z</time></trkpt><trkpt lat="55.74137797643985" lon="52.412625981028526"><ele>118.0</ele><time>2026-04-24T13:26:12Z</time></trkpt><trkpt lat="55.74137170006173" lon="52.41250217455062"><ele>118.0</ele><time>2026-04-24T13:26:14Z</time></trkpt><trkpt lat="55.741405981539856" lon="52.41237645998752"><ele>118.0</ele><time>2026-04-24T13:26:16Z</time></trkpt><trkpt lat="55.7414275544359" lon="52.41225705378124"><ele>118.0</ele><time>2026-04-24T13:26:18Z</time></trkpt><trkpt lat="55.741446734598796" lon="52.41208585425824"><ele>118.0</ele><time>2026-04-24T13:26:21Z</time></trkpt><trkpt lat="55.74146736041148" lon="52.41195875247845"><ele>118.0</ele><time>2026-04-24T13:26:23Z</time></trkpt><trkpt lat="55.74148154791199" lon="52.411838862602764"><ele>118.0</ele><time>2026-04-24T13:26:25Z</time></trkpt><trkpt lat="55.74149998359725" lon="52.41172513920484"><ele>118.0</ele><time>2026-04-24T13:26:27Z</time></trkpt><trkpt lat="55.74152313066281" lon="52.41161385613316"><ele>118.0</ele><time>2026-04-24T13:26:28.999Z</time></trkpt><trkpt lat="55.74155123923152" lon="52.41145308781206"><ele>118.16666666666667</ele><time>2026-04-24T13:26:31.999Z</time></trkpt><trkpt lat="55.741573782804636" lon="52.41134841762852"><ele>118.33333333333334</ele><time>2026-04-24T13:26:33.999Z</time></trkpt><trkpt lat="55.741581071475295" lon="52.411218062769585"><ele>118.5</ele><time>2026-04-24T13:26:36.999Z</time></trkpt><trkpt lat="55.74160630026902" lon="52.41107456869656"><ele>118.66666666666666</ele><time>2026-04-24T13:26:43.999Z</time></trkpt><trkpt lat="55.741640519704745" lon="52.41091849965435"><ele>118.83333333333333</ele><time>2026-04-24T13:26:46.999Z</time></trkpt><trkpt lat="55.74165625740575" lon="52.410797262841854"><ele>119.0</ele><time>2026-04-24T13:26:48.999Z</time></trkpt><trkpt lat="55.74167376387249" lon="52.41067916091181"><ele>119.0</ele><time>2026-04-24T13:26:50.999Z</time></trkpt><trkpt lat="55.74169462043238" lon="52.41056390269056"><ele>119.0</ele><time>2026-04-24T13:26:52.999Z</time></trkpt><trkpt lat="55.74170826571249" lon="52.41044481266873"><ele>119.0</ele><time>2026-04-24T13:26:54.999Z</time></trkpt><trkpt lat="55.74173551036359" lon="52.41028165838021"><ele>119.0</ele><time>2026-04-24T13:26:57.999Z</time></trkpt><trkpt lat="55.741756789556405" lon="52.41017199691406"><ele>119.0</ele><time>2026-04-24T13:26:59.999Z</time></trkpt><trkpt lat="55.741773759625495" lon="52.41005497773613"><ele>119.0</ele><time>2026-04-24T13:27:01.999Z</time></trkpt><trkpt lat="55.74179354813134" lon="52.40994355093933"><ele>119.0</ele><time>2026-04-24T13:27:03.999Z</time></trkpt><trkpt lat="55.741813046872664" lon="52.40983509810387"><ele>118.66666666666666</ele><time>2026-04-24T13:27:05.999Z</time></trkpt><trkpt lat="55.74184088997625" lon="52.40969519544486"><ele>118.33333333333333</ele><time>2026-04-24T13:27:08.999Z</time></trkpt><trkpt lat="55.74186572189689" lon="52.40955275911311"><ele>118.0</ele><time>2026-04-24T13:27:11.999Z</time></trkpt><trkpt lat="55.74184942091379" lon="52.409417673681354"><ele>117.66666666666666</ele><time>2026-04-24T13:27:14.999Z</time></trkpt><trkpt lat="55.74180433333147" lon="52.40927704853776"><ele>117.33333333333333</ele><time>2026-04-24T13:27:18.999Z</time></trkpt><trkpt lat="55.7418269346048" lon="52.409144568482496"><ele>117.0</ele><time>2026-04-24T13:27:21.999Z</time></trkpt><trkpt lat="55.74184187690472" lon="52.40903002014562"><ele>116.71428571428572</ele><time>2026-04-24T13:27:24.999Z</time></trkpt><trkpt lat="55.74181593343361" lon="52.408920720219946"><ele>116.42857142857144</ele><time>2026-04-24T13:27:28.999Z</time></trkpt><trkpt lat="55.74176261970427" lon="52.40885197215251"><ele>116.14285714285714</ele><time>2026-04-24T13:27:34.999Z</time></trkpt><trkpt lat="55.74168251256154" lon="52.408842240185976"><ele>115.85714285714286</ele><time>2026-04-24T13:27:38.999Z</time></trkpt><trkpt lat="55.74161997784367" lon="52.408798896192046"><ele>115.57142857142857</ele><time>2026-04-24T13:27:43.999Z</time></trkpt><trkpt lat="55.74155515128828" lon="52.40873744280467"><ele>115.28571428571428</ele><time>2026-04-24T13:27:49Z</time></trkpt><trkpt lat="55.74149046421393" lon="52.408701168729785"><ele>114.99999999999999</ele><time>2026-04-24T13:27:52Z</time></trkpt><trkpt lat="55.74141973490633" lon="52.40866385491638"><ele>114.99999999999999</ele><time>2026-04-24T13:27:55Z</time></trkpt><trkpt lat="55.741349383752606" lon="52.408630136866606"><ele>115.0</ele><time>2026-04-24T13:27:58Z</time></trkpt><trkpt lat="55.741280156184395" lon="52.4085882669667"><ele>114.99999999999999</ele><time>2026-04-24T13:28:01Z</time></trkpt><trkpt lat="55.741209883273456" lon="52.408540088136"><ele>114.99999999999999</ele><time>2026-04-24T13:28:04Z</time></trkpt><trkpt lat="55.74114611313158" lon="52.40848637242297"><ele>115.0</ele><time>2026-04-24T13:28:07Z</time></trkpt><trkpt lat="55.741076758127605" lon="52.408467711814986"><ele>114.99999999999999</ele><time>2026-04-24T13:28:10Z</time></trkpt><trkpt lat="55.741003309840686" lon="52.40845766491477"><ele>114.99999999999999</ele><time>2026-04-24T13:28:13Z</time></trkpt><trkpt lat="55.74092952882897" lon="52.408399859772125"><ele>114.99999999999999</ele><time>2026-04-24T13:28:16Z</time></trkpt><trkpt lat="55.74085377601075" lon="52.40836357970808"><ele>115.0</ele><time>2026-04-24T13:28:19Z</time></trkpt><trkpt lat="55.74080611362617" lon="52.40826126522144"><ele>114.99999999999999</ele><time>2026-04-24T13:28:22Z</time></trkpt><trkpt lat="55.740772621905215" lon="52.40814143448776"><ele>114.99999999999999</ele><time>2026-04-24T13:28:25Z</time></trkpt><trkpt lat="55.74073306855385" lon="52.40805249445863"><ele>115.0</ele><time>2026-04-24T13:28:29Z</time></trkpt><trkpt lat="55.74067901195905" lon="52.407983865475394"><ele>114.99999999999999</ele><time>2026-04-24T13:28:34Z</time></trkpt><trkpt lat="55.740613585057645" lon="52.40795779769902"><ele>114.99999999999999</ele><time>2026-04-24T13:28:44Z</time></trkpt><trkpt lat="55.74035428040442" lon="52.407294532254156"><ele>115.2</ele><time>2026-04-24T13:29:27.999Z</time></trkpt><trkpt lat="55.74034344825438" lon="52.407008180196044"><ele>115.4</ele><time>2026-04-24T13:29:28.999Z</time></trkpt><trkpt lat="55.74040532951441" lon="52.40704474760509"><ele>115.6</ele><time>2026-04-24T13:29:29.999Z</time></trkpt><trkpt lat="55.74051579724301" lon="52.40709968095498"><ele>115.8</ele><time>2026-04-24T13:29:32.999Z</time></trkpt><trkpt lat="55.74047378398327" lon="52.40699874373072"><ele>116.0</ele><time>2026-04-24T13:29:46.999Z</time></trkpt><trkpt lat="55.74041373037105" lon="52.40689377284719"><ele>116.00000000000001</ele><time>2026-04-24T13:29:51.999Z</time></trkpt><trkpt lat="55.74037028487983" lon="52.40680696470578"><ele>116.0</ele><time>2026-04-24T13:29:53.999Z</time></trkpt><trkpt lat="55.74029780069325" lon="52.406761553431785"><ele>116.00000000000001</ele><time>2026-04-24T13:29:57Z</time></trkpt><trkpt lat="55.740224489646245" lon="52.40668922403972"><ele>116.00000000000001</ele><time>2026-04-24T13:30:00Z</time></trkpt><trkpt lat="55.74016450621058" lon="52.406631119542915"><ele>116.0</ele><time>2026-04-24T13:30:02Z</time></trkpt><trkpt lat="55.740105968590456" lon="52.406549239940524"><ele>116.00000000000001</ele><time>2026-04-24T13:30:05Z</time></trkpt><trkpt lat="55.74004502621419" lon="52.40649331795607"><ele>116.00000000000001</ele><time>2026-04-24T13:30:08Z</time></trkpt><trkpt lat="55.739965188023206" lon="52.40644366046467"><ele>115.99999999999999</ele><time>2026-04-24T13:30:11Z</time></trkpt><trkpt lat="55.73988690779997" lon="52.40639740263072"><ele>116.0</ele><time>2026-04-24T13:30:14Z</time></trkpt><trkpt lat="55.73981492581581" lon="52.40634310872835"><ele>116.0</ele><time>2026-04-24T13:30:17Z</time></trkpt><trkpt lat="55.739743297784514" lon="52.40629368590769"><ele>116.0</ele><time>2026-04-24T13:30:20Z</time></trkpt><trkpt lat="55.73965817461554" lon="52.406250019963316"><ele>115.99999999999999</ele><time>2026-04-24T13:30:23Z</time></trkpt><trkpt lat="55.739581306099645" lon="52.40620608516198"><ele>116.0</ele><time>2026-04-24T13:30:26Z</time></trkpt><trkpt lat="55.739502107083084" lon="52.40616816317526"><ele>115.99999999999999</ele><time>2026-04-24T13:30:29Z</time></trkpt><trkpt lat="55.73942275300634" lon="52.40612836503714"><ele>116.0</ele><time>2026-04-24T13:30:32Z</time></trkpt><trkpt lat="55.73934838423518" lon="52.40609295455372"><ele>116.0</ele><time>2026-04-24T13:30:35Z</time></trkpt><trkpt lat="55.739272224587666" lon="52.40604723993697"><ele>116.0</ele><time>2026-04-24T13:30:38Z</time></trkpt><trkpt lat="55.73919656031704" lon="52.40600426633916"><ele>115.99999999999999</ele><time>2026-04-24T13:30:41Z</time></trkpt><trkpt lat="55.739115463881866" lon="52.405987194576"><ele>116.0</ele><time>2026-04-24T13:30:44Z</time></trkpt><trkpt lat="55.73908263140719" lon="52.40586925367917"><ele>115.99999999999999</ele><time>2026-04-24T13:30:47Z</time></trkpt><trkpt lat="55.73909166131967" lon="52.4056993045493"><ele>116.0</ele><time>2026-04-24T13:30:50Z</time></trkpt><trkpt lat="55.73909197663058" lon="52.40557208328117"><ele>116.0</ele><time>2026-04-24T13:30:53Z</time></trkpt><trkpt lat="55.73903717879325" lon="52.405448760204386"><ele>116.0</ele><time>2026-04-24T13:30:56Z</time></trkpt><trkpt lat="55.738983291766786" lon="52.40538881662621"><ele>115.99999999999999</ele><time>2026-04-24T13:30:58Z</time></trkpt><trkpt lat="55.738922467817204" lon="52.405345212827584"><ele>116.0</ele><time>2026-04-24T13:31:00Z</time></trkpt><trkpt lat="55.73884949410418" lon="52.405285851381095"><ele>116.42857142857144</ele><time>2026-04-24T13:31:03Z</time></trkpt><trkpt lat="55.73877418761482" lon="52.405232208996246"><ele>116.85714285714286</ele><time>2026-04-24T13:31:05.999Z</time></trkpt><trkpt lat="55.73869989216068" lon="52.40515539452724"><ele>117.28571428571429</ele><time>2026-04-24T13:31:09.999Z</time></trkpt><trkpt lat="55.73863367160664" lon="52.40509172255953"><ele>117.71428571428572</ele><time>2026-04-24T13:31:13.999Z</time></trkpt><trkpt lat="55.73865496799561" lon="52.40497310939209"><ele>118.14285714285714</ele><time>2026-04-24T13:31:16.999Z</time></trkpt><trkpt lat="55.73867465706152" lon="52.40486464543248"><ele>118.57142857142857</ele><time>2026-04-24T13:31:18.999Z</time></trkpt><trkpt lat="55.73868877411061" lon="52.40475007026987"><ele>119.0</ele><time>2026-04-24T13:31:20.999Z</time></trkpt><trkpt lat="55.73870810008681" lon="52.404610764103204"><ele>119.28571428571428</ele><time>2026-04-24T13:31:23.999Z</time></trkpt><trkpt lat="55.73872207366047" lon="52.40449989428777"><ele>119.57142857142857</ele><time>2026-04-24T13:31:25.999Z</time></trkpt><trkpt lat="55.738717015841324" lon="52.404374248158184"><ele>119.85714285714286</ele><time>2026-04-24T13:31:29.999Z</time></trkpt><trkpt lat="55.73864536472843" lon="52.404343828727285"><ele>120.14285714285714</ele><time>2026-04-24T13:31:32.999Z</time></trkpt><trkpt lat="55.738571196725815" lon="52.404290998852765"><ele>120.42857142857142</ele><time>2026-04-24T13:31:35.999Z</time></trkpt><trkpt lat="55.73850212070678" lon="52.40428876790419"><ele>120.71428571428571</ele><time>2026-04-24T13:31:38.999Z</time></trkpt><trkpt lat="55.73842569560906" lon="52.40427796821304"><ele>121.0</ele><time>2026-04-24T13:31:41.999Z</time></trkpt><trkpt lat="55.73834302410514" lon="52.40424691580658"><ele>121.50000000000001</ele><time>2026-04-24T13:31:44.999Z</time></trkpt><trkpt lat="55.73826082848095" lon="52.404225471360355"><ele>122.0</ele><time>2026-04-24T13:31:47.999Z</time></trkpt><trkpt lat="55.73816442750205" lon="52.40414050232312"><ele>122.5</ele><time>2026-04-24T13:31:50.999Z</time></trkpt><trkpt lat="55.73808096020589" lon="52.40411493629271"><ele>123.0</ele><time>2026-04-24T13:31:53.999Z</time></trkpt><trkpt lat="55.7380060973193" lon="52.40408142018371"><ele>123.50000000000001</ele><time>2026-04-24T13:31:55.999Z</time></trkpt><trkpt lat="55.737944619394675" lon="52.40403438380351"><ele>124.0</ele><time>2026-04-24T13:31:57.999Z</time></trkpt><trkpt lat="55.73786787157025" lon="52.403998370015536"><ele>124.0</ele><time>2026-04-24T13:32:02Z</time></trkpt></trkseg></trk></gpx>